GFSSE_700_spd_000.txt.gz
Wind_Speed
5 6 5 7 9 8 9 9 8 8 7 8 8 8 9 10 11 12 10 10 10 9 8 9 10 9 9 10 10 10 9 8 9 9 9 9 9 10 10 9 8 7 7
4 6 6 5 5 11 11 11 12 11 9 8 11 11 12 13 13 10 13 12 9 11 10 10 9 10 10 10 10 11 11 10 10 10 10 10 9 9 8 8 8 7 6
4 2 1 1 1 3 9 20 18 15 15 11 13 13 13 14 18 16 12 13 13 11 12 12 12 11 12 12 12 12 12 12 11 11 11 10 10 10 10 9 7 7 6
2 3 2 4 9 9 8 10 16 24 17 17 17 15 22 23 36 40 14 15 15 12 12 13 14 14 14 14 13 14 15 14 13 13 13 13 12 12 12 11 9 8 6
7 6 12 12 15 13 11 12 16 20 19 16 17 19 22 21 23 19 12 14 14 15 16 15 16 17 17 16 15 15 16 14 15 15 15 15 15 15 15 14 13 10 7
5 7 7 9 9 8 9 14 12 18 21 18 21 19 20 18 20 18 19 21 22 26 24 22 20 18 12 16 15 15 17 15 15 16 17 17 18 17 17 18 16 13 10
6 5 8 7 5 9 11 15 14 16 18 19 22 24 21 19 20 23 21 22 24 25 25 26 23 20 16 20 19 18 17 19 17 18 18 19 21 20 20 21 20 16 14
1 3 4 4 2 2 5 8 12 13 17 21 23 26 26 24 21 19 23 25 25 25 23 21 27 26 24 23 21 21 20 21 21 21 19 20 22 23 22 22 22 21 18
3 3 3 3 9 14 17 18 18 17 17 19 24 26 27 24 25 24 23 23 22 22 20 21 27 27 27 25 25 27 27 25 23 25 22 20 21 22 24 25 24 24 22
3 2 6 10 13 17 22 22 23 24 20 18 18 25 29 30 28 28 27 25 24 24 23 24 26 27 29 29 31 32 28 29 31 31 29 24 20 23 24 25 27 27 25
7 9 11 14 19 22 22 23 22 20 20 21 20 18 21 24 30 33 34 33 31 24 25 27 29 31 34 36 35 33 34 29 29 36 33 31 24 24 25 26 27 28 28
10 12 14 19 23 23 23 21 19 18 20 20 21 21 25 28 25 31 37 35 32 36 29 25 31 31 33 36 37 36 39 42 40 39 40 34 28 27 27 25 29 29 31
14 17 21 21 22 20 16 13 15 16 19 20 21 23 24 24 25 26 39 54 33 45 16 29 24 30 35 36 38 35 36 42 42 49 45 36 30 30 30 31 31 33 35
20 22 20 20 15 11 10 12 13 15 18 20 20 21 23 27 28 27 28 31 29 45 30 32 29 11 39 24 31 32 30 36 34 38 34 41 31 33 34 33 30 35 36
19 19 15 10 12 9 9 10 12 14 16 17 17 19 21 24 24 24 24 26 26 26 39 41 32 38 29 16 27 31 34 30 33 32 35 39 36 36 37 37 33 35 37
17 12 10 12 10 10 11 12 14 16 18 19 20 21 22 23 25 26 25 25 24 27 22 16 15 20 26 32 33 29 30 39 38 39 38 37 41 41 41 40 36 37 38
13 13 15 14 12 12 12 13 14 16 18 19 21 22 22 23 26 28 28 28 27 27 26 26 23 19 17 12 20 26 34 33 36 41 39 45 36 48 46 43 42 39 38
15 18 18 18 17 17 17 19 20 21 22 24 26 27 27 28 29 32 34 34 32 31 31 29 26 24 25 28 23 27 28 36 34 39 41 42 35 37 43 44 42 41 41
21 21 23 23 23 23 24 25 26 27 28 29 29 29 28 29 32 35 36 34 32 33 32 29 26 24 25 29 30 30 32 33 35 35 38 35 38 32 52 49 43 44 43
25 25 27 27 28 28 28 29 30 31 32 32 32 31 30 32 35 38 34 33 35 34 33 31 30 30 30 31 31 33 35 34 33 34 34 33 39 39 52 49 49 46 47
26 27 29 30 30 31 30 30 31 33 33 33 33 32 33 35 36 36 37 36 37 38 37 36 35 34 33 35 34 35 35 36 37 40 37 33 33 34 43 43 55 47 49
29 31 32 32 33 33 33 33 33 33 34 35 36 38 38 36 36 39 41 40 38 36 38 37 36 35 36 37 36 38 39 39 40 41 37 37 37 34 37 49 44 47 50
27 29 31 34 34 35 35 34 33 33 34 36 39 40 43 40 42 44 42 41 41 40 36 33 32 32 34 35 37 38 39 42 43 42 40 35 36 39 38 37 46 50 55
32 32 30 31 33 33 31 31 30 31 32 36 38 40 40 44 44 43 42 41 39 37 36 35 31 30 32 33 35 38 40 43 45 47 44 45 45 39 39 39 37 42 53
29 26 24 27 31 32 29 29 28 31 35 38 41 41 41 41 42 42 42 42 41 40 39 38 36 33 31 34 36 39 42 45 46 48 49 48 50 41 43 39 38 48 54
27 31 35 35 34 33 32 31 31 34 38 40 40 39 42 42 43 44 45 45 45 44 43 43 42 42 39 38 38 38 42 45 47 48 52 52 52 52 44 44 45 46 47

GFSSE_700_spd_003.txt.gz
Wind_Speed
3 6 10 5 3 7 11 12 11 11 9 6 8 12 8 9 10 10 11 11 12 12 10 11 10 11 9 11 11 10 10 10 9 10 11 11 10 10 9 8 8 8 7
4 6 3 2 2 5 12 12 14 16 12 10 11 11 10 11 11 14 14 12 11 13 13 13 12 13 11 10 12 11 12 12 10 10 10 10 10 10 10 9 8 5 6
3 3 3 5 4 4 9 10 14 14 7 10 12 12 13 19 17 18 19 12 18 13 12 14 12 13 12 11 13 13 14 14 11 10 10 10 11 10 11 10 9 7 7
2 2 4 3 6 7 9 11 15 17 15 12 16 22 24 23 28 22 28 28 34 21 16 14 12 15 16 15 16 15 15 13 12 12 12 13 13 12 11 12 11 10 9
3 5 7 7 9 9 12 17 16 15 18 11 13 20 18 22 21 23 24 24 34 27 14 14 14 15 18 19 18 18 16 15 13 13 13 14 15 13 13 14 13 11 10
5 6 6 8 11 13 14 15 14 16 18 19 17 17 13 14 17 21 22 18 16 21 22 20 15 20 20 24 22 19 17 16 14 14 16 15 16 15 15 16 16 14 12
7 9 9 9 11 10 9 12 12 14 16 17 19 20 16 14 12 17 20 21 16 27 24 16 25 23 23 25 24 21 18 18 16 15 15 18 18 17 18 18 19 17 15
11 10 8 7 7 8 9 12 13 14 16 19 20 23 24 18 15 16 20 24 23 23 23 26 26 28 28 25 25 25 22 23 22 18 15 18 21 20 21 21 20 21 20
8 6 6 7 9 11 14 16 19 20 20 20 21 21 21 22 18 20 24 26 27 28 25 26 28 28 28 27 28 28 27 27 26 25 21 20 21 21 23 23 24 23 24
9 8 9 12 14 16 20 20 21 20 20 20 19 19 21 22 20 19 23 24 28 29 31 31 29 27 27 29 29 32 28 28 26 25 26 24 24 21 25 24 23 25 25
10 11 13 15 17 20 24 25 25 22 19 17 17 19 18 20 20 23 21 25 26 29 34 34 33 29 31 31 31 33 33 32 32 30 32 31 29 26 27 28 24 25 27
12 14 16 18 22 24 24 23 21 16 14 15 15 15 17 17 17 18 18 19 20 31 32 37 44 34 32 33 33 34 34 34 34 37 33 33 30 28 31 31 30 27 27
15 17 20 24 23 22 20 15 15 13 14 14 15 15 16 17 19 20 19 18 22 28 29 36 44 31 38 33 29 29 37 35 36 38 37 39 37 37 33 34 35 30 29
19 22 23 23 20 14 14 15 16 14 14 16 16 16 17 18 20 22 20 21 23 24 22 32 17 55 24 21 25 19 21 34 36 39 40 38 45 42 37 42 40 36 33
21 22 20 14 11 13 11 12 14 13 14 16 17 17 18 19 20 20 21 21 24 27 30 32 22 16 30 42 44 41 29 36 31 33 33 35 36 38 47 42 41 40 34
22 19 15 14 16 16 15 16 16 17 17 19 20 20 21 20 20 22 24 24 26 28 29 28 25 22 16 16 9 17 24 25 30 26 33 35 33 33 37 40 40 40 37
23 19 17 19 19 19 20 21 22 22 23 23 24 24 25 25 26 27 27 27 27 29 30 30 29 25 24 21 16 18 20 21 25 26 36 40 35 37 35 37 38 43 44
20 20 23 24 25 24 26 26 27 29 30 31 32 33 33 32 31 30 30 31 32 31 29 30 29 28 26 25 27 24 26 28 30 28 30 32 30 34 34 35 38 38 41
22 24 27 28 29 29 30 31 31 32 35 36 36 36 36 35 34 33 32 32 34 35 32 29 32 33 31 29 27 27 31 30 29 31 32 32 31 30 33 34 38 40 46
26 30 33 32 33 32 34 34 36 36 37 38 38 39 35 35 34 33 36 37 38 38 38 37 34 35 37 35 33 32 35 34 33 32 33 34 34 34 32 35 31 36 47
33 32 33 35 36 35 35 36 38 38 39 37 38 38 36 35 36 35 36 38 39 39 40 40 38 37 38 40 39 36 37 35 35 35 33 34 34 34 33 36 33 32 46
26 28 30 31 35 33 36 36 36 37 38 37 38 40 36 36 36 37 40 38 39 40 40 41 39 36 37 38 41 41 39 37 36 40 36 34 36 36 34 37 36 35 39
26 32 35 37 36 35 30 36 35 34 34 37 37 38 39 41 40 40 41 39 40 38 37 36 37 37 35 36 37 40 41 41 42 41 41 41 40 39 38 42 41 39 39
34 37 33 30 28 30 31 30 36 34 35 29 21 26 33 36 39 38 36 37 38 37 37 37 32 35 36 35 34 34 37 41 43 47 44 45 44 44 43 40 41 45 44
35 33 32 31 33 35 39 39 35 36 34 34 35 39 41 39 40 41 42 42 43 42 41 40 40 38 36 36 33 31 35 38 40 45 49 46 46 45 47 42 43 41 45
29 28 31 31 31 35 36 39 35 37 36 37 40 44 43 41 43 43 46 47 48 50 49 47 44 43 43 41 39 37 37 37 38 39 48 50 51 48 51 53 44 45 46

GFSSE_700_spd_009.txt.gz
Wind_Speed
6 8 9 9 8 7 7 5 1 2 5 5 5 4 5 7 6 8 15 17 16 13 12 10 11 10 9 10 10 11 13 14 14 12 18 15 11 10 14 14 13 12 11
10 9 4 3 4 4 4 4 4 4 5 4 4 4 5 5 7 10 11 13 26 19 21 29 16 12 13 13 12 13 13 13 14 15 14 16 15 15 14 13 12 11 12
6 6 6 5 5 7 7 7 8 10 12 13 8 8 6 7 10 13 15 14 22 21 29 28 23 16 19 15 16 16 14 14 14 16 15 16 17 17 15 14 11 10 11
9 6 4 2 2 4 7 9 11 13 14 14 12 9 9 10 11 15 17 19 22 22 22 21 17 28 29 21 17 15 14 14 14 15 16 19 19 18 15 13 11 10 10
6 4 4 5 7 10 13 16 16 17 19 19 15 11 9 10 11 13 14 14 16 17 22 16 20 21 19 21 8 14 15 14 13 15 17 19 18 19 16 14 12 12 12
2 5 7 11 13 16 18 19 21 20 17 16 15 13 12 12 10 11 14 14 15 18 19 17 18 23 25 26 34 24 20 16 15 15 18 22 17 15 14 13 14 15 13
8 10 12 14 16 16 18 18 18 18 17 17 18 15 15 14 11 11 14 15 16 17 17 15 16 18 24 29 23 9 0 19 16 18 21 23 22 16 14 15 15 16 16
7 10 13 16 17 18 17 16 16 17 18 20 21 20 18 16 13 13 17 17 17 18 18 18 18 20 21 22 18 7 13 21 23 25 26 29 25 20 17 17 17 16 17
13 13 15 17 18 18 18 18 19 19 19 19 20 21 17 16 14 13 14 16 17 17 20 21 22 21 17 19 21 17 18 26 24 25 29 30 27 23 21 19 18 18 18
17 19 21 21 20 19 20 18 19 21 20 20 20 19 16 15 15 13 15 16 15 18 19 20 22 23 21 17 19 21 25 27 27 26 32 33 31 24 22 21 20 21 21
21 18 19 23 23 23 26 26 24 22 22 19 16 15 15 14 14 12 13 13 13 14 14 15 18 20 22 22 20 23 28 32 35 34 32 33 35 29 23 22 22 23 22
23 14 12 14 18 22 27 27 26 22 18 15 18 15 14 14 12 11 11 13 14 12 12 11 13 16 16 17 20 22 30 37 40 39 39 37 36 35 31 27 25 25 23
21 15 14 16 19 21 23 21 16 15 14 17 17 16 15 16 17 16 16 15 14 14 13 15 16 14 15 17 26 29 35 35 41 39 40 39 36 38 35 34 30 30 29
21 17 13 19 20 19 17 16 19 16 18 18 18 19 20 20 20 20 21 20 20 21 22 20 18 16 15 18 22 25 23 19 32 36 43 41 40 38 37 36 36 31 29
18 19 16 19 19 18 15 19 20 19 20 21 21 23 24 24 24 23 23 23 24 23 23 23 23 22 22 19 18 20 20 19 18 23 42 45 38 39 40 38 36 36 35
18 20 19 20 18 17 17 20 23 23 24 26 25 25 27 26 26 26 26 26 27 28 29 28 26 25 24 25 23 19 18 17 18 25 40 34 39 47 39 39 34 36 40
18 19 18 20 19 19 21 23 26 27 28 29 28 29 31 31 33 33 33 33 32 32 31 31 30 28 27 24 23 24 22 22 25 21 18 28 27 39 42 38 44 39 35
25 25 23 22 21 22 26 29 32 30 29 31 30 30 33 33 34 36 36 36 37 37 34 32 33 33 31 29 26 26 28 28 27 29 29 29 28 27 30 40 50 48 38
31 29 28 26 26 26 30 32 32 32 31 34 34 29 30 32 33 35 36 35 37 38 38 35 34 34 34 33 33 32 31 33 31 32 35 35 35 34 33 32 34 29 36
31 30 27 27 26 28 28 30 34 34 34 35 36 35 30 29 30 33 35 35 36 37 39 36 36 36 36 37 39 40 37 35 35 34 36 39 42 40 38 36 36 35 39
29 27 27 28 27 30 32 30 28 29 28 29 30 34 38 35 31 30 34 38 38 37 36 37 38 39 41 41 41 39 39 39 37 36 38 42 45 43 42 40 38 38 37
26 26 26 27 29 30 28 27 29 30 31 32 32 33 36 37 37 36 33 35 38 36 35 37 37 38 36 39 41 40 40 37 36 36 39 39 43 46 46 43 40 39 38
22 33 35 32 29 30 32 32 32 34 35 32 34 35 37 38 35 33 35 34 35 38 40 40 38 34 34 32 33 34 39 42 40 37 37 38 38 41 44 45 45 42 37
32 38 27 30 28 32 35 36 35 33 34 35 34 35 38 41 42 40 37 38 39 41 44 47 44 44 39 35 34 36 38 41 45 47 41 40 38 40 41 44 46 47 45
34 36 29 31 31 32 33 34 36 38 35 33 35 38 41 43 43 39 41 44 43 38 38 41 53 41 40 40 41 41 43 44 44 46 51 46 43 41 43 45 46 50 46
35 34 32 35 42 43 38 33 32 36 38 39 38 39 40 44 46 48 50 48 45 45 53 57 35 46 46 44 42 43 45 48 48 45 48 47 46 44 43 42 46 49 50

GFSSE_700_spd_012.txt.gz
Wind_Speed
4 6 4 9 5 4 4 3 4 6 5 1 1 3 2 4 6 5 2 2 2 4 11 20 17 21 21 17 14 10 10 13 15 15 17 18 16 17 15 10 8 9 11
9 7 6 6 9 7 4 5 3 5 6 6 6 7 6 5 6 7 9 11 14 14 14 20 19 31 25 23 17 17 12 11 15 15 15 15 17 16 13 10 10 11 14
7 7 6 5 4 5 2 3 6 8 8 8 7 9 8 8 10 12 14 15 16 17 15 18 16 21 19 17 20 22 21 13 13 15 15 16 16 17 15 12 12 14 14
9 6 5 3 3 5 6 7 9 11 11 12 11 11 10 9 13 14 14 13 16 18 19 20 20 20 26 26 25 22 31 19 14 14 16 17 17 17 16 17 17 16 13
8 5 3 2 5 8 10 11 13 15 15 15 14 13 10 9 10 12 13 15 16 17 18 18 19 19 25 24 31 26 15 26 17 15 15 17 17 20 20 21 20 18 16
5 1 2 5 7 9 10 12 13 15 16 17 17 15 13 10 9 11 13 14 16 17 15 14 19 22 21 25 19 23 14 20 25 20 16 18 18 18 21 23 19 18 17
1 1 3 7 10 13 14 15 15 15 17 16 18 18 17 15 12 12 14 14 15 17 16 16 20 19 19 17 15 22 25 23 26 25 19 20 18 19 19 22 19 19 17
3 6 10 12 14 15 16 17 18 19 20 20 20 20 20 18 16 14 15 16 18 18 18 18 20 21 20 16 14 12 12 15 30 29 23 25 21 23 21 23 21 19 18
11 12 14 14 12 13 16 16 17 19 21 22 22 23 23 22 19 17 17 17 17 17 16 19 18 20 21 17 15 11 14 16 29 25 24 27 28 27 24 25 23 21 20
12 13 13 13 13 15 17 16 18 19 19 18 16 15 15 15 15 15 15 14 14 13 13 13 13 15 17 18 19 16 14 15 22 28 32 34 31 28 25 25 23 22 22
15 14 13 16 17 19 21 22 22 18 14 13 12 16 14 12 12 12 13 13 13 13 12 10 9 11 13 15 17 19 19 17 19 23 27 33 36 30 30 27 28 24 24
10 13 16 17 20 22 23 22 16 15 13 13 14 15 14 13 13 13 14 13 12 12 11 11 11 12 13 14 11 15 17 18 23 28 32 33 38 38 29 31 29 27 26
13 11 10 15 18 19 18 15 16 17 15 15 16 17 17 16 15 15 16 17 19 18 17 16 15 16 16 15 15 18 22 26 29 29 35 34 37 41 34 34 36 35 31
15 12 13 16 17 17 13 11 14 16 16 16 17 18 19 19 19 18 18 19 20 20 20 20 20 19 20 20 19 18 19 23 28 30 22 30 35 38 42 38 36 38 37
13 14 13 16 19 18 15 15 17 19 20 21 22 23 24 24 24 23 22 23 23 24 25 25 25 25 24 24 25 25 23 22 23 22 22 30 32 42 44 45 43 40 39
16 17 18 18 20 19 17 18 20 23 25 25 24 25 27 27 28 28 28 28 27 28 28 29 29 29 29 28 27 28 28 25 22 22 22 28 36 39 42 49 51 46 43
18 19 21 19 19 21 21 22 24 27 29 27 26 27 29 30 31 31 31 31 30 31 31 32 32 32 32 32 31 30 30 29 26 24 28 28 31 35 44 44 51 47 51
21 23 24 25 22 21 21 24 27 27 26 27 27 28 28 29 31 32 32 32 32 31 31 32 32 32 31 32 33 33 32 31 30 31 31 32 33 31 35 39 40 55 55
22 25 27 29 29 27 25 24 26 29 28 25 24 25 26 28 29 30 29 30 32 33 32 32 32 32 33 33 33 33 34 34 34 35 37 36 37 41 42 42 37 35 44
20 23 26 30 32 30 29 30 27 25 26 27 25 21 21 23 26 29 30 31 33 34 33 33 35 36 35 35 34 34 34 34 36 38 42 42 41 43 45 47 46 41 40
20 24 23 29 27 27 26 26 28 28 28 28 28 28 27 24 24 26 30 32 32 33 35 34 34 34 33 36 37 38 34 36 35 36 40 42 45 45 46 46 47 48 43
17 17 22 29 25 26 26 28 31 31 31 30 29 31 32 32 31 32 33 34 35 37 38 36 36 36 38 38 39 36 39 36 34 31 35 37 39 44 45 45 46 46 48
17 16 28 33 29 29 30 32 35 34 33 32 32 33 34 36 37 38 38 39 36 39 41 39 41 43 44 44 42 42 43 44 40 35 32 32 35 36 41 45 45 46 47
22 27 34 36 30 30 35 37 39 39 38 34 35 35 35 38 40 40 42 43 42 43 43 46 47 46 46 47 45 47 48 47 45 47 38 37 36 37 36 41 45 46 48
29 33 36 39 36 33 36 40 43 43 41 39 36 37 39 41 42 42 43 46 48 47 47 50 50 52 47 46 47 58 50 50 45 44 47 43 39 39 39 43 42 47 48
37 38 41 39 37 33 32 41 45 39 41 39 37 38 39 44 47 47 44 47 50 52 54 54 54 53 50 50 58 55 51 45 43 44 46 46 48 42 44 41 44 43 48

GFSSE_700_spd_015.txt.gz
Wind_Speed
8 6 4 4 7 7 8 7 7 4 3 3 3 4 5 6 9 8 9 8 9 8 4 5 7 10 17 25 15 17 19 20 23 21 17 18 20 18 18 17 10 10 9
13 10 11 10 8 6 3 3 4 2 2 3 3 6 5 7 9 10 11 11 11 9 8 12 13 15 16 23 21 14 15 18 21 27 26 18 18 21 19 17 15 12 11
12 9 10 9 5 3 4 0 1 2 2 3 6 6 7 8 12 13 15 16 15 14 13 11 14 18 21 20 18 19 16 19 24 24 32 23 17 18 18 18 15 13 13
14 10 8 7 7 2 2 3 5 7 7 8 9 9 10 12 14 15 18 16 19 17 16 17 18 19 21 21 21 22 18 20 20 31 29 26 18 17 17 16 14 13 12
9 7 6 3 2 4 6 7 11 12 12 12 14 12 11 12 14 15 17 21 20 21 21 22 21 19 21 20 26 23 23 29 24 33 32 20 16 15 17 15 14 13 14
7 3 1 2 3 6 9 10 13 14 14 15 16 16 15 13 13 16 18 19 22 24 22 20 20 20 23 25 24 25 27 26 25 24 25 16 14 15 15 15 17 15 17
3 1 2 6 8 7 9 11 13 15 16 17 17 17 17 16 14 15 18 19 19 19 19 20 20 21 22 22 19 21 22 25 27 23 23 22 18 17 16 16 18 18 18
1 5 9 10 8 10 13 15 16 16 16 17 18 17 16 16 13 12 14 15 16 17 17 19 20 20 20 22 21 19 17 18 21 24 26 22 20 19 17 17 19 21 20
6 7 9 10 11 14 15 15 17 18 19 17 15 14 13 10 9 9 11 11 12 12 13 14 15 15 17 18 18 18 18 15 20 19 21 21 21 22 21 20 21 23 22
9 9 12 9 10 12 14 14 15 13 12 10 9 12 12 11 10 9 9 9 9 8 9 12 12 10 9 9 13 17 18 19 18 18 23 25 27 25 24 20 22 24 23
11 8 7 7 9 13 14 14 10 10 8 7 6 7 8 8 10 11 10 10 11 11 10 10 11 10 11 12 10 13 17 20 19 20 24 29 29 28 27 23 25 26 26
5 4 7 11 13 16 18 13 6 10 11 11 11 12 13 13 13 12 12 12 12 13 13 14 15 15 17 17 17 13 15 19 22 23 22 26 29 35 31 30 30 30 29
3 7 11 14 16 17 18 14 10 10 12 13 14 14 15 16 16 15 16 16 16 16 16 16 16 17 18 19 20 18 17 22 24 29 30 30 30 33 41 35 33 32 32
12 14 15 17 19 20 18 16 13 13 14 16 18 18 18 19 20 22 21 20 20 20 21 21 21 22 23 22 22 22 24 22 24 26 27 29 31 33 37 38 37 34 37
12 13 13 16 17 18 18 17 17 18 19 21 23 22 21 21 22 24 25 25 25 25 25 25 26 26 27 27 28 27 27 28 27 26 28 27 24 25 33 37 36 39 38
11 11 13 17 20 20 21 21 21 22 24 25 25 25 25 25 26 26 27 28 29 28 27 28 28 28 29 30 31 31 31 30 31 31 28 27 26 26 35 38 42 42 44
11 12 14 18 22 23 24 24 24 25 27 28 28 27 28 29 28 29 29 29 29 30 30 30 30 30 30 31 31 32 33 33 33 33 33 30 28 28 28 38 42 44 45
12 13 16 19 23 24 24 23 22 24 26 27 28 28 28 28 29 30 30 31 30 29 29 29 29 30 30 31 31 32 33 34 36 36 36 35 34 32 34 38 39 44 47
13 14 17 19 24 23 20 20 21 21 23 23 24 25 26 27 28 29 29 30 32 32 32 32 32 31 31 33 33 34 35 35 35 37 40 40 40 39 38 38 42 41 42
13 16 18 16 22 23 24 27 25 24 26 28 28 27 27 26 28 29 29 31 32 32 31 31 31 31 32 34 35 34 34 34 36 37 38 42 44 45 44 42 43 46 47
13 18 20 18 23 27 26 31 29 28 28 29 31 31 31 30 30 30 31 31 32 33 33 33 34 33 33 33 34 34 36 37 35 36 36 36 38 46 47 46 45 47 50
13 19 22 19 28 28 26 30 31 30 29 33 32 32 34 33 32 33 33 34 34 36 37 38 39 39 37 37 38 38 42 38 36 34 35 38 40 39 45 47 46 46 48
16 17 18 27 28 27 29 30 36 40 35 36 31 31 34 36 37 37 37 37 38 39 41 42 43 44 43 41 42 43 47 48 44 41 41 40 42 42 40 39 42 42 45
25 30 32 31 34 33 35 37 36 40 43 45 37 34 33 36 39 40 40 40 41 44 46 44 46 48 48 46 46 46 47 51 50 51 43 41 42 46 44 41 39 40 41
31 30 34 35 34 34 37 36 36 38 45 49 44 42 40 39 41 42 42 42 44 47 49 48 48 52 51 52 52 53 50 53 51 52 58 50 45 44 42 42 43 40 40
29 33 33 32 33 38 37 38 39 40 53 53 47 43 44 44 45 47 48 47 48 52 56 52 53 57 55 58 60 53 56 55 52 52 55 56 51 46 45 44 44 43 41

GFSSE_700_spd_018.txt.gz
Wind_Speed
10 9 11 13 13 12 7 4 6 6 6 6 6 6 8 9 8 9 9 10 9 7 6 4 3 5 9 12 11 10 11 9 11 13 16 17 22 24 24 16 10 10 9
13 14 13 15 12 9 5 4 3 7 6 6 6 6 10 11 11 12 13 13 12 9 9 10 11 8 9 14 13 12 11 11 13 15 16 19 19 20 26 22 20 15 12
14 14 15 13 12 10 8 6 5 7 6 7 7 9 12 13 13 16 16 16 16 13 14 16 15 11 13 15 14 12 11 14 19 17 19 14 20 21 20 21 20 18 15
14 12 10 8 9 7 6 2 1 3 5 6 9 10 11 12 15 16 18 19 16 18 21 21 19 18 20 17 17 15 18 20 26 24 21 23 18 23 19 18 15 17 17
12 11 9 6 5 5 4 2 4 5 5 6 6 7 9 11 12 16 17 19 17 21 23 24 25 24 24 22 19 20 23 26 26 27 26 21 23 21 21 13 13 13 17
8 5 4 6 5 5 6 8 9 10 10 10 9 10 10 11 13 14 16 19 20 23 25 25 24 24 23 22 23 25 27 24 27 26 26 23 18 19 17 13 12 12 17
3 4 6 6 7 9 10 11 13 13 14 12 12 12 12 12 12 15 17 19 22 23 24 22 23 23 21 21 22 23 23 23 26 23 22 25 22 20 18 15 12 11 14
2 2 4 5 7 7 10 13 13 13 12 12 11 10 9 9 10 12 14 16 17 19 20 19 19 21 21 21 22 23 24 24 25 20 24 22 24 20 18 14 13 14 14
3 6 6 6 6 8 9 10 11 12 11 10 5 3 5 3 2 3 6 8 11 12 13 13 12 14 16 17 20 22 22 22 22 21 20 21 27 19 15 14 15 19 18
5 7 9 5 4 6 8 9 9 8 8 6 3 5 8 7 7 6 5 5 5 6 8 9 9 9 10 10 10 14 20 22 23 21 19 19 23 19 20 18 16 18 23
7 8 5 5 2 5 8 10 6 7 5 6 6 8 9 10 11 10 9 8 9 10 10 11 12 11 11 12 13 15 14 20 22 20 19 20 24 26 26 24 20 20 21
3 5 4 3 7 11 13 14 9 8 9 9 8 8 8 10 11 11 12 13 13 14 15 15 15 16 16 17 17 16 15 15 18 21 23 23 25 24 26 25 22 22 23
1 1 2 9 11 13 13 13 12 12 12 12 13 14 14 14 15 15 15 16 17 17 18 19 19 19 20 20 21 21 18 17 18 19 23 25 27 32 32 29 30 27 28
5 6 11 14 16 16 15 15 15 15 17 18 18 20 19 19 19 20 20 21 22 22 23 23 23 24 24 24 25 25 26 24 22 22 23 26 28 29 31 32 35 34 34
7 8 10 12 17 19 20 20 18 18 19 21 22 22 21 21 22 23 24 25 25 26 26 27 28 28 28 29 29 29 29 30 30 28 27 27 29 30 30 31 29 30 34
7 9 11 14 18 19 20 19 19 19 20 22 23 25 26 27 27 28 28 29 29 29 29 29 29 29 30 31 31 31 32 32 33 34 33 32 31 32 33 31 31 29 33
6 8 11 13 17 20 20 20 20 21 22 23 23 24 25 27 28 29 30 31 30 31 31 31 31 31 31 31 32 32 33 32 33 36 37 36 34 33 34 34 33 32 34
7 8 10 13 16 17 18 17 20 19 20 22 24 25 26 28 29 30 31 32 32 31 31 31 31 31 32 32 32 32 32 32 32 34 36 38 39 36 35 37 37 36 35
9 10 12 15 17 17 21 22 21 20 19 24 25 26 27 28 29 30 31 32 34 35 35 35 34 34 33 32 32 32 32 32 33 35 36 35 37 39 40 40 40 40 40
13 13 15 19 20 22 26 27 25 25 25 27 30 29 29 29 30 31 31 31 31 32 32 34 35 36 34 33 32 33 33 33 33 35 34 36 37 38 39 42 42 42 44
12 15 18 23 25 24 31 29 27 24 27 27 31 31 31 31 31 32 32 33 33 33 32 32 33 34 34 34 35 34 33 33 33 35 36 37 38 38 38 40 42 44 45
9 11 16 19 20 25 28 28 27 27 27 27 32 31 35 33 34 35 36 35 37 38 38 38 38 39 39 37 37 36 37 35 33 34 36 35 35 40 39 43 43 43 44
18 18 16 17 24 27 29 30 31 31 35 36 37 38 43 36 37 40 41 41 40 42 43 42 42 43 44 43 42 39 42 40 36 37 37 37 35 37 39 41 45 46 45
20 21 22 25 27 28 29 31 33 36 40 41 44 48 47 44 41 41 43 46 45 45 46 44 43 46 47 49 49 50 46 45 49 44 41 41 37 34 36 36 39 44 48
23 22 24 27 29 31 33 34 35 38 42 47 51 50 48 44 44 45 47 50 51 50 50 48 46 48 52 55 56 53 53 51 55 51 49 40 39 39 43 43 42 44 46
22 22 26 28 30 33 35 36 38 44 49 51 46 47 49 49 48 47 47 49 52 52 52 53 52 53 55 59 61 60 58 59 59 61 56 53 52 47 45 48 48 50 47

GFSSE_700_spd_021.txt.gz
Wind_Speed
13 10 10 11 8 10 11 10 8 3 2 3 6 7 9 7 8 9 9 8 8 7 6 5 4 4 6 5 4 5 8 9 11 11 13 13 14 17 16 14 18 14 12
13 14 15 15 15 10 6 5 5 1 3 7 7 8 9 11 10 12 12 13 11 10 11 10 8 12 10 11 11 10 11 14 14 12 13 13 13 14 17 16 17 17 18
18 17 16 13 12 8 6 4 1 3 5 7 9 10 12 13 14 14 15 16 14 13 15 16 16 16 15 15 17 18 14 14 16 17 16 16 12 13 15 20 16 17 18
14 13 9 7 7 6 5 3 2 2 3 6 8 11 11 12 12 13 15 15 17 17 18 17 19 20 20 22 22 23 15 19 19 19 24 22 20 18 18 20 17 16 17
12 11 9 8 7 5 3 1 1 3 5 7 9 10 10 11 12 13 14 16 18 18 20 20 22 21 25 24 24 22 22 21 19 22 20 24 24 21 17 18 20 16 15
11 8 8 5 2 1 3 4 6 9 10 11 11 11 11 12 13 13 14 16 17 20 20 21 23 23 23 23 24 24 24 25 24 21 22 23 23 18 15 18 16 15 11
8 6 3 1 2 3 5 8 10 12 13 14 14 13 12 12 13 15 17 18 17 19 21 22 22 23 25 25 24 25 26 24 23 23 23 22 22 19 15 14 16 16 13
5 3 3 3 4 7 9 11 12 13 13 13 12 11 10 10 11 13 14 15 15 17 20 21 21 22 23 24 24 24 26 25 24 25 25 23 20 20 19 17 16 17 15
3 3 4 7 8 7 9 10 10 7 7 5 4 3 4 5 5 4 6 8 11 13 14 15 15 15 17 18 18 20 21 23 23 23 23 24 22 23 21 14 15 14 16
4 5 6 4 4 4 5 7 7 6 6 6 3 3 3 3 4 5 4 5 6 7 8 10 11 10 10 11 12 12 13 17 22 23 23 23 22 21 24 18 17 14 15
5 6 3 4 3 3 6 7 7 6 7 7 6 8 9 9 9 9 9 10 10 10 11 13 14 14 14 13 13 15 15 15 15 20 22 22 21 22 24 22 21 20 20
4 3 2 1 1 4 7 8 8 6 8 8 9 11 12 13 14 14 13 14 14 14 15 16 16 18 18 19 19 19 19 17 15 15 19 22 23 23 23 25 25 24 26
4 3 3 4 9 10 10 9 8 8 10 12 13 14 16 18 17 17 18 19 19 19 20 21 21 21 21 22 23 23 23 22 20 20 19 19 21 23 25 27 29 28 24
5 5 3 10 11 12 12 11 11 11 11 14 16 17 18 18 18 20 21 22 24 25 25 26 26 26 27 27 28 28 28 27 27 25 25 26 25 25 26 28 28 29 29
6 4 6 8 9 10 12 12 12 12 12 14 16 19 21 22 22 23 24 25 26 27 29 30 30 31 32 32 32 32 32 32 32 31 30 29 30 30 29 29 28 28 29
4 4 4 6 7 10 11 11 13 14 15 14 15 17 19 20 21 23 24 25 27 28 29 30 31 32 32 32 33 35 35 35 35 35 34 34 33 33 33 32 30 29 28
1 1 4 6 9 12 13 15 17 21 21 16 16 20 21 22 23 23 24 25 26 28 30 31 32 32 32 32 32 33 34 35 36 37 37 37 36 36 36 34 33 32 31
4 5 5 8 11 13 17 18 22 22 23 19 19 20 21 23 25 27 27 27 28 28 29 30 31 32 31 32 32 33 34 35 36 37 37 38 39 38 38 38 36 34 34
8 8 10 12 16 18 22 25 26 24 22 22 23 22 25 25 26 28 30 30 30 29 29 30 31 33 33 34 35 34 34 34 35 36 36 37 38 39 40 39 39 40 38
14 13 14 16 20 21 23 24 26 26 24 25 28 28 29 29 30 33 33 33 34 34 32 32 33 33 34 34 36 36 35 34 35 36 36 36 36 37 39 40 39 40 42
10 10 13 14 17 18 21 24 26 23 22 25 26 29 31 33 33 38 35 33 36 38 37 38 37 37 38 36 38 37 37 36 36 35 36 35 36 37 38 40 41 40 41
8 6 9 12 15 18 22 25 26 26 25 25 26 30 31 37 39 42 40 39 37 38 40 40 42 44 43 40 42 41 45 44 41 36 36 35 36 37 38 37 38 40 42
14 14 13 13 17 22 25 27 29 31 32 33 34 37 39 42 40 41 41 41 42 44 45 44 44 46 49 47 43 44 48 50 45 44 43 41 38 38 37 35 36 38 40
15 14 14 18 21 25 29 33 35 36 37 37 41 46 46 42 42 44 46 44 45 46 47 48 48 47 48 51 50 51 53 52 52 50 48 49 49 45 41 40 37 36 37
18 20 21 23 26 29 33 36 38 39 41 42 45 46 44 46 48 49 46 45 46 47 49 51 51 52 50 50 53 54 56 55 54 54 56 53 52 50 45 43 42 40 41
23 25 26 28 31 33 36 39 44 47 46 46 47 46 46 46 43 44 47 48 49 50 50 52 54 56 56 53 52 55 57 56 61 59 61 63 59 55 54 51 50 49 48

GFSSE_700_spd_024.txt.gz
Wind_Speed
10 12 12 12 12 14 10 10 8 3 1 2 4 6 7 8 9 9 8 9 8 7 7 6 7 6 7 9 9 10 10 12 12 11 12 11 10 12 11 13 15 15 10
16 14 14 14 13 9 6 4 2 0 2 4 5 6 8 10 11 11 11 12 11 11 12 10 10 11 13 12 13 14 15 15 15 14 12 12 11 13 15 12 13 15 16
14 12 11 9 8 4 5 5 2 2 3 4 5 8 10 12 12 12 13 13 13 14 14 15 15 17 18 17 18 19 18 18 17 17 16 15 16 13 13 14 16 15 17
13 12 9 7 5 6 5 4 2 3 5 7 9 11 13 13 14 14 13 13 15 17 16 19 20 20 22 22 22 23 23 21 17 16 18 18 21 17 18 21 20 17 17
14 12 11 8 6 3 3 2 3 5 7 10 12 13 15 16 15 16 15 17 18 18 18 20 21 23 23 23 23 21 20 20 20 20 21 22 20 20 21 17 19 17 18
15 11 8 7 5 3 1 5 8 10 12 14 14 15 15 17 17 17 16 17 18 18 18 19 20 22 23 22 21 20 20 20 20 22 23 22 22 22 20 19 19 17 17
11 10 7 4 2 4 7 10 13 14 14 15 15 15 14 13 14 16 17 17 18 18 19 20 21 22 22 23 23 23 23 23 23 23 23 22 23 22 21 20 16 15 17
10 5 1 3 6 9 11 11 11 11 11 12 11 10 9 10 10 10 12 15 17 18 19 19 20 21 22 23 23 22 22 22 22 23 24 23 22 22 20 19 18 15 16
4 2 3 6 9 9 8 8 7 5 6 7 5 4 6 7 7 7 7 8 10 13 15 16 17 17 18 19 19 19 19 18 19 22 22 23 21 20 20 20 17 16 16
5 5 6 6 5 5 5 6 5 4 4 6 6 5 7 9 10 10 10 10 10 11 12 13 14 14 14 14 14 15 15 16 17 18 20 22 21 20 21 19 20 17 16
8 6 4 4 3 3 4 4 3 4 4 5 6 8 10 12 13 13 14 14 14 14 15 16 17 18 18 18 17 17 17 17 17 17 18 19 21 21 22 21 24 22 19
8 6 4 2 2 2 3 4 5 5 6 8 9 10 12 14 16 18 18 19 20 20 20 20 20 21 22 23 23 22 21 21 20 19 20 18 20 22 24 21 24 27 25
8 6 4 5 4 3 3 4 5 6 7 10 11 13 15 16 17 17 19 20 22 23 24 25 26 26 26 26 27 27 27 26 25 25 25 22 22 21 20 23 23 28 27
7 6 7 5 4 3 5 7 8 8 8 9 10 11 12 13 15 16 18 19 21 24 26 27 28 29 30 30 30 31 31 31 31 30 31 28 26 25 25 24 25 27 29
9 9 7 4 2 6 8 7 7 9 11 12 12 10 12 15 16 18 20 21 22 23 24 26 27 28 30 31 32 33 33 34 34 34 35 33 31 31 31 30 29 29 29
8 7 4 1 2 4 6 6 8 13 15 15 13 14 16 17 17 18 20 23 25 26 27 27 27 28 29 30 31 32 33 35 35 35 36 36 35 34 33 34 34 32 31
8 7 5 4 6 8 10 12 17 20 21 21 19 19 20 21 21 20 19 21 24 26 28 29 30 30 31 32 32 32 32 33 34 35 36 37 37 36 35 34 34 34 33
6 8 8 8 10 12 14 18 21 23 22 22 22 23 24 26 26 26 24 25 27 29 29 29 29 30 30 31 32 33 32 33 34 34 35 36 38 39 38 38 36 36 34
9 11 11 12 14 16 18 22 23 22 23 23 24 25 26 28 29 29 30 30 33 33 33 31 31 32 33 33 33 34 34 35 36 35 35 36 37 37 39 40 39 38 36
15 15 15 15 16 19 21 22 21 22 23 23 24 27 26 28 28 30 32 32 34 34 33 35 37 37 38 36 38 39 39 39 39 39 37 38 38 38 37 39 39 41 39
17 16 16 16 19 20 22 20 21 22 23 24 25 27 27 29 33 36 38 38 37 37 36 35 38 40 40 41 44 45 44 45 45 43 42 41 39 40 43 42 38 39 42
10 12 15 18 21 21 21 23 25 26 28 30 32 33 35 36 37 42 44 41 40 42 44 42 41 43 44 43 46 46 50 45 47 50 49 44 41 40 42 44 44 40 38
15 18 19 19 20 22 24 28 31 34 35 36 36 36 37 40 43 47 44 43 45 46 46 43 43 44 46 45 46 48 48 44 35 35 50 49 45 42 43 44 44 42 40
18 19 19 20 23 26 30 34 37 38 38 42 47 47 46 46 48 46 42 45 46 44 45 46 48 49 51 53 51 49 54 52 55 43 45 52 52 54 49 48 47 45 45
19 20 23 27 29 31 35 38 42 42 44 51 53 51 47 46 44 43 43 42 43 46 48 49 51 54 56 56 55 54 51 59 56 62 61 49 53 56 58 57 53 50 45
24 25 27 30 32 35 38 42 43 51 47 47 50 45 44 42 39 39 45 48 50 51 53 54 56 56 55 55 54 53 54 55 60 59 62 59 54 49 59 63 62 55 54

GFSSE_700_spd_027.txt.gz
Wind_Speed
6 13 15 9 9 10 8 6 5 3 1 1 2 4 4 6 7 9 8 9 8 8 7 8 8 9 8 10 13 12 12 13 14 15 14 14 12 11 12 12 14 14 12
10 14 13 11 11 7 5 6 4 2 3 3 3 4 7 8 9 10 11 11 12 13 12 12 11 11 13 14 14 15 15 16 15 16 16 17 15 13 12 13 13 13 13
12 10 11 10 10 6 6 4 3 3 4 4 4 7 9 11 14 14 14 14 15 16 16 15 16 15 16 18 17 18 19 20 18 16 16 15 18 17 16 16 18 16 15
9 10 11 10 7 4 3 2 2 4 6 8 9 12 13 14 15 15 16 16 16 18 19 19 20 20 19 21 21 21 21 18 15 14 13 18 15 26 21 17 19 19 18
12 10 9 7 6 4 3 3 5 8 11 13 14 15 17 15 15 17 17 17 18 19 19 21 22 22 21 22 22 21 20 18 15 14 17 22 18 25 20 20 18 18 20
12 10 8 6 4 3 4 7 9 12 14 15 15 15 15 16 16 17 18 19 20 20 21 21 21 21 22 23 21 20 20 18 16 16 14 22 21 22 21 20 19 19 18
12 9 7 5 4 5 7 11 13 12 11 11 12 12 11 12 14 15 16 17 19 20 21 21 22 21 22 22 21 21 20 19 18 19 22 22 24 21 22 19 18 18 17
10 8 5 4 5 9 12 12 11 8 7 8 9 8 7 8 10 11 12 13 14 16 18 20 22 22 23 23 21 19 17 17 16 17 18 21 23 20 23 21 18 17 16
8 5 4 6 10 11 8 7 7 5 6 6 7 7 7 9 10 12 13 13 13 13 14 16 18 18 18 19 19 19 19 17 15 13 16 20 20 18 19 18 20 20 19
6 6 8 9 7 7 5 6 7 7 7 7 7 7 9 11 12 14 14 15 15 16 16 17 17 18 18 19 18 18 16 17 17 18 17 20 18 19 19 18 18 19 21
8 9 8 6 6 6 8 6 7 6 7 7 8 8 10 13 15 17 16 18 18 18 19 19 20 21 22 22 22 22 22 22 21 21 25 20 20 20 20 19 20 18 24
13 9 8 7 7 6 5 5 6 7 9 11 12 13 14 15 17 20 19 19 20 21 22 24 24 25 25 26 26 23 24 24 24 25 30 23 22 22 21 20 22 21 16
8 7 9 7 6 4 2 3 5 6 7 10 12 13 16 16 18 18 19 19 21 21 23 25 26 26 28 28 30 30 29 29 28 29 34 26 26 25 24 22 20 21 21
9 8 8 7 7 3 2 2 3 6 10 12 15 15 15 15 18 19 20 20 21 23 25 25 27 29 28 30 31 32 32 31 31 32 37 32 31 30 28 27 25 23 21
10 9 8 8 7 4 2 2 3 6 10 13 15 16 17 19 20 21 22 22 23 23 24 27 28 30 31 30 30 30 31 32 32 32 34 34 32 32 32 31 30 28 27
10 10 9 9 7 6 7 7 9 13 17 20 19 19 19 20 22 23 23 25 25 24 24 25 27 28 29 31 33 33 30 30 31 32 32 37 31 32 32 32 32 33 32
10 10 11 11 10 11 12 14 15 19 21 22 21 23 24 25 26 26 26 25 25 25 27 28 27 28 30 29 30 31 31 31 31 33 32 34 35 33 34 34 34 33 33
9 10 12 13 15 16 17 19 20 23 25 26 25 27 27 26 26 26 26 26 29 30 31 33 32 32 32 33 34 34 35 35 35 35 34 33 36 37 34 35 36 35 34
11 12 14 17 19 21 24 21 24 26 26 26 25 24 28 28 29 28 29 28 32 33 32 31 31 35 39 38 37 37 40 40 40 40 40 38 37 37 39 40 35 37 37
21 20 20 21 25 25 25 25 26 26 25 25 25 27 29 30 32 33 33 34 36 37 35 35 36 37 40 41 41 44 42 44 47 46 46 45 44 43 39 41 41 38 38
22 23 25 26 27 24 26 27 27 26 27 29 32 36 36 37 37 39 41 41 41 44 46 43 42 44 43 42 44 45 46 46 49 49 48 49 48 48 48 43 46 41 44
18 16 15 19 21 23 28 29 29 30 32 35 37 41 42 44 44 45 45 45 48 50 49 44 44 45 42 41 43 44 48 46 45 47 48 50 46 47 47 50 46 43 42
14 15 19 22 24 25 27 31 32 33 37 39 42 42 42 46 48 51 53 49 48 45 43 42 41 42 46 44 45 45 46 49 41 34 41 45 47 49 47 47 50 47 46
17 22 25 27 29 29 30 34 35 37 41 44 45 48 51 47 48 47 45 46 44 41 42 44 47 50 52 53 53 52 45 46 49 50 45 41 41 45 45 49 46 53 52
22 25 27 30 32 33 34 36 39 42 44 46 49 54 55 54 48 45 43 41 42 43 48 52 55 57 57 57 57 58 58 56 54 55 57 49 52 45 45 42 45 50 54
26 24 27 28 31 34 35 37 40 45 48 51 55 53 48 44 40 40 43 46 49 52 55 57 58 58 58 58 57 56 54 53 52 54 53 55 56 47 59 55 44 45 50

GFSSE_700_spd_030.txt.gz
Wind_Speed
9 13 12 11 8 7 7 7 5 3 3 3 2 4 4 5 7 8 9 10 9 10 9 10 9 9 9 9 11 10 10 10 11 11 13 14 11 9 9 14 13 10 10
12 15 13 6 8 8 4 3 1 3 4 4 5 6 8 9 9 11 12 14 14 13 13 14 12 12 12 14 16 16 16 15 15 15 14 14 12 9 9 12 14 14 11
10 11 8 8 9 4 2 1 3 3 4 4 6 8 9 10 12 14 14 15 16 17 18 17 16 16 16 18 20 18 19 19 18 17 14 16 13 13 12 16 17 17 15
7 8 9 9 7 3 2 3 2 3 5 7 10 11 11 13 14 15 15 15 16 16 17 18 18 18 20 19 20 20 20 18 16 14 13 13 20 16 20 18 14 15 17
2 7 8 8 6 3 3 3 5 7 10 13 14 14 14 14 15 16 16 17 17 17 18 18 18 20 20 20 21 20 20 18 15 13 16 16 21 20 20 18 16 16 16
7 8 8 7 4 4 4 6 10 13 13 13 12 12 12 11 11 12 14 16 17 18 19 20 21 20 20 21 22 20 20 19 18 16 20 18 21 23 19 18 18 15 16
10 9 7 4 4 6 9 12 14 13 10 7 8 8 7 7 8 9 11 13 15 15 16 18 18 19 19 20 20 20 19 18 17 17 19 22 23 23 19 19 17 17 17
8 6 3 4 6 10 12 12 11 7 4 5 6 7 6 6 8 9 11 13 15 16 16 17 17 18 18 18 17 16 15 15 14 15 20 19 18 16 16 18 18 18 17
5 5 5 7 10 12 11 8 6 7 7 7 9 9 8 10 11 12 14 14 15 16 17 18 19 19 19 18 17 16 16 15 14 15 18 16 19 16 15 16 16 17 18
6 7 9 11 11 9 7 6 8 8 8 9 9 9 10 12 14 14 15 17 17 17 17 18 19 20 21 21 22 21 20 20 18 17 22 21 19 19 18 16 16 18 19
9 9 10 15 9 8 4 7 8 8 7 9 10 12 15 15 16 14 16 17 18 19 20 20 21 22 23 23 23 23 23 24 22 22 27 24 22 22 20 19 18 17 19
12 10 12 9 7 7 9 6 4 6 6 7 8 12 16 16 17 20 21 19 21 20 21 22 21 23 25 25 27 25 23 25 24 25 30 28 25 25 23 21 21 19 19
7 1 10 5 6 6 6 6 8 8 9 9 10 12 17 18 20 21 23 25 25 25 26 25 24 23 23 24 24 28 29 28 27 27 31 33 28 27 26 25 24 22 21
9 10 14 4 5 6 6 4 1 3 7 12 17 18 19 20 21 23 23 24 24 26 26 25 26 25 26 24 23 23 24 26 26 27 31 32 30 28 29 28 26 25 24
11 12 14 6 7 7 6 5 5 8 11 15 19 22 20 20 21 24 25 26 27 28 29 29 28 28 29 30 32 30 25 25 27 27 31 30 31 28 29 29 28 27 26
14 12 11 13 7 8 9 9 11 13 16 19 22 22 21 23 25 27 28 30 30 31 32 31 30 29 28 28 27 30 32 28 26 27 29 30 29 29 30 30 30 28 27
11 11 13 17 13 12 14 14 15 20 21 23 25 26 26 28 28 28 29 30 30 30 30 30 31 31 29 27 29 32 34 32 30 28 30 32 32 30 29 30 31 31 30
10 9 13 16 24 16 18 22 23 25 25 26 29 30 30 31 29 28 29 30 31 33 33 33 32 30 31 32 36 40 41 41 40 39 36 32 33 35 34 31 31 30 31
11 14 12 16 22 25 23 24 27 27 28 29 31 27 33 35 32 34 35 36 37 38 37 35 35 36 38 39 41 43 43 44 45 45 47 45 40 38 42 37 36 32 32
23 24 24 23 23 27 28 29 29 31 32 32 32 32 36 38 40 38 38 38 39 44 46 44 45 46 46 46 47 45 44 45 44 44 46 48 49 48 46 46 41 39 35
28 25 22 26 27 28 26 28 29 32 33 31 33 37 39 42 42 45 48 51 46 45 46 46 49 49 48 46 45 47 45 43 43 43 43 44 45 46 46 47 48 43 39
21 22 21 19 17 20 25 28 29 31 32 33 36 41 44 47 48 47 51 52 50 48 45 43 43 44 44 41 41 42 46 46 44 43 42 44 43 42 43 46 48 48 49
13 15 17 21 24 24 28 32 31 32 35 37 38 41 44 46 48 53 54 52 50 47 45 41 40 41 45 44 44 47 49 53 53 50 47 43 40 39 42 48 43 55 53
15 17 22 27 29 29 29 33 35 35 37 38 40 43 47 48 53 53 51 50 49 47 46 44 46 48 50 52 54 55 55 55 57 60 56 51 43 44 41 46 42 44 44
19 22 25 28 31 34 31 30 33 36 37 40 44 48 50 50 47 47 48 45 45 47 49 51 54 56 57 59 58 58 58 54 48 48 59 59 56 49 53 55 49 49 48
25 28 28 30 29 31 35 32 34 35 38 41 43 44 45 45 44 42 42 45 48 51 53 55 58 59 59 57 52 49 51 54 54 49 48 53 56 56 52 58 58 50 49

GFSSE_700_spd_033.txt.gz
Wind_Speed
14 15 12 9 7 7 6 7 6 4 3 2 2 3 3 3 4 5 7 8 10 11 11 10 9 8 8 8 9 10 10 10 12 12 9 9 6 7 9 6 3 6 7
12 13 11 9 9 7 5 4 2 1 2 1 2 4 6 8 10 10 11 12 12 13 15 15 15 14 13 13 13 16 16 14 15 15 13 10 7 6 6 11 9 8 10
12 12 9 8 9 6 3 3 2 2 2 3 6 9 11 12 13 14 15 15 15 15 14 14 15 16 15 16 17 17 17 17 17 17 17 12 7 5 5 4 10 10 9
11 12 9 8 9 4 3 3 2 3 6 8 12 14 14 14 14 15 14 15 14 14 13 13 15 16 17 18 18 17 18 17 15 15 19 15 12 13 12 13 12 12 11
10 10 9 9 7 4 2 3 4 7 11 14 12 10 10 10 11 11 11 12 13 14 14 14 15 16 16 17 18 18 19 18 16 15 17 17 15 15 14 19 16 11 11
9 9 9 8 6 3 4 5 9 13 13 10 7 8 8 7 6 7 8 9 11 12 12 12 14 15 16 17 17 17 17 17 16 17 20 16 19 19 23 18 14 12 11
7 8 8 6 3 4 7 10 12 11 7 4 6 8 8 7 8 8 9 11 13 14 15 14 12 11 12 13 14 16 15 14 13 14 17 15 17 10 12 14 15 14 13
8 7 6 3 4 8 10 10 8 5 3 6 7 9 9 8 10 12 12 14 15 15 15 16 16 16 16 15 14 14 14 14 14 17 16 17 18 12 11 11 12 14 15
8 6 4 5 8 11 9 7 5 5 7 7 9 9 9 10 11 13 14 15 16 17 17 17 17 17 16 17 18 18 17 17 17 20 18 17 18 17 17 15 14 14 14
6 7 8 8 11 9 7 5 6 6 6 7 8 8 9 11 13 14 16 17 18 19 19 19 19 20 20 19 19 19 19 19 18 21 21 21 19 21 20 19 19 17 16
10 10 11 7 6 5 6 7 6 5 5 5 8 9 11 13 12 14 16 17 18 19 20 20 20 22 22 22 23 22 22 22 20 22 23 24 20 20 20 19 19 19 19
11 12 13 9 7 6 6 6 6 5 4 5 7 11 14 18 20 21 22 23 24 24 23 22 22 23 23 25 26 25 24 23 22 24 26 26 24 22 22 22 21 20 19
8 9 7 5 8 7 7 7 5 4 5 6 9 15 20 22 22 22 23 24 25 26 26 26 28 28 27 24 23 25 26 25 25 25 26 27 28 24 23 23 23 23 22
16 13 9 7 7 6 7 8 9 9 11 13 16 18 18 21 22 24 25 27 28 28 29 30 30 30 30 29 26 22 19 20 22 25 26 26 26 25 23 24 23 22 23
15 18 15 8 5 7 6 6 7 11 13 16 17 19 21 22 22 24 26 27 27 28 29 30 30 29 29 30 29 28 25 20 20 23 26 26 25 25 23 23 24 23 22
14 16 21 13 5 9 7 8 8 13 15 20 22 23 24 26 27 27 28 28 27 27 28 29 30 31 30 28 25 24 24 26 26 25 28 30 26 25 25 24 24 24 24
18 20 19 19 16 13 12 13 14 18 22 25 27 28 28 29 29 26 28 31 31 31 31 31 32 34 35 34 32 31 33 34 35 38 38 34 33 30 30 27 26 26 25
14 16 17 18 22 13 18 23 20 22 22 25 30 32 31 32 28 28 30 31 34 36 37 42 40 40 40 39 39 38 40 41 43 42 41 43 45 38 33 32 31 29 29
15 16 17 17 23 25 18 20 27 26 26 29 31 36 37 36 32 32 34 37 40 41 41 43 42 43 43 42 43 45 45 44 44 44 45 44 45 48 48 44 37 35 31
18 21 21 21 26 28 29 30 28 26 29 31 33 34 36 36 36 37 38 43 42 45 45 47 50 46 45 43 44 44 44 43 42 42 43 42 41 43 46 46 45 41 36
27 21 22 29 29 29 30 25 24 27 28 28 30 29 32 37 41 40 46 47 49 49 51 49 44 42 42 41 45 45 45 43 42 42 41 40 39 38 39 42 43 43 40
27 26 23 23 22 21 24 27 28 28 28 28 30 35 39 42 44 45 47 49 50 50 46 43 41 44 42 40 43 46 50 47 45 44 44 44 43 42 40 38 41 46 44
19 17 17 18 19 24 28 30 31 31 32 34 34 36 38 42 44 46 49 48 46 45 45 44 43 43 45 46 48 50 53 55 57 51 50 50 49 48 45 43 41 42 49
17 18 20 22 24 25 26 29 32 32 32 32 35 37 40 42 44 45 43 44 45 46 44 46 48 50 51 52 53 51 50 51 56 64 60 57 55 53 50 47 47 44 45
17 18 20 24 27 30 31 32 31 31 31 33 36 43 44 44 44 45 44 42 42 44 46 49 53 55 56 56 54 53 53 49 43 48 58 57 54 50 51 52 51 53 54
21 23 25 24 25 28 31 34 38 40 42 43 42 43 43 43 44 42 41 42 44 48 50 52 53 54 52 50 47 42 41 41 42 42 42 42 45 47 43 46 51 53 55

GFSSE_700_spd_036.txt.gz
Wind_Speed
13 13 10 10 9 7 7 8 6 3 2 1 1 4 4 5 5 6 7 8 9 11 11 9 10 11 10 10 9 11 13 13 14 12 11 12 7 6 8 7 4 2 2
11 13 11 10 8 8 7 5 2 1 2 2 3 5 9 12 12 13 13 14 15 14 14 15 14 14 14 13 14 14 15 16 17 16 13 11 7 8 5 9 9 9 9
12 14 12 9 10 6 3 2 2 3 4 5 8 12 14 15 15 15 14 14 13 13 12 13 13 13 14 15 15 15 15 14 16 17 14 8 8 8 6 8 8 11 11
15 14 10 9 9 4 2 3 2 3 6 10 14 14 12 11 11 12 12 13 12 13 13 13 13 13 13 14 15 16 15 14 17 18 16 13 9 10 9 11 13 12 12
16 15 9 9 9 4 2 2 4 8 12 14 11 7 6 6 6 5 5 5 6 7 8 8 9 11 13 14 15 15 15 16 17 19 17 16 14 15 16 16 10 14 13
13 11 10 10 7 4 2 6 10 13 13 8 4 6 8 8 8 7 7 8 10 11 11 11 10 9 9 10 10 11 13 15 17 18 17 17 17 13 13 12 17 12 12
13 12 11 9 6 3 6 11 12 9 5 2 5 8 9 10 9 10 11 12 13 14 14 13 13 12 11 10 10 9 9 10 11 12 12 11 12 11 12 13 10 10 12
12 11 9 6 3 6 10 10 6 3 3 5 7 9 10 10 11 12 13 14 14 15 15 15 15 16 16 16 15 14 13 15 14 13 12 11 11 8 9 11 11 10 11
12 9 7 4 5 9 9 5 3 4 4 6 7 8 9 10 12 13 15 16 17 17 18 18 17 17 17 17 17 18 19 20 20 17 16 14 14 13 12 12 14 12 12
10 7 5 6 8 9 5 3 5 5 5 6 6 6 8 12 14 15 16 17 18 19 20 20 19 19 18 18 18 17 17 18 20 20 21 21 18 18 16 14 13 13 14
7 6 6 8 9 7 5 5 5 5 5 5 5 6 8 10 14 18 19 20 20 20 21 20 20 20 21 21 20 19 18 17 17 18 18 19 20 20 20 19 18 16 16
8 9 10 10 6 4 5 5 4 4 5 5 6 7 10 14 18 20 21 22 23 23 23 23 22 22 23 21 20 20 19 18 18 19 19 18 19 17 17 20 20 20 20
5 2 4 5 4 3 4 2 2 4 4 5 7 11 14 17 19 20 22 24 25 24 24 24 24 23 22 22 20 20 19 21 21 19 19 20 20 20 19 19 20 21 22
2 8 9 7 7 5 5 3 4 4 6 10 13 16 19 21 22 22 22 23 23 24 24 24 23 24 24 24 25 25 24 22 20 19 20 21 22 21 20 19 21 22 21
10 14 16 13 11 8 7 8 9 11 13 14 16 20 21 22 23 23 23 24 24 24 25 25 25 26 28 28 26 26 27 26 22 22 22 22 24 25 25 24 21 21 22
10 16 19 15 10 10 8 12 18 19 19 20 20 22 22 23 25 26 26 25 25 27 28 29 32 33 33 32 30 32 31 30 31 31 31 31 30 28 28 28 27 25 22
11 14 15 14 16 11 9 15 17 17 22 24 26 25 25 25 27 26 25 25 29 30 31 34 36 38 39 37 38 38 37 36 37 36 36 38 40 40 36 31 30 29 27
11 12 11 16 18 13 12 13 12 18 26 28 27 28 29 28 27 27 28 31 35 35 39 39 40 42 43 43 45 40 38 39 40 41 43 44 43 42 41 40 38 33 30
16 15 16 18 18 17 16 19 25 26 25 27 30 32 31 32 32 31 34 36 38 38 42 42 43 46 47 47 46 42 38 38 39 41 41 40 41 43 44 42 43 41 38
20 17 20 19 20 20 22 23 25 23 26 28 30 30 33 34 37 39 39 40 39 42 43 45 47 47 47 47 45 44 42 40 39 39 40 39 39 41 44 46 45 43 39
22 19 18 20 24 27 25 23 21 24 28 29 32 34 35 35 38 39 41 44 45 47 48 49 48 45 42 44 47 46 44 41 41 41 40 41 44 43 42 43 43 45 46
24 24 26 30 28 21 18 21 23 25 26 27 30 32 36 39 40 42 44 46 47 48 47 45 44 45 44 44 46 48 51 48 46 46 46 46 48 48 48 47 45 45 46
29 28 23 21 20 21 23 26 27 27 29 30 33 36 37 38 40 42 45 46 46 45 45 44 43 43 44 46 48 50 53 56 58 54 51 52 52 53 52 52 51 49 49
19 18 19 21 24 28 30 28 25 24 24 27 31 35 40 42 43 43 43 43 44 45 46 45 46 48 50 51 51 51 51 53 56 61 58 56 53 52 52 53 54 53 51
18 22 25 26 29 29 28 28 29 33 39 41 40 39 40 42 42 42 44 45 45 45 46 48 49 50 51 52 52 51 49 46 45 45 54 52 47 40 39 44 49 52 53
16 20 21 25 25 26 28 29 30 36 42 44 45 44 42 40 40 41 41 43 45 46 46 48 50 50 51 50 48 45 43 41 38 37 37 38 37 35 33 31 33 36 42

GFSSE_700_spd_042.txt.gz
Wind_Speed
22 20 17 16 14 11 9 8 6 2 2 2 4 7 9 11 12 12 11 11 12 13 14 14 15 15 15 15 15 14 13 14 13 12 11 10 8 8 9 7 7 8 7
19 19 17 15 12 10 10 9 4 1 2 3 5 8 11 14 15 14 14 13 13 13 13 13 14 14 14 14 13 13 13 12 11 10 10 10 9 9 9 7 8 9 7
19 17 16 14 12 10 9 6 2 0 2 4 7 11 13 11 10 10 9 9 10 10 11 11 11 12 13 13 13 13 13 13 12 10 9 9 8 9 10 10 11 10 10
20 17 15 13 12 9 6 4 2 1 4 8 11 10 7 7 7 9 10 9 10 10 11 11 11 10 11 11 13 13 13 12 12 10 10 9 8 9 11 12 14 13 13
20 17 13 12 11 8 4 3 2 4 9 12 8 4 6 8 10 10 10 10 10 10 11 12 11 11 11 11 11 11 11 11 11 10 8 8 6 7 10 12 14 15 16
19 17 13 12 10 6 4 2 4 10 9 4 3 5 8 9 10 11 12 12 12 12 13 13 13 12 12 11 11 11 10 10 10 10 8 7 6 5 6 7 8 11 13
18 15 12 11 9 5 3 3 7 7 1 3 5 7 8 10 11 12 12 13 13 13 13 13 13 13 13 14 13 13 13 11 11 10 10 9 7 6 8 9 11 11 13
16 12 11 10 8 4 3 6 5 1 3 4 6 7 9 10 10 11 12 13 14 14 14 15 14 13 13 13 13 14 14 14 12 11 11 11 10 10 11 11 11 13 14
15 12 11 9 6 3 6 6 1 2 4 5 6 7 7 7 9 11 12 13 14 14 15 16 16 16 16 16 16 14 14 13 13 13 14 13 13 13 14 14 13 14 15
16 14 11 8 5 4 6 2 2 3 5 5 5 5 5 6 9 11 12 13 15 17 19 19 18 17 17 16 16 16 15 14 13 12 13 15 16 16 17 18 17 16 16
15 12 9 6 5 7 2 1 3 4 5 5 4 3 4 7 10 13 14 16 16 18 21 22 21 20 19 17 16 16 15 14 14 13 14 14 15 16 17 19 20 20 20
9 6 6 8 8 3 2 3 3 4 5 3 2 4 6 11 14 15 15 16 18 20 23 23 23 22 21 20 20 20 20 19 18 16 16 16 17 17 18 18 20 21 22
5 4 4 3 1 2 3 3 4 4 2 2 5 8 11 15 17 17 16 17 19 21 23 25 25 24 23 24 24 24 24 23 21 20 20 20 21 20 19 19 19 20 21
4 6 6 7 6 5 6 6 4 2 1 4 7 11 15 18 19 18 19 20 22 24 24 25 24 25 27 28 30 31 30 29 27 26 26 27 26 27 27 26 24 22 22
7 11 12 10 7 5 4 3 2 2 4 7 10 13 18 19 19 19 21 24 27 26 26 26 26 29 30 31 33 34 34 34 34 34 35 34 34 33 33 33 31 29 27
7 7 6 5 4 1 3 6 4 4 6 6 15 19 22 22 21 23 27 29 28 28 29 29 30 32 34 34 34 36 36 36 37 39 40 40 39 38 37 37 37 36 35
3 4 4 5 7 8 7 8 6 6 9 20 19 23 21 21 25 28 30 32 31 32 33 33 35 36 39 39 39 40 41 40 40 43 43 42 41 40 39 38 38 39 39
6 10 12 15 16 15 13 10 8 15 12 20 22 22 23 26 28 29 30 32 35 34 33 35 35 40 41 44 48 45 45 44 44 43 43 42 42 41 41 41 41 41 41
11 14 19 21 23 24 25 9 6 13 17 20 21 22 24 26 28 28 33 35 37 39 34 39 43 48 49 49 51 50 49 49 48 45 43 44 44 44 43 42 42 42 42
17 21 23 26 28 26 22 24 18 18 19 18 21 22 24 23 28 30 33 35 38 45 47 50 49 51 54 56 57 57 54 49 47 45 44 44 45 45 45 45 45 44 44
22 24 23 23 23 21 24 18 15 13 15 18 22 25 27 27 29 31 35 39 43 47 50 53 55 57 58 58 59 57 55 53 49 47 47 46 44 44 45 47 49 49 48
24 21 15 18 20 15 15 17 19 21 22 23 23 23 25 28 29 31 35 39 43 47 50 52 53 53 53 53 54 54 55 52 48 45 47 49 49 47 49 51 51 51 52
14 15 10 10 12 14 16 16 16 17 20 22 25 28 32 35 37 40 42 45 44 44 46 47 48 50 51 50 50 51 53 54 54 49 47 49 50 52 53 53 53 53 53
5 6 8 12 13 11 13 17 21 25 28 32 38 43 45 45 44 43 46 46 45 44 45 46 47 48 50 51 50 49 50 52 53 59 54 46 43 42 43 47 48 50 52
5 4 11 13 13 18 22 24 31 34 37 41 46 47 46 47 47 49 48 46 45 46 49 51 53 54 55 55 56 55 54 51 48 50 54 52 46 39 33 33 36 39 41
13 22 26 27 23 25 27 31 34 37 40 46 47 46 48 48 49 48 47 47 48 50 50 50 50 52 54 54 51 45 41 41 42 44 45 44 44 42 37 32 32 33 35

GFSSE_700_spd_045.txt.gz
Wind_Speed
21 20 19 16 15 13 11 10 8 4 2 3 4 6 9 11 12 11 9 8 9 11 11 11 11 11 11 11 11 11 10 10 11 10 11 10 10 8 9 9 7 7 6
22 22 19 17 14 12 11 10 7 3 2 2 4 8 12 13 11 9 8 7 7 7 8 9 10 10 10 10 10 9 9 9 8 9 8 9 10 10 9 9 9 7 6
24 22 19 16 14 13 11 8 4 2 0 3 7 12 10 7 8 9 10 9 8 8 9 10 11 10 10 9 9 9 9 9 8 7 7 9 10 11 11 10 11 10 8
23 21 19 16 14 12 9 6 3 1 1 5 10 8 4 6 8 9 9 9 9 8 9 9 9 9 9 8 8 8 7 6 6 7 7 9 10 13 14 13 14 14 14
23 21 17 16 14 11 8 6 3 1 5 9 5 2 5 7 7 9 9 9 9 9 9 9 9 9 9 8 8 8 8 7 5 4 4 6 8 11 14 16 17 17 17
22 19 17 15 13 9 8 5 1 5 7 1 3 4 6 8 9 10 10 11 11 11 11 11 11 11 11 11 10 10 8 8 8 6 5 5 6 8 10 13 14 15 14
21 17 15 14 11 9 6 2 4 5 3 5 5 6 8 9 10 10 10 10 10 11 12 13 13 13 12 12 12 12 12 9 8 8 8 8 7 8 10 12 13 15 15
20 15 14 13 10 7 3 3 3 3 4 6 6 8 9 9 9 8 8 9 10 11 14 16 17 17 17 16 15 14 14 14 12 10 10 10 10 11 11 12 14 15 17
20 14 13 11 9 5 2 4 3 5 6 7 8 8 7 7 6 7 8 9 10 12 14 17 19 19 18 18 17 15 13 13 13 12 12 12 13 13 14 15 16 17 19
18 15 13 11 7 2 3 3 5 7 8 8 8 7 5 4 5 8 9 10 12 14 16 17 19 20 21 20 18 17 16 15 13 13 12 13 14 15 16 17 18 20 20
16 15 13 9 4 3 3 5 6 7 8 8 6 4 2 3 6 9 10 11 13 15 17 19 20 21 20 19 18 19 19 19 17 15 13 13 14 16 17 18 20 21 22
14 11 7 4 5 4 4 7 8 9 9 6 3 0 3 7 10 11 12 13 14 17 19 20 20 20 20 21 22 22 22 21 21 20 19 18 18 17 17 18 20 21 23
9 4 4 5 6 8 10 10 10 10 8 5 3 3 6 9 12 14 13 14 17 19 20 21 21 21 22 23 24 25 26 26 25 23 22 22 24 25 25 24 22 21 22
7 7 8 10 11 12 12 13 13 11 8 5 5 6 8 13 15 16 17 18 20 22 23 23 23 23 24 26 27 29 29 30 30 29 27 27 26 28 30 31 31 29 27
12 11 10 9 8 10 13 13 12 9 7 6 7 9 12 15 18 18 20 22 24 25 25 25 25 26 28 30 31 32 33 33 34 35 33 32 32 32 32 33 33 34 34
9 7 5 5 7 10 11 11 9 6 6 6 11 15 15 18 18 20 23 26 27 27 26 29 30 30 29 32 34 36 35 37 39 39 38 37 37 38 38 37 36 36 36
9 8 8 9 11 11 11 11 12 9 7 8 23 23 18 21 20 23 26 29 31 33 31 33 28 32 39 39 39 42 45 44 43 43 43 43 43 44 43 42 40 39 39
13 14 15 18 19 19 17 18 19 11 13 17 17 17 20 21 23 26 27 29 30 36 32 35 36 41 37 46 47 47 48 47 48 49 50 49 47 45 44 43 43 43 43
15 17 20 23 23 24 25 24 27 20 8 12 14 17 21 26 28 30 31 32 34 34 37 40 42 44 46 48 49 50 51 51 50 49 49 49 48 48 47 46 46 46 46
17 20 22 26 31 30 30 14 15 8 7 11 15 19 23 26 27 28 30 33 36 37 40 43 45 48 50 52 53 53 51 50 47 47 47 48 48 47 47 48 48 47 48
23 25 26 28 23 19 8 5 5 7 8 11 14 18 21 24 27 31 35 37 39 40 41 42 44 46 47 50 52 52 51 52 50 48 47 46 46 46 47 48 48 48 49
14 16 18 20 9 10 7 10 11 12 13 15 17 20 23 28 33 36 34 35 37 40 42 43 44 46 48 50 52 54 54 54 53 52 51 51 50 49 51 52 52 53 53
9 12 5 4 6 7 8 10 11 14 17 20 25 29 34 37 38 39 40 40 42 42 42 42 43 45 47 48 49 50 53 55 56 51 49 49 49 47 47 48 50 52 53
3 4 3 9 11 12 12 12 16 19 24 29 34 38 40 40 42 43 44 44 44 44 45 45 46 48 48 49 50 50 50 52 50 51 45 37 33 35 37 40 44 46 47
3 3 13 15 17 20 19 19 23 27 31 36 41 42 42 43 44 43 44 45 46 47 49 48 47 47 48 47 47 44 39 37 33 34 37 37 40 37 35 35 37 40 41
9 14 24 28 23 21 23 23 27 32 34 40 42 42 43 43 43 44 45 46 49 49 48 46 46 46 44 40 36 35 33 31 32 36 39 38 35 39 41 37 35 36 36

GFSSE_700_spd_051.txt.gz
Wind_Speed
21 22 19 17 17 15 15 14 12 9 6 4 3 4 7 7 5 4 2 2 2 3 4 5 6 6 5 5 5 5 5 5 7 8 10 11 12 11 10 10 11 8 8
23 24 20 18 18 17 16 13 11 7 5 3 2 5 6 4 4 6 7 7 6 5 5 6 6 7 7 7 8 8 8 7 7 8 9 12 13 13 10 10 12 10 9
25 23 21 19 18 17 15 12 9 6 4 2 2 5 2 3 5 6 6 6 6 7 7 8 8 9 9 10 10 9 9 9 9 8 9 11 21 13 12 12 12 12 12
24 23 22 19 18 17 14 11 7 4 2 1 4 1 3 4 5 5 6 7 7 8 8 8 8 9 10 10 10 10 10 9 9 8 6 5 19 14 13 14 13 15 14
25 23 18 19 19 17 13 9 6 4 2 3 1 3 5 5 5 5 6 6 7 7 7 8 9 9 10 11 11 12 11 10 9 9 9 8 17 13 11 14 13 15 16
23 20 23 20 19 15 12 8 5 4 4 2 4 5 5 5 6 4 4 5 6 7 7 9 10 11 11 11 11 11 11 10 9 7 7 16 13 15 14 16 19 17 15
22 23 22 21 18 14 11 7 4 4 4 6 5 6 6 6 5 4 4 5 6 6 7 9 10 12 13 13 12 11 10 10 9 9 7 19 14 15 17 19 19 19 19
21 22 20 19 16 13 11 7 5 5 6 6 7 7 7 6 4 2 3 5 6 7 8 10 12 14 16 17 15 13 11 10 10 10 9 18 14 15 17 19 20 20 20
18 18 18 17 14 13 9 7 6 7 8 8 9 9 9 7 3 1 4 6 7 8 9 11 13 15 17 19 19 17 15 13 11 12 9 15 16 17 17 18 20 22 22
24 20 19 16 14 11 8 7 7 9 10 10 12 11 9 6 3 3 6 7 8 9 11 13 14 16 18 20 21 21 20 18 15 13 14 15 17 18 19 19 19 21 23
21 21 18 16 13 9 6 7 8 9 11 13 13 11 9 7 5 8 9 10 11 12 14 15 17 17 19 21 22 22 23 22 20 19 19 19 19 19 20 21 21 21 22
18 18 17 13 10 8 7 8 10 12 13 13 13 11 10 8 8 11 10 11 13 14 16 18 19 20 20 20 21 29 27 27 25 25 22 22 20 20 22 23 23 24 24
17 16 14 12 9 9 10 11 13 14 15 15 13 12 10 9 11 11 13 14 15 16 19 21 23 22 25 25 27 30 29 29 28 29 30 30 23 24 24 24 25 26 26
16 13 11 12 12 13 14 15 15 16 17 15 13 11 9 10 13 13 13 13 16 21 23 23 22 27 29 30 32 31 31 28 29 32 33 34 31 29 28 27 28 28 28
13 11 11 12 12 13 14 15 18 17 18 17 13 11 10 11 16 14 15 20 27 20 27 27 29 32 31 34 32 33 31 35 38 37 37 39 39 35 32 32 33 33 33
10 9 9 10 11 13 14 15 18 20 20 18 15 12 12 19 20 22 26 22 23 25 29 31 34 31 34 34 35 36 38 38 40 41 42 43 42 42 41 37 38 38 38
11 10 9 9 11 14 17 20 21 23 23 19 13 8 12 24 23 22 28 26 25 30 33 33 35 35 38 39 40 40 42 43 43 45 44 44 43 42 43 41 37 38 40
15 14 14 14 16 16 18 21 24 27 23 16 24 24 24 33 31 25 26 27 30 32 31 33 36 39 40 41 42 43 44 43 43 43 42 44 46 42 44 47 44 40 42
20 19 17 18 18 22 21 25 23 28 30 29 19 31 22 24 22 24 27 27 29 33 35 37 37 39 42 41 42 44 43 44 44 44 43 45 48 49 44 43 50 42 46
22 22 20 21 21 23 26 29 22 13 23 23 10 16 18 18 20 22 27 29 32 34 35 39 38 38 39 41 42 43 43 44 44 48 45 44 43 47 50 48 49 47 51
22 25 22 23 25 24 23 14 11 3 4 6 10 12 15 19 19 22 29 32 33 35 38 39 38 39 40 41 45 46 46 44 41 41 41 41 44 47 51 52 50 53 50
24 27 27 26 20 15 11 9 6 5 7 9 11 14 15 19 22 27 28 31 33 33 37 37 37 39 40 42 43 46 48 44 41 29 39 38 39 46 43 44 48 49 49
20 18 15 12 10 6 4 7 13 14 11 12 15 20 21 25 29 32 33 33 37 39 39 42 42 43 42 43 42 43 43 42 40 37 39 39 33 39 43 41 36 36 33
14 13 11 10 10 10 12 16 11 10 8 15 20 24 29 30 35 36 37 39 40 41 42 43 42 42 43 42 39 33 32 33 32 37 34 32 32 28 27 24 24 32 33
12 9 9 13 16 20 20 13 12 15 17 22 24 28 34 37 42 42 42 42 42 42 42 41 41 41 39 39 32 32 32 26 26 27 34 29 28 29 33 32 36 37 36
10 11 16 19 16 12 14 16 18 22 24 24 27 31 37 38 39 42 43 44 44 43 40 38 38 36 38 32 29 27 31 30 31 34 35 35 38 37 28 33 37 35 33

GFSSE_700_spd_054.txt.gz
Wind_Speed
13 21 21 19 19 18 18 17 14 11 8 6 4 4 5 5 5 5 5 5 5 4 5 6 7 8 8 8 8 8 8 9 9 9 10 10 11 10 11 12 8 8 7
10 23 21 21 20 20 18 16 13 10 7 4 2 4 3 5 6 8 9 8 6 7 7 8 9 9 9 9 9 10 9 9 9 10 11 12 10 11 10 12 11 9 8
16 24 22 22 21 20 18 15 12 8 6 2 2 2 3 6 7 7 7 8 8 8 8 9 10 10 11 11 10 11 10 10 10 10 10 6 7 13 14 12 12 11 10
24 27 24 22 21 20 18 14 11 8 5 1 2 2 4 6 6 7 8 8 8 8 8 9 10 11 11 11 12 12 11 10 8 6 12 10 13 16 15 13 13 14 13
28 26 24 21 19 19 17 13 10 7 3 2 1 4 5 6 7 8 8 8 7 7 7 9 9 10 11 12 12 11 11 9 7 4 9 15 14 13 15 16 15 16 15
29 28 25 21 21 19 16 12 9 6 4 2 5 6 6 7 7 7 7 6 6 6 6 7 8 10 12 13 13 13 12 10 10 6 13 14 13 12 14 16 17 18 17
29 32 27 20 19 18 14 11 8 6 4 6 7 7 7 7 6 6 5 4 4 4 4 5 7 10 13 14 15 13 12 11 11 9 14 17 16 16 15 17 18 18 18
27 30 24 21 19 16 14 11 8 4 4 7 8 9 8 7 5 4 2 3 4 4 5 6 8 11 13 15 16 15 13 12 13 11 14 14 15 17 18 18 19 20 20
24 30 20 20 17 15 13 9 4 4 6 6 8 9 8 7 5 2 2 4 6 7 6 8 10 12 14 15 16 16 16 13 13 10 17 16 16 17 17 17 17 19 20
25 26 16 17 16 15 11 6 4 5 6 7 8 8 7 6 4 3 5 7 9 10 11 11 12 14 16 17 18 18 18 21 16 17 19 19 17 19 20 20 19 18 19
23 22 20 19 19 14 7 4 4 6 8 9 9 9 8 7 6 4 6 9 11 12 13 14 16 17 18 20 22 24 23 24 22 23 23 24 19 21 22 22 22 22 22
17 20 20 15 12 9 6 3 6 8 9 10 11 11 10 8 9 8 9 11 12 14 16 17 18 21 23 23 25 26 28 27 24 23 25 27 26 22 24 25 26 26 25
19 16 16 14 10 8 5 5 8 9 11 12 12 11 9 8 8 11 12 12 17 18 20 26 24 24 25 26 27 27 26 24 23 24 27 28 31 29 27 28 29 29 28
12 12 11 10 8 7 8 9 10 11 13 14 14 14 11 9 10 14 15 22 26 24 25 26 25 27 30 33 33 31 30 27 26 28 32 32 33 34 33 31 29 31 31
11 10 9 9 10 10 11 10 14 15 15 18 16 17 13 11 13 16 17 16 20 25 23 24 28 30 34 35 34 35 35 35 36 34 36 38 38 37 37 34 32 31 33
10 8 8 7 7 9 8 10 13 15 19 19 17 17 15 13 19 22 21 19 21 22 25 28 33 33 35 35 37 38 40 40 41 40 40 42 42 40 39 37 35 32 34
6 5 6 6 6 7 8 11 13 14 16 17 20 18 22 20 24 26 23 23 23 25 28 31 33 34 36 37 38 40 40 41 41 41 40 41 42 44 44 41 42 38 35
9 9 8 7 8 10 12 11 11 18 25 19 29 27 20 34 29 24 26 23 26 29 30 31 34 35 37 39 40 41 41 40 39 39 40 42 40 46 50 49 46 45 42
12 11 12 11 12 13 19 18 20 22 17 15 24 35 31 30 27 25 28 23 26 28 31 35 36 37 39 40 40 39 40 40 40 40 42 41 37 41 45 48 47 46 43
17 17 15 15 15 20 21 23 23 16 13 11 12 25 33 26 22 27 26 24 24 30 34 35 37 38 40 41 42 43 42 43 42 40 40 35 33 39 44 48 50 52 55
20 24 19 19 20 22 23 22 15 12 8 6 4 10 17 19 21 23 24 27 30 34 38 40 40 40 39 41 42 42 43 42 40 36 40 39 40 43 42 46 51 54 54
26 27 21 25 25 23 17 12 9 8 11 12 12 16 19 19 21 26 26 31 35 36 37 40 39 41 40 40 41 43 45 42 40 39 40 40 41 41 44 48 49 51 47
26 26 25 23 17 15 13 11 14 16 13 14 15 17 17 21 23 27 29 33 36 38 38 40 41 42 42 40 39 41 43 44 44 42 36 39 41 45 46 48 44 42 44
22 19 18 14 13 11 12 14 16 12 14 17 20 16 25 23 27 30 32 36 36 37 39 41 41 42 40 41 41 37 37 38 42 45 37 32 31 31 35 38 42 37 35
15 14 11 11 12 12 15 17 10 11 15 19 23 27 29 30 34 36 38 38 40 41 42 43 44 43 41 42 38 35 34 31 29 34 41 36 33 34 33 31 37 39 39
11 11 11 13 17 15 13 13 15 17 21 24 24 26 29 35 36 37 36 39 40 40 40 40 41 40 37 35 35 38 37 36 35 37 40 41 40 40 34 38 34 36 38

GFSSE_700_spd_057.txt.gz
Wind_Speed
18 21 22 23 23 22 22 20 16 14 11 8 6 5 4 5 7 8 8 8 8 7 8 9 9 9 9 9 9 10 9 8 7 7 7 8 10 12 10 6 8 7 6
11 21 21 23 24 23 22 20 16 13 9 6 4 5 6 8 10 11 10 9 9 9 8 9 9 10 10 10 10 9 9 9 8 8 7 6 8 11 13 10 8 9 9
16 22 23 23 24 24 22 19 15 13 9 5 3 5 7 8 8 9 10 10 10 9 9 9 10 11 11 10 10 9 10 10 8 7 9 5 9 11 13 12 9 9 10
16 24 25 26 24 23 21 18 14 11 8 4 3 7 8 8 9 10 10 10 9 9 8 8 9 9 10 11 11 10 9 9 13 14 8 5 14 15 15 11 12 11 9
16 28 30 28 25 22 19 16 13 10 7 4 5 9 9 9 10 10 10 9 8 7 7 6 7 9 10 11 11 11 10 11 12 13 7 12 17 15 16 16 15 15 12
20 32 30 28 25 22 19 15 12 9 6 4 8 9 9 10 10 9 9 7 6 5 4 5 7 8 10 13 13 12 11 14 12 13 14 13 15 14 15 15 16 16 16
32 33 33 28 28 23 18 15 12 8 5 6 10 10 10 10 9 9 7 6 4 3 4 4 7 9 10 11 12 13 12 13 13 10 13 13 12 13 14 16 16 15 15
33 33 30 31 23 22 18 14 10 6 5 7 9 9 9 9 8 7 5 3 3 3 3 5 7 8 10 11 13 14 13 13 17 16 17 17 17 17 16 16 17 18 17
23 25 27 25 18 17 16 12 8 5 6 9 10 9 10 9 8 6 2 2 4 5 5 7 8 10 11 13 15 16 16 13 16 17 18 18 18 18 18 19 18 18 18
22 27 22 20 17 15 13 10 7 5 9 9 10 10 10 10 7 5 2 4 7 8 9 10 11 13 14 15 16 18 18 16 20 21 22 21 20 17 18 20 21 21 20
25 30 24 20 16 19 14 8 4 5 8 8 9 9 10 8 7 5 5 7 10 12 14 12 13 15 15 16 19 22 22 21 23 23 24 22 23 22 21 23 23 23 23
26 25 23 21 20 11 7 4 2 3 6 8 9 9 11 10 9 7 8 10 12 13 15 13 17 20 17 19 24 25 25 23 22 24 23 25 28 30 30 28 27 26 26
17 22 19 13 9 6 5 2 3 3 6 8 10 12 11 12 12 10 10 14 14 19 23 23 28 24 25 27 28 27 24 23 23 25 25 26 30 32 34 31 31 29 29
19 16 15 15 10 9 5 7 8 7 9 13 12 11 11 11 10 11 16 16 17 15 19 23 22 24 26 29 33 33 33 33 31 31 32 31 33 34 35 36 35 32 29
16 18 13 8 8 9 10 8 7 6 9 10 11 13 13 13 13 16 18 16 15 19 22 21 21 25 28 29 31 34 34 35 36 35 35 35 34 35 36 36 35 32 31
15 11 9 9 8 3 5 10 12 10 9 10 12 14 17 18 19 19 19 21 21 20 21 21 22 27 30 32 33 33 36 39 39 38 38 37 38 38 38 39 40 38 37
10 9 6 3 4 7 9 7 6 8 11 10 14 18 21 24 23 23 24 22 21 20 21 23 25 30 32 33 35 37 39 38 37 36 36 38 40 41 43 44 43 43 42
8 6 5 3 3 2 4 6 8 12 15 16 22 25 28 28 24 23 24 27 25 25 26 25 27 30 32 36 37 37 38 37 37 37 39 40 40 43 43 45 46 47 44
6 5 1 3 6 5 7 10 13 15 17 17 17 20 24 30 31 36 28 29 28 29 30 29 31 34 37 38 39 37 37 37 38 37 38 38 38 39 40 42 46 49 51
3 4 4 7 12 12 14 16 18 19 13 13 13 12 14 24 28 32 33 27 29 32 33 34 34 37 40 41 40 41 40 40 40 40 42 41 39 40 41 44 47 49 51
8 9 11 12 14 15 18 20 19 14 11 8 10 11 11 15 24 26 26 28 29 31 33 33 39 39 37 39 40 39 39 38 38 39 40 41 40 39 40 44 49 53 55
14 15 17 18 15 21 23 20 15 12 11 15 11 11 13 15 19 24 26 27 28 28 31 36 37 37 38 38 39 40 41 37 37 37 37 39 39 39 39 41 46 51 50
20 20 19 20 21 23 20 14 14 15 19 17 13 14 16 21 21 23 24 28 30 32 34 34 36 37 37 36 37 39 42 44 43 38 37 35 38 40 41 44 48 52 52
20 20 21 24 23 18 13 17 18 19 19 16 17 16 19 17 25 26 29 33 33 34 36 37 38 39 39 39 39 39 38 41 45 48 46 40 32 33 35 36 38 38 39
24 22 21 17 15 14 20 19 18 18 20 20 21 22 25 27 29 32 35 33 34 35 36 38 39 40 40 40 40 41 42 41 39 42 48 45 41 36 36 36 36 38 40
19 17 16 17 17 17 16 16 16 19 19 21 22 23 25 27 34 39 36 39 39 38 39 39 39 40 40 40 38 39 41 41 39 39 40 41 41 40 37 34 33 34 36

GFSSE_700_spd_060.txt.gz
Wind_Speed
19 24 25 27 26 25 24 22 19 16 13 10 9 7 6 6 8 8 9 9 9 8 8 8 8 8 7 7 7 6 7 8 9 9 9 9 8 8 7 5 5 7 7
16 23 19 23 25 25 25 22 19 16 12 9 7 7 7 8 11 12 12 11 10 9 8 8 7 7 7 6 6 6 7 8 11 11 8 1 7 12 14 9 5 6 8
21 25 24 23 27 26 25 22 19 15 11 8 8 9 9 9 10 11 12 11 10 8 7 7 7 7 8 8 9 9 9 8 9 9 8 3 5 14 13 11 8 7 8
20 25 26 27 29 28 26 21 17 14 11 7 7 9 10 9 9 11 11 10 9 7 6 6 7 8 9 9 11 13 11 10 10 10 9 10 14 13 12 14 13 11 10
25 26 27 32 30 28 23 18 14 12 9 6 6 10 9 9 10 10 10 9 7 6 5 5 6 7 9 10 12 13 13 12 11 12 11 13 15 13 12 12 13 13 14
24 30 36 32 33 30 23 19 15 11 8 5 8 10 10 10 10 9 8 7 5 3 2 4 5 7 8 10 14 15 16 16 14 14 14 12 14 14 13 13 14 13 12
27 35 35 35 31 27 24 21 15 11 7 4 9 11 10 10 9 8 7 5 3 2 3 3 5 7 8 9 12 15 17 16 15 14 15 14 13 13 15 15 15 15 15
33 36 34 32 29 25 23 17 13 10 5 6 11 10 10 10 8 7 5 3 2 2 3 4 6 8 8 8 9 16 16 18 18 17 17 17 17 15 15 16 16 15 16
27 32 36 31 31 31 20 13 10 5 5 11 12 11 10 9 8 6 3 0 3 4 5 6 8 9 9 11 11 13 18 19 21 21 21 20 18 17 16 17 18 18 18
37 34 29 28 28 19 14 12 8 7 9 11 11 9 10 9 8 7 5 5 5 6 7 8 8 10 12 13 12 13 20 24 23 21 22 22 21 20 20 19 20 21 21
20 29 29 26 24 16 14 12 8 4 6 8 10 11 10 11 10 10 9 9 9 10 8 8 8 12 16 14 14 16 20 22 21 22 22 24 26 26 25 24 25 24 23
23 24 25 28 26 20 13 9 4 4 9 11 10 11 11 11 10 12 12 12 14 13 13 12 12 17 16 16 19 22 21 22 24 25 24 26 28 31 31 31 29 28 27
23 25 31 26 17 13 9 4 2 5 7 9 9 10 10 12 14 15 14 16 14 14 16 14 20 21 23 22 24 25 25 25 26 27 28 29 29 31 34 34 34 32 29
23 20 19 15 14 8 4 3 5 6 4 6 6 7 9 12 15 16 16 16 15 17 17 21 22 23 22 23 25 28 31 30 30 33 35 33 31 33 33 34 34 34 30
25 17 15 14 11 7 2 2 1 2 4 3 6 8 11 14 16 16 16 18 16 19 22 22 22 22 22 25 26 29 31 31 32 33 34 35 35 35 35 35 36 37 37
20 21 18 14 7 3 9 9 6 5 4 3 5 9 13 14 16 18 18 18 18 21 22 20 20 21 22 24 26 29 32 34 34 33 33 35 35 36 38 39 40 40 40
16 12 10 5 10 11 8 6 6 5 8 7 8 12 14 18 20 22 21 21 22 22 21 21 21 21 25 28 31 33 34 36 36 36 36 37 37 37 38 40 41 42 43
14 11 8 9 10 4 3 4 5 8 9 11 10 15 18 22 25 27 27 26 27 28 24 19 22 27 30 32 34 37 38 36 37 38 37 37 37 38 38 40 42 44 45
9 9 7 6 2 4 3 6 8 10 12 11 12 15 18 22 27 28 29 33 32 29 28 28 30 32 33 34 38 37 36 36 37 38 38 38 40 39 40 42 44 48 50
11 10 7 4 5 7 9 10 11 13 14 12 13 14 16 17 19 21 24 25 28 30 31 33 33 33 33 38 38 39 38 37 38 38 39 40 39 40 42 44 46 48 50
8 7 7 6 9 10 11 13 15 17 13 12 11 16 17 16 18 18 22 25 27 31 33 33 33 33 36 40 40 39 38 36 35 35 37 38 39 40 41 43 47 49 52
5 6 6 8 11 12 14 16 17 15 13 13 16 16 14 15 17 19 20 24 28 29 31 34 35 38 39 40 40 40 39 35 36 35 35 37 38 40 41 42 44 49 50
15 14 14 14 13 15 18 20 16 14 14 16 14 14 14 15 18 21 24 29 30 31 32 33 37 40 40 39 38 38 40 40 40 36 37 38 37 37 39 39 39 40 43
20 20 20 18 17 20 21 16 14 15 15 14 15 14 16 17 22 21 25 27 26 26 32 35 37 39 40 39 39 39 39 42 44 49 47 45 40 37 38 37 38 38 40
23 23 23 21 23 23 17 14 15 15 15 15 16 17 19 24 25 29 31 30 30 35 36 36 38 38 40 40 41 41 41 41 42 44 48 47 43 40 37 36 34 35 37
18 18 24 27 24 17 14 15 17 17 16 18 20 21 25 29 24 35 39 31 35 36 37 38 38 40 41 41 41 41 42 42 42 43 44 44 42 38 36 33 31 31 32

GFSSE_700_spd_063.txt.gz
Wind_Speed
17 25 27 27 27 26 25 23 21 18 14 11 8 6 4 4 5 4 3 5 6 7 7 6 6 7 8 9 10 11 11 11 11 10 10 9 9 10 12 11 8 7 7
12 24 26 26 26 26 25 25 21 17 13 9 6 4 4 3 5 7 9 8 8 7 7 6 6 7 9 10 10 10 9 9 9 8 7 8 7 12 12 10 9 8 9
18 24 27 28 28 29 29 25 22 17 13 8 4 5 6 8 9 10 10 9 8 7 6 6 7 8 10 10 10 10 10 10 10 11 9 6 8 14 12 11 9 8 8
20 26 29 31 30 29 27 22 20 15 11 7 5 7 8 8 8 9 9 8 7 7 7 6 7 9 10 11 11 11 11 12 13 11 10 11 12 12 12 11 10 10 10
20 25 30 31 31 30 26 26 19 14 9 6 5 8 8 9 9 8 7 6 6 5 5 5 7 9 12 12 12 13 13 13 13 14 13 13 15 14 13 13 14 13 11
21 30 32 32 33 31 29 25 20 16 12 5 7 10 9 9 9 7 6 5 4 3 4 5 8 11 13 14 14 15 15 17 18 19 18 16 15 16 16 15 14 14 13
23 31 33 34 32 32 30 24 20 17 9 6 10 10 9 9 8 7 5 3 2 1 2 3 7 11 13 15 16 17 18 21 22 22 21 19 17 16 17 16 15 14 15
27 35 38 39 36 31 28 22 21 11 6 6 12 12 10 10 9 7 6 4 3 2 2 4 6 7 12 13 16 17 19 22 23 23 21 19 15 15 15 15 16 16 17
33 37 37 36 30 23 28 25 12 9 6 9 13 11 12 12 11 10 7 6 5 5 5 6 7 8 8 15 17 17 18 20 21 22 23 22 20 19 17 17 16 17 19
18 36 37 33 31 30 25 15 14 7 7 11 11 13 13 13 11 9 9 8 9 9 8 8 8 9 11 17 14 16 20 23 22 22 23 25 25 24 23 22 21 22 22
25 32 35 36 32 32 19 15 11 9 11 13 15 14 14 13 12 11 11 12 11 11 10 7 7 9 12 12 16 17 21 23 24 23 24 24 25 25 26 28 27 26 26
23 31 32 32 40 24 18 14 6 5 11 14 13 13 12 11 12 12 13 11 12 10 9 11 9 13 14 17 16 18 20 22 25 26 27 27 28 29 27 27 27 28 28
24 19 24 20 30 28 20 12 7 5 5 8 10 11 10 11 12 13 13 14 15 14 13 11 16 17 19 17 19 19 20 23 25 27 28 30 31 32 32 29 28 27 27
23 33 34 28 22 19 15 9 5 5 4 6 7 8 10 11 13 14 16 16 16 15 15 18 19 20 20 21 22 22 24 26 27 30 32 32 32 32 33 33 32 31 30
25 22 21 19 15 10 8 6 2 5 2 4 4 5 9 11 13 15 16 17 18 16 17 20 22 22 22 23 24 25 27 30 31 32 33 33 33 34 35 35 35 35 34
19 17 15 14 11 4 4 7 7 7 5 3 3 5 6 10 13 15 16 18 18 18 16 19 23 22 24 23 25 27 30 33 35 36 35 34 34 34 35 36 36 35 35
24 19 17 14 13 13 12 11 9 4 3 3 3 6 9 12 15 18 19 21 21 20 22 25 23 23 24 26 29 31 33 36 38 37 36 34 34 34 34 34 35 37 38
18 13 11 16 16 14 11 8 4 1 3 5 6 8 12 15 18 20 22 25 24 25 25 27 25 24 29 31 31 32 35 37 39 40 40 39 37 37 38 37 39 40 43
15 19 19 17 10 7 7 4 2 3 5 6 8 10 13 16 19 21 23 22 22 23 23 23 27 30 32 33 34 34 37 40 42 43 42 41 39 39 40 40 42 44 47
15 15 15 12 7 5 6 5 5 7 9 10 11 12 13 16 18 19 21 21 21 21 24 27 30 32 34 36 37 39 43 42 42 41 40 39 37 38 40 41 43 45 48
14 12 10 8 5 6 6 7 8 10 12 12 12 12 14 18 18 18 20 22 23 25 29 31 33 34 36 37 38 41 43 43 42 40 38 37 35 37 39 42 44 45 47
9 8 8 8 7 7 10 11 11 14 14 13 13 13 18 16 16 19 19 22 26 28 31 33 33 35 36 40 41 43 44 41 40 38 38 39 39 40 40 42 44 46 47
7 7 9 10 10 12 13 13 13 15 13 12 14 17 14 15 17 21 23 24 25 28 31 30 31 36 38 40 40 40 43 43 42 39 40 40 41 40 40 42 43 44 45
9 12 13 17 16 16 16 15 16 14 13 14 16 14 13 16 18 22 23 24 26 30 33 34 36 36 39 39 39 40 40 41 43 46 45 44 43 42 40 41 41 40 41
9 9 14 17 19 19 20 18 14 13 14 14 13 15 15 19 24 24 28 24 34 38 38 35 38 38 39 39 41 42 41 42 42 44 48 48 48 45 40 41 37 34 33
15 12 14 17 19 22 21 18 13 13 13 13 15 18 20 27 28 22 25 37 33 35 43 40 38 40 40 41 44 45 44 44 45 45 47 48 48 48 39 35 30 29 33

GFSSE_700_spd_066.txt.gz
Wind_Speed
20 23 25 26 25 23 22 22 20 18 15 13 9 6 4 4 4 2 3 3 4 5 6 9 11 12 12 12 11 12 12 12 11 11 13 13 11 11 12 8 7 7 7
16 23 27 26 25 24 22 22 20 17 13 11 8 5 3 2 4 6 8 6 5 5 7 9 11 12 13 13 12 13 12 12 12 12 12 11 10 11 14 12 9 8 7
18 24 27 28 28 27 26 24 22 17 12 9 5 5 7 8 10 10 9 7 6 6 7 9 11 12 13 13 12 13 13 13 13 12 12 12 12 13 13 11 11 11 9
20 25 29 31 30 28 26 25 20 14 12 6 5 8 11 10 10 10 8 6 4 5 5 7 9 11 12 12 13 13 14 15 16 16 14 14 15 15 14 13 12 11 10
24 27 31 32 31 29 27 25 20 13 13 7 7 11 12 12 12 11 8 5 2 2 4 7 8 10 12 13 13 13 14 15 17 18 18 16 15 15 15 14 14 13 12
25 29 30 31 32 30 29 26 16 20 12 5 10 13 14 14 13 12 8 5 2 2 4 6 8 9 11 12 14 16 18 20 22 22 21 20 19 17 16 16 15 14 13
22 27 30 33 32 31 30 25 20 20 18 10 13 14 15 14 13 10 7 4 1 3 5 8 9 12 13 14 16 19 21 21 22 23 21 20 19 18 17 16 15 15 14
20 29 33 33 34 36 32 26 23 21 18 9 15 15 15 13 12 11 8 4 1 5 8 9 12 13 12 14 18 19 19 19 20 21 20 19 18 18 17 16 16 17 16
23 30 34 39 40 40 35 27 24 17 10 15 16 16 15 15 13 10 6 3 2 3 8 12 9 10 11 16 15 15 16 16 18 19 20 20 19 19 20 20 19 19 19
26 31 38 44 39 39 38 30 23 13 14 16 17 16 16 14 11 9 6 4 3 6 7 7 8 11 12 13 15 18 19 19 19 19 20 22 23 22 21 21 21 22 22
16 19 24 24 34 29 33 32 20 14 14 15 17 14 13 12 10 9 6 4 6 7 7 6 10 10 11 14 17 18 19 21 22 23 23 25 26 24 24 23 22 22 23
17 22 35 37 32 24 24 19 15 16 16 16 15 13 11 10 10 8 6 7 9 10 8 8 7 12 14 17 17 17 18 19 20 23 24 26 28 29 25 24 23 23 23
22 21 29 29 29 28 20 17 12 9 11 11 10 10 10 11 9 8 9 11 11 11 12 11 12 14 16 18 20 20 20 21 22 24 27 29 30 32 30 27 26 26 26
25 25 25 25 38 37 30 19 14 11 8 7 7 9 8 9 10 10 11 12 15 15 15 15 16 17 17 20 20 20 22 24 27 29 31 32 33 32 33 31 28 27 27
8 11 25 32 27 24 17 12 8 7 5 5 6 8 8 9 9 10 12 14 15 17 18 19 17 20 22 22 22 24 26 28 30 30 31 32 33 33 34 35 33 30 28
31 30 29 23 20 18 13 9 8 9 7 6 7 6 6 6 9 11 13 15 16 17 19 19 21 21 23 22 24 27 30 31 31 30 31 33 35 35 34 34 34 33 32
18 15 18 19 15 15 14 14 15 11 9 7 7 7 7 8 9 10 12 13 17 19 20 20 20 21 21 24 27 29 32 32 32 34 35 36 37 38 37 35 35 35 35
20 20 21 21 19 17 15 14 12 9 7 6 6 6 6 8 10 14 14 16 18 15 15 16 18 21 24 26 29 31 33 35 36 38 40 41 40 39 39 39 38 38 39
20 23 21 19 16 15 13 12 10 5 4 4 5 6 8 9 12 16 15 16 16 14 16 17 20 24 27 29 31 33 35 37 39 41 42 42 42 41 40 39 40 41 42
14 17 18 18 16 14 11 8 5 3 4 6 8 9 9 10 13 15 15 15 15 16 17 20 24 29 32 33 34 35 36 39 41 42 41 40 40 40 39 39 40 41 44
19 19 18 15 14 10 7 6 5 6 6 8 10 10 10 11 14 15 15 16 17 21 24 27 30 32 33 33 34 38 38 41 42 41 41 40 39 39 39 40 41 42 43
16 17 16 14 11 9 8 9 9 9 8 8 9 10 9 13 15 15 17 19 22 24 24 26 29 30 30 35 38 39 42 41 41 42 42 41 39 39 40 41 43 44 45
12 11 10 10 9 9 9 12 11 11 10 8 8 9 12 15 16 18 19 22 26 27 24 28 31 33 31 37 39 40 43 44 43 42 41 42 42 42 42 42 44 45 45
7 12 12 12 12 12 12 13 13 13 13 9 10 13 15 16 17 20 21 21 23 28 29 40 32 37 38 37 39 41 40 42 45 48 46 45 44 44 44 42 45 45 45
8 9 11 13 13 15 14 14 15 16 14 12 14 15 15 17 21 22 26 27 26 25 34 39 40 47 41 41 44 44 45 45 45 45 48 47 48 48 47 43 44 43 44
11 11 11 12 12 15 18 17 17 17 16 15 15 15 17 20 23 28 26 33 26 30 34 39 45 42 41 45 45 46 47 48 46 44 46 47 48 48 48 43 40 38 37

GFSSE_700_spd_069.txt.gz
Wind_Speed
14 22 20 23 23 20 17 16 15 14 12 10 7 6 6 5 4 3 3 6 8 9 10 11 12 13 14 14 13 14 13 13 12 13 13 12 11 10 13 10 8 7 6
13 22 24 25 24 22 20 19 18 16 14 10 8 7 6 5 4 6 8 9 10 10 9 10 12 12 12 13 13 14 14 14 14 15 15 15 14 13 12 9 8 7 7
16 23 27 26 26 24 22 20 19 16 14 11 6 7 7 7 9 11 10 10 10 8 9 10 11 12 12 13 14 15 16 18 18 18 17 16 15 15 13 12 10 8 7
18 24 28 29 27 24 22 21 19 16 13 10 8 10 12 12 13 12 11 9 8 7 8 10 10 11 13 14 15 16 17 18 18 18 17 15 14 14 13 13 12 11 10
20 25 29 30 29 27 24 22 21 17 14 8 10 13 14 12 12 12 9 8 7 7 8 9 10 12 13 14 15 16 17 17 18 18 18 17 16 16 15 14 13 12 11
20 24 28 29 30 28 25 24 23 19 14 11 13 15 15 13 12 11 9 7 5 6 7 7 9 11 11 11 14 15 15 16 17 17 17 16 15 15 15 15 14 14 13
20 25 30 31 30 29 26 25 23 19 16 15 16 16 16 14 13 11 9 6 5 5 5 8 9 10 10 12 14 15 17 17 17 17 17 16 16 15 15 14 14 14 14
23 28 32 33 30 31 30 30 29 25 21 17 15 17 17 15 13 10 6 5 4 5 6 8 9 9 12 13 12 16 18 18 17 17 17 17 16 15 14 15 16 15 16
24 30 35 35 34 37 38 37 31 25 24 18 16 18 17 15 12 7 5 2 2 4 5 6 7 9 9 11 13 17 17 17 17 17 17 17 17 18 18 18 17 17 17
25 28 35 41 43 41 39 39 30 27 26 24 20 19 17 14 10 7 3 1 3 3 5 7 7 8 10 11 14 16 16 17 17 18 18 18 19 19 20 21 20 19 18
27 25 35 38 39 41 43 40 39 27 20 19 20 17 15 13 10 8 4 3 4 4 6 6 8 10 10 13 15 15 17 17 18 18 18 19 20 20 21 21 22 21 21
23 24 24 30 26 27 24 31 34 25 17 19 18 15 13 10 10 6 5 5 6 7 7 9 11 11 13 14 15 18 18 18 18 21 22 23 24 24 22 22 23 22 22
19 23 24 29 35 24 25 33 24 17 19 20 18 14 13 10 9 7 8 8 6 8 10 11 13 13 14 16 17 18 17 17 21 23 25 26 27 28 27 25 24 23 22
30 33 39 37 25 32 23 25 23 18 18 16 14 12 11 10 10 10 10 9 9 10 12 14 15 16 16 18 18 16 17 20 23 26 28 28 28 30 32 31 28 26 25
17 19 17 14 26 38 38 36 19 14 14 13 11 11 12 11 10 9 10 9 11 12 13 15 16 17 19 19 18 19 21 23 25 26 28 30 31 32 34 36 35 31 27
18 16 18 15 40 30 23 21 17 15 15 15 14 12 10 9 9 8 9 12 14 13 14 16 15 17 18 17 19 21 23 25 26 28 29 31 33 34 35 36 36 35 33
40 41 37 34 29 24 20 18 16 16 15 13 12 11 10 8 7 7 10 11 10 13 16 12 14 16 16 20 22 25 27 28 29 30 31 33 36 37 36 35 36 35 35
22 23 24 22 19 19 21 19 17 16 14 13 12 11 10 9 9 10 12 13 12 13 11 12 15 16 19 23 27 29 30 30 32 34 36 37 38 37 36 36 36 38 38
14 18 20 20 20 20 20 20 17 13 11 11 9 9 9 7 9 10 12 12 11 11 13 14 16 19 22 26 28 27 28 30 34 36 38 40 39 39 39 38 39 39 40
21 21 19 18 20 20 19 16 14 10 9 8 8 7 8 9 10 11 12 12 12 13 14 17 21 24 26 27 28 28 29 33 35 38 40 40 39 38 39 39 39 40 41
21 21 19 18 17 15 14 11 9 7 7 6 7 11 9 10 12 13 14 14 15 16 19 22 24 25 28 30 33 35 35 36 38 39 40 40 39 40 40 40 41 42 42
18 18 17 16 14 13 12 11 10 9 7 8 9 9 9 12 14 15 15 16 16 19 24 27 27 25 31 28 31 35 37 39 40 41 41 41 42 42 41 41 41 43 45
16 15 13 13 13 12 11 13 13 9 10 8 10 11 12 15 16 16 16 16 17 21 23 24 27 29 36 31 37 36 38 41 42 42 42 42 45 42 40 40 41 43 45
14 15 16 18 17 15 15 13 13 12 12 14 14 14 13 15 15 16 16 16 19 24 31 29 26 30 32 32 35 38 40 39 42 45 46 44 42 40 41 42 43 45 47
15 16 16 17 19 19 18 15 15 15 14 17 18 15 13 15 16 18 19 21 30 31 30 29 33 40 33 37 38 39 39 40 40 43 43 41 42 42 44 45 45 47 48
18 17 17 19 20 20 21 17 16 17 17 18 17 16 15 17 17 20 23 29 31 32 33 34 31 44 45 37 40 40 39 39 39 37 38 38 42 42 43 46 46 46 45

GFSSE_700_spd_072.txt.gz
Wind_Speed
17 19 21 19 20 20 18 17 16 14 12 9 5 4 3 3 3 3 6 11 12 11 10 10 11 11 12 12 13 14 14 15 15 15 14 13 13 12 11 9 6 5 3
16 20 22 21 22 22 20 18 17 16 13 10 7 6 5 6 5 7 12 13 12 10 10 11 12 13 14 15 17 19 19 19 18 17 15 14 13 11 10 9 8 7 6
15 20 24 23 23 22 20 19 18 16 14 11 9 8 7 6 8 13 15 14 12 11 11 10 11 12 14 16 16 17 17 16 16 15 14 13 13 12 11 11 10 8 8
15 21 26 26 25 23 21 19 19 18 17 15 12 9 8 9 13 16 16 14 12 10 9 9 11 12 13 15 15 15 15 15 14 14 15 14 12 11 11 10 10 10 9
12 22 25 27 27 25 24 22 21 21 19 17 13 10 12 14 14 16 15 13 11 9 8 9 10 11 12 13 13 14 14 14 14 15 13 13 13 12 11 10 10 10 10
15 22 26 28 28 27 26 24 24 23 21 17 13 14 14 14 16 16 15 12 10 9 8 8 9 9 10 12 13 15 15 16 17 15 14 13 13 12 12 12 12 11 11
19 23 29 29 30 29 26 25 25 24 21 17 14 16 15 15 16 15 13 12 9 8 8 7 6 8 9 10 11 15 16 15 13 13 14 13 12 12 13 13 13 13 13
21 21 27 30 30 29 28 27 27 25 22 18 16 17 18 16 15 14 12 11 8 7 5 5 6 6 8 9 10 12 13 14 14 14 14 14 14 14 15 16 17 16 16
22 25 27 31 31 37 36 32 28 26 25 19 19 15 15 17 15 13 11 8 6 4 4 4 4 5 7 7 9 12 13 14 14 13 14 15 15 15 16 17 17 17 17
26 29 33 35 37 37 39 32 29 28 24 22 22 17 18 16 14 11 8 7 4 2 2 3 4 6 6 8 10 11 13 12 12 12 13 14 14 15 16 17 17 18 18
23 28 32 40 38 34 30 38 31 26 26 22 25 22 18 15 13 11 9 6 4 1 1 2 5 6 7 8 10 11 13 12 12 12 14 16 17 16 16 17 18 18 18
22 27 25 29 32 46 43 43 37 32 30 24 21 21 18 14 11 9 6 4 3 1 3 5 7 8 10 10 11 12 13 13 12 14 16 17 18 18 18 19 20 21 21
23 26 27 34 35 37 32 30 39 37 30 24 24 19 15 14 11 8 7 6 3 5 6 7 9 10 12 12 14 15 14 13 15 17 19 20 21 23 24 24 24 25 24
19 25 24 33 29 32 29 21 36 31 30 25 20 18 16 13 10 10 9 5 6 9 8 9 10 12 13 15 16 16 14 16 18 21 23 24 26 27 28 29 28 27 25
18 29 40 38 38 31 32 39 34 26 28 25 19 17 15 13 13 11 8 8 9 9 10 12 14 15 17 18 15 14 15 17 20 23 25 26 27 30 32 35 34 31 28
22 38 36 24 23 31 18 27 36 30 25 19 17 17 16 14 11 10 9 9 10 12 13 15 17 16 15 13 13 16 19 22 22 23 26 27 29 31 34 35 35 35 33
13 16 27 32 33 36 30 27 22 18 17 18 18 16 14 12 11 10 11 11 11 14 15 15 14 14 14 14 17 20 22 22 23 23 26 29 32 33 34 35 36 36 36
16 30 39 39 30 26 24 22 20 20 21 19 18 16 13 13 12 12 12 12 12 11 12 13 13 13 15 18 22 24 24 25 25 25 28 31 32 34 36 34 36 37 37
24 27 26 26 23 20 21 21 22 21 20 18 17 16 15 14 14 15 14 13 11 11 12 11 13 16 20 21 23 25 26 28 30 32 33 34 35 35 34 35 35 38 38
17 16 16 17 19 19 21 19 19 18 17 16 15 14 13 14 15 14 13 12 12 12 12 13 17 20 20 21 23 26 25 27 31 33 33 35 37 35 35 36 38 40 40
19 18 16 17 18 19 18 16 14 12 13 14 14 14 13 14 13 11 14 13 13 12 14 16 19 22 23 24 27 33 33 32 31 32 35 36 38 39 38 39 39 38 39
20 19 18 17 17 16 15 15 14 14 14 13 13 14 16 15 13 14 13 13 14 15 17 19 21 24 22 20 26 29 31 35 42 38 35 38 39 37 39 39 37 37 38
21 19 18 17 16 16 17 18 17 14 13 13 12 14 16 13 14 13 13 14 15 18 22 23 24 27 33 35 32 34 34 33 36 39 42 36 37 36 35 34 35 36 38
19 20 20 20 20 19 19 18 18 17 15 14 15 15 17 16 14 13 13 15 17 21 25 27 32 34 30 34 34 40 37 37 35 38 37 41 41 33 33 34 35 37 40
22 21 22 21 21 21 21 19 19 20 20 19 19 22 17 17 17 15 16 19 21 24 28 32 35 33 38 32 38 41 39 36 37 37 37 32 34 36 37 36 37 39 41
22 23 23 22 22 23 23 22 22 23 23 23 23 18 19 20 19 18 19 22 24 25 29 36 34 29 27 33 38 36 35 36 36 35 34 33 34 33 35 39 41 42 43

GFSSE_700_spd_075.txt.gz
Wind_Speed
17 18 20 22 21 21 20 19 17 15 13 10 6 4 4 4 4 5 10 13 13 13 12 13 13 14 15 15 15 15 15 15 15 14 13 12 11 10 9 9 7 5 4
17 18 20 22 21 21 21 19 18 16 13 10 7 5 4 3 3 8 13 14 14 13 12 12 13 14 15 16 16 15 14 14 13 13 12 13 12 11 10 9 7 6 4
15 16 20 22 21 21 21 20 19 17 15 12 9 6 4 2 6 12 15 15 14 13 13 13 13 14 15 15 15 14 14 14 13 11 14 13 11 10 9 8 7 6 6
10 18 21 23 23 23 22 21 20 19 17 14 10 7 4 6 13 16 16 15 14 13 13 13 12 14 14 14 14 14 14 14 13 15 9 11 10 10 9 9 9 9 8
13 17 22 25 25 25 24 23 22 20 18 15 11 7 6 12 17 18 16 15 14 13 12 12 12 12 12 13 14 14 13 13 10 12 10 11 11 10 11 11 11 11 12
14 18 24 28 28 27 26 24 23 22 20 16 12 9 12 17 18 18 16 15 13 12 11 11 10 11 11 12 13 14 15 15 17 10 12 10 10 10 10 10 10 11 11
23 31 31 30 29 27 26 25 24 23 20 17 14 13 16 19 18 17 15 14 12 10 10 9 9 9 9 9 10 12 13 13 11 9 10 12 11 11 11 11 12 11 11
27 19 27 29 30 28 27 25 25 23 20 18 15 16 16 17 17 16 15 13 11 9 8 7 7 6 7 7 8 10 11 10 10 9 9 11 12 13 14 14 14 14 14
30 35 32 32 33 32 31 31 29 26 23 20 20 21 21 20 15 16 14 12 10 7 6 6 5 5 6 5 6 8 9 10 9 9 8 14 13 13 14 14 15 15 16
18 18 26 35 32 35 35 36 33 29 25 24 22 20 20 15 18 15 13 11 8 6 4 4 2 3 3 5 6 7 8 8 8 8 11 12 12 13 13 13 14 14 15
17 22 23 29 36 39 39 37 30 29 28 26 23 21 24 21 19 15 14 9 6 4 4 1 1 2 4 6 7 8 10 10 9 10 12 13 13 13 14 14 16 18 19
17 21 22 27 37 40 44 38 39 36 29 25 25 26 20 19 17 14 10 8 8 7 3 1 2 5 7 8 8 10 12 11 10 13 12 15 16 16 16 17 19 20 22
14 19 21 28 33 31 34 23 32 33 32 32 31 22 21 19 14 14 11 11 7 4 5 3 6 6 8 10 12 13 13 12 12 14 14 16 16 19 19 20 22 22 23
16 17 20 22 27 29 38 46 29 33 43 40 34 26 20 17 15 11 13 9 8 8 5 7 7 8 11 14 15 15 12 11 12 17 13 16 18 20 23 23 24 24 24
17 18 19 23 29 28 31 28 25 34 41 32 21 17 20 16 13 15 11 9 8 8 8 10 11 13 14 14 12 9 10 12 14 17 18 18 21 23 26 29 29 27 26
15 12 17 34 32 35 28 29 34 42 36 27 26 24 25 17 14 13 12 10 9 9 11 14 14 14 13 11 9 11 14 16 15 17 24 22 24 27 29 32 33 33 30
22 28 32 36 40 34 22 18 24 36 34 30 30 21 18 16 14 15 12 10 10 11 15 14 14 13 12 12 13 13 16 16 18 19 22 30 33 31 31 32 34 34 34
15 23 35 12 18 15 28 30 32 32 27 25 22 19 19 18 16 14 13 11 10 13 13 12 12 12 13 14 14 15 17 20 21 23 25 30 30 35 39 32 34 35 35
16 21 21 30 28 21 20 23 23 25 25 20 20 20 19 18 16 15 14 12 13 13 12 11 12 13 14 16 17 16 17 25 25 27 30 31 31 31 32 39 34 36 34
27 29 29 28 21 18 19 22 23 22 21 22 20 20 20 17 15 16 15 14 14 13 13 14 14 15 16 18 20 22 21 18 25 28 30 32 34 33 32 33 36 38 38
17 18 17 20 16 17 17 18 18 17 17 18 19 18 17 17 17 18 17 14 14 14 15 16 16 17 19 20 19 18 24 32 34 34 38 38 35 35 38 37 35 33 33
17 19 19 17 17 17 17 16 15 15 15 17 17 18 18 19 19 19 16 14 13 14 16 17 18 20 22 21 25 30 29 29 39 46 45 34 36 35 35 37 36 34 31
20 19 19 18 17 16 17 18 17 16 16 17 17 18 19 19 18 18 15 15 15 16 18 19 21 22 24 28 27 29 27 29 34 34 37 44 41 37 34 32 33 33 32
17 15 15 17 18 19 19 20 19 17 16 17 18 17 18 25 19 18 16 18 17 19 20 21 24 27 28 32 31 25 28 32 34 35 32 37 38 39 39 35 32 32 33
20 19 19 19 20 21 21 21 19 20 21 22 22 21 21 19 23 22 20 20 21 21 23 25 27 28 32 34 33 26 32 33 34 36 38 36 34 34 35 37 40 36 38
20 21 22 23 22 23 22 23 23 22 24 21 24 27 26 21 18 25 25 24 25 25 25 27 32 33 34 31 26 32 33 32 34 36 39 37 36 34 34 36 38 41 41

GFSSE_700_spd_078.txt.gz
Wind_Speed
22 20 21 21 20 22 21 20 18 16 14 11 9 8 7 8 8 9 13 16 15 15 15 15 15 16 15 16 16 15 15 14 14 13 12 11 10 10 9 8 6 5 5
28 17 23 23 23 22 22 21 20 18 15 12 9 6 6 7 8 12 15 16 15 15 16 16 17 17 16 15 14 13 13 11 11 11 12 11 10 10 9 8 7 6 5
24 18 21 22 22 22 22 23 21 19 16 13 10 6 5 6 10 16 17 15 16 16 16 17 17 16 16 14 13 12 12 11 8 10 15 12 11 11 10 10 10 9 8
8 16 20 22 23 23 24 25 23 20 17 14 10 7 6 8 15 18 17 16 16 16 16 16 16 15 13 12 13 12 12 12 13 14 17 14 13 12 12 11 10 9 9
14 14 21 24 27 27 27 26 24 21 19 15 12 8 8 13 19 19 18 16 15 16 16 16 16 13 13 13 14 15 14 13 12 12 12 12 11 11 11 10 10 10 10
21 21 25 27 29 28 26 25 23 22 19 16 12 9 11 17 20 19 17 16 15 15 15 15 13 12 12 12 13 13 14 14 12 12 9 10 10 10 10 11 12 11 11
22 21 26 28 26 25 23 21 22 21 19 16 13 10 15 19 19 18 18 16 15 14 13 13 11 10 10 10 11 11 11 10 8 10 10 10 11 11 11 12 11 11 11
29 28 26 28 27 26 25 25 24 22 19 16 13 13 18 20 20 19 17 16 14 13 12 11 9 8 7 7 8 9 8 8 7 12 12 11 11 12 12 11 11 12 12
35 36 27 32 31 29 29 28 26 24 21 18 15 19 21 22 20 19 17 15 13 11 10 9 7 6 5 5 6 6 7 9 6 12 11 10 10 10 10 10 10 12 13
13 19 38 35 34 31 29 29 28 27 25 20 20 23 24 23 23 19 17 14 13 12 9 7 5 4 1 3 4 4 5 7 11 10 9 10 11 9 10 11 12 12 14
15 13 5 18 36 34 34 35 33 29 25 24 26 25 25 23 17 17 17 15 12 8 8 5 3 2 1 3 4 6 7 10 11 9 9 10 10 10 11 12 14 15 16
11 7 7 1 19 30 35 38 37 32 30 29 27 24 20 19 24 21 19 14 12 8 5 4 4 2 3 5 6 8 10 9 11 8 9 11 12 12 13 14 15 18 18
12 11 10 12 21 35 37 33 48 49 43 39 40 34 26 26 23 19 15 13 8 6 7 5 5 4 7 10 11 11 10 8 11 8 10 11 12 13 14 15 17 20 22
10 7 8 17 27 29 34 33 28 28 36 50 36 34 35 25 22 17 14 10 9 9 8 8 5 7 10 12 11 10 8 8 13 9 9 11 13 16 19 20 22 22 23
11 13 11 24 30 30 32 24 32 35 39 37 32 32 27 22 19 15 13 12 11 11 10 7 8 9 11 10 8 6 6 8 11 10 10 13 16 21 24 25 26 25 25
10 9 16 18 18 25 32 36 32 27 38 33 33 33 29 30 21 16 13 11 11 11 9 9 10 11 10 8 8 9 10 10 10 16 13 17 20 24 25 28 30 30 27
8 9 15 17 26 45 44 39 38 31 34 39 41 33 26 23 16 17 13 12 12 9 9 10 12 11 9 10 10 12 9 9 10 14 22 20 23 26 28 29 30 31 30
9 11 17 29 31 30 29 26 25 16 37 44 39 29 24 18 16 16 14 14 11 9 10 11 10 10 11 12 14 14 12 10 13 10 17 25 32 37 34 28 28 31 31
10 17 20 16 21 17 18 15 15 25 34 27 23 16 14 17 19 18 16 15 11 11 11 11 10 12 13 15 15 15 15 16 14 16 23 23 28 29 35 36 32 33 32
14 20 9 24 29 28 30 33 30 30 27 22 20 19 18 19 19 17 18 13 15 14 12 12 12 14 15 14 17 19 17 15 20 26 24 28 34 33 29 32 35 36 34
23 24 23 17 18 18 19 20 23 22 23 23 22 21 20 19 19 18 19 16 16 15 13 14 14 15 16 15 16 17 22 24 24 27 27 31 35 32 34 36 32 31 34
19 24 22 17 13 13 13 15 18 18 19 19 18 18 18 19 19 18 20 17 19 17 15 16 15 18 21 19 18 21 23 27 27 25 31 36 35 32 33 34 37 36 33
17 18 18 17 15 14 15 17 17 17 16 16 16 17 17 18 18 20 21 18 21 20 17 18 18 21 23 23 20 23 23 21 25 28 33 37 38 41 39 35 33 34 35
14 15 14 14 16 15 15 15 15 13 12 12 15 17 17 18 21 20 23 24 23 23 21 21 22 23 22 28 29 28 27 30 28 30 30 33 35 40 41 42 41 38 35
14 13 14 17 17 18 17 16 16 15 16 17 18 17 18 22 23 20 21 25 26 25 26 24 25 24 26 26 30 35 31 28 31 34 37 34 35 35 35 36 38 38 42
16 17 17 16 16 18 20 20 20 19 20 20 18 18 22 24 24 25 23 26 29 29 31 29 26 27 29 29 30 31 32 34 35 33 35 37 38 36 34 35 34 36 39

GFSSE_700_spd_081.txt.gz
Wind_Speed
22 16 16 20 27 26 25 23 22 20 18 16 14 13 14 15 16 16 18 17 16 15 16 16 16 17 17 16 14 13 12 12 12 12 10 9 9 8 8 7 7 6 4
20 22 25 28 26 26 27 25 23 21 19 18 16 13 13 14 16 19 19 17 17 17 17 18 18 18 16 14 12 11 10 10 10 9 11 10 10 10 10 9 8 8 8
18 25 31 25 30 31 30 28 26 24 21 18 16 14 13 13 17 21 20 19 19 18 18 19 19 17 14 11 10 9 9 11 12 12 13 12 12 11 11 10 9 8 8
32 26 26 34 34 34 32 31 28 25 21 17 15 12 12 14 19 22 20 19 19 19 19 19 17 14 12 11 10 9 11 13 13 12 13 11 11 10 10 10 10 10 10
35 46 36 36 37 36 34 31 29 24 21 17 13 11 11 16 21 22 20 19 19 18 18 18 16 14 13 12 10 9 10 11 10 13 11 11 10 10 10 10 9 9 9
41 42 44 40 40 37 34 31 28 25 21 17 14 10 11 18 22 22 20 20 19 18 18 17 15 14 12 11 8 7 8 13 12 11 10 10 10 10 9 9 9 9 10
18 28 30 49 43 38 34 31 28 25 22 19 15 11 14 20 21 21 20 19 18 17 16 15 14 12 10 9 8 7 8 12 15 9 9 9 9 9 9 8 9 10 10
19 25 32 39 40 38 35 33 30 26 23 20 15 13 18 23 23 21 19 18 17 17 16 14 13 10 9 8 6 5 6 9 13 7 8 9 9 10 10 10 10 9 10
25 29 31 38 40 40 37 34 32 28 25 22 18 18 23 24 24 21 20 19 17 15 14 12 11 10 7 7 3 3 6 9 9 6 7 7 8 8 8 8 8 9 10
25 24 3 34 48 43 40 36 32 29 26 23 20 23 26 25 24 22 20 18 16 15 14 11 9 7 5 3 1 3 6 8 9 8 7 7 6 6 8 9 10 11 11
12 30 37 18 60 44 41 35 31 29 26 24 24 26 28 27 25 25 21 18 17 13 12 8 7 4 2 1 1 3 8 6 5 5 5 6 7 7 8 10 11 12 14
9 18 10 15 33 37 36 32 33 31 30 26 27 29 29 29 25 22 21 17 14 12 10 7 6 2 2 2 2 5 8 7 4 4 6 7 7 8 11 12 14 16 17
10 7 6 7 6 10 24 35 34 35 33 29 32 35 34 30 26 19 24 21 16 11 9 6 4 3 3 4 3 6 7 4 2 4 7 7 8 12 14 16 18 19 19
9 7 6 11 14 22 28 28 31 38 33 34 41 37 35 37 22 23 22 16 14 12 8 3 7 7 5 5 6 6 5 3 4 4 5 6 9 14 17 19 20 21 22
6 4 2 3 10 23 28 26 36 40 29 34 41 32 36 28 25 28 20 17 13 11 5 7 9 7 7 6 4 5 6 7 7 5 5 7 10 15 18 21 22 22 21
9 8 5 5 16 15 16 29 33 32 28 35 37 38 38 27 28 25 20 14 12 10 6 10 9 8 8 6 6 6 6 9 7 6 4 8 12 16 22 24 23 23 23
9 6 4 9 11 19 18 27 31 37 32 40 39 38 35 27 29 18 14 16 14 9 9 10 9 9 7 7 7 7 9 9 9 6 4 9 13 19 24 24 24 24 25
12 10 17 10 17 15 24 32 38 31 33 33 29 31 29 31 26 25 20 15 11 9 11 9 10 8 7 6 8 8 9 9 13 13 11 16 18 20 25 26 24 26 27
9 9 14 6 11 23 40 39 32 28 18 29 37 31 34 33 27 20 18 15 12 14 11 11 9 9 8 9 11 10 11 11 12 15 18 23 21 23 28 27 27 28 27
7 6 11 6 14 19 16 21 21 19 16 24 36 31 26 31 23 19 16 16 17 16 12 11 10 11 11 11 13 14 12 13 16 18 19 20 20 25 30 31 32 32 31
13 6 6 15 21 21 21 24 24 22 20 25 24 24 25 23 21 18 18 18 18 15 14 13 14 15 13 12 14 15 18 20 21 21 19 20 23 27 32 33 31 31 31
25 25 25 23 23 21 19 21 21 22 20 18 18 18 17 16 18 20 19 17 19 18 17 17 17 18 18 15 16 15 21 23 20 21 24 24 28 31 31 32 34 35 33
19 18 17 17 18 18 18 19 19 19 19 20 18 16 15 16 18 19 14 17 21 21 19 19 21 21 21 18 18 20 24 26 28 24 22 25 31 33 34 35 34 34 34
11 13 12 14 13 15 15 16 17 14 12 12 14 14 16 17 19 18 19 18 20 25 22 23 25 24 24 23 21 23 27 27 29 23 25 30 33 33 34 37 38 38 36
6 7 9 12 13 13 14 14 13 14 12 13 15 15 15 16 17 19 20 17 19 23 26 27 29 28 26 28 28 29 30 28 25 25 25 24 27 32 34 38 38 37 37
10 10 11 11 13 13 13 14 13 12 14 15 14 13 14 16 20 21 22 25 27 25 27 31 32 31 28 30 33 32 32 33 30 30 28 27 31 33 34 35 32 32 34

GFSSE_700_spd_084.txt.gz
Wind_Speed
19 18 16 35 24 29 24 33 31 28 25 23 22 19 19 18 16 14 16 16 15 14 14 15 14 14 13 13 12 11 11 10 9 9 9 7 7 6 6 6 6 6 5
15 12 17 20 27 35 34 33 31 28 26 24 21 20 19 18 17 18 19 17 16 16 16 16 15 14 13 11 10 10 9 9 9 8 9 8 7 7 8 7 7 7 7
12 19 23 23 33 37 36 35 32 28 25 22 21 20 18 17 18 20 18 18 18 18 18 17 15 13 12 11 10 9 8 8 8 8 9 9 8 8 8 7 7 7 6
14 20 25 31 38 38 38 37 33 30 26 22 19 17 16 18 20 21 19 18 18 19 18 17 15 13 11 10 11 9 7 8 7 8 9 8 8 8 7 8 7 7 7
8 17 23 32 33 34 39 37 34 29 25 21 17 15 14 18 22 21 20 19 19 18 18 16 14 11 10 11 13 12 10 9 7 9 9 8 7 7 7 7 8 7 7
17 11 24 36 43 33 46 38 35 31 26 22 19 16 17 21 24 23 21 21 20 18 16 14 12 10 7 8 9 10 10 8 7 8 7 7 7 7 7 7 7 8 8
16 19 20 31 30 33 54 40 37 32 28 25 21 19 18 23 24 23 22 21 19 18 16 14 12 8 4 5 6 8 12 7 8 8 7 7 7 7 7 8 8 8 8
16 21 23 27 42 39 60 44 40 35 32 27 23 19 20 24 25 24 22 21 19 17 14 12 10 7 3 1 6 8 9 6 6 7 6 6 6 7 8 8 8 9 10
18 25 26 31 49 58 42 49 44 39 33 29 23 21 25 27 26 25 23 21 19 17 15 13 10 7 4 2 3 5 4 6 6 5 4 5 7 7 7 8 9 10 12
19 17 23 43 46 37 66 54 47 38 33 29 25 25 28 29 28 26 24 22 20 18 16 13 12 9 5 3 4 3 5 6 5 3 4 5 5 6 7 8 10 11 11
14 15 20 23 33 34 65 53 50 39 34 30 27 29 31 31 30 27 26 23 21 19 16 14 11 5 4 3 6 5 4 5 4 3 4 5 5 6 8 10 11 13 13
10 10 21 13 29 61 52 51 41 39 35 30 29 31 33 31 30 29 27 23 19 15 12 11 7 5 3 4 6 5 3 2 2 2 3 4 5 7 9 10 13 15 16
12 6 3 6 33 44 49 47 42 38 34 31 30 31 33 34 36 35 27 18 15 14 14 11 9 5 5 6 6 6 2 1 1 3 3 2 4 7 9 12 14 16 16
10 5 6 5 16 17 33 37 36 29 31 33 33 34 39 40 35 30 24 17 20 18 11 8 6 4 5 8 9 5 0 1 2 3 1 2 3 6 9 14 16 16 18
6 6 7 12 14 11 22 25 29 36 35 35 34 36 40 36 33 26 24 20 19 18 10 11 7 5 7 10 9 3 2 3 4 3 2 1 3 7 12 16 16 18 17
6 5 6 10 14 16 22 33 34 35 38 40 27 35 40 29 31 28 26 19 19 14 13 11 8 6 10 11 5 5 5 7 6 4 3 3 4 8 14 17 19 20 20
11 5 7 11 10 10 24 33 36 39 25 32 32 41 32 32 29 33 29 22 19 14 12 11 8 9 12 9 7 6 7 8 9 6 6 7 7 12 14 17 19 21 21
7 4 4 1 14 6 25 32 30 37 36 34 41 42 40 36 32 33 23 22 18 13 13 12 9 11 11 8 9 9 9 10 10 11 12 14 15 15 15 17 20 23 23
8 10 15 12 11 21 17 21 29 35 34 36 36 40 33 36 37 25 25 21 18 15 15 13 11 11 12 12 11 9 12 12 9 10 13 16 18 19 17 19 23 24 24
14 15 14 22 13 16 21 27 39 41 28 28 22 26 33 33 32 26 27 25 19 17 16 13 14 15 15 13 12 11 10 11 14 15 17 18 18 16 17 22 25 26 24
13 16 15 16 15 22 23 21 25 22 19 22 21 28 33 27 27 32 27 24 19 17 16 17 17 16 15 14 14 13 13 14 15 17 19 21 21 20 20 22 25 29 26
15 19 19 18 19 15 12 17 22 22 20 22 27 28 28 30 32 28 27 22 16 18 17 18 19 19 17 18 17 18 18 18 19 21 23 23 21 19 22 26 27 30 30
19 19 19 20 20 22 24 26 27 29 29 28 29 31 30 27 27 27 25 21 18 18 19 21 22 23 21 21 21 20 21 23 22 23 26 25 23 24 24 25 27 31 33
13 14 16 18 18 18 19 19 19 20 19 23 27 25 26 27 29 23 20 19 19 20 23 21 24 25 26 24 25 25 25 27 27 30 28 24 24 26 26 27 31 34 36
7 10 12 13 15 16 15 15 14 16 15 15 17 19 21 21 22 23 20 21 21 23 23 23 24 28 29 29 30 29 31 31 31 33 32 30 33 31 30 32 33 36 37
9 9 10 11 11 11 12 13 12 12 14 16 17 16 17 18 17 19 18 18 19 23 25 25 25 30 33 35 36 35 35 34 34 34 36 34 33 31 32 33 35 36 38

GFSSE_700_spd_087.txt.gz
Wind_Speed
15 24 21 22 21 18 26 29 25 26 28 29 27 22 18 14 11 10 11 14 12 11 10 10 11 11 11 10 10 9 9 8 7 7 7 8 8 7 8 8 7 6 6
11 18 26 27 28 24 23 24 29 24 32 31 27 22 19 16 13 13 14 14 13 11 11 12 13 12 11 9 7 6 6 6 6 6 7 7 7 7 7 7 7 7 7
17 20 18 20 20 22 23 21 27 36 23 31 27 24 20 16 14 15 16 15 14 13 13 13 14 12 10 8 6 5 5 5 5 7 8 8 7 7 7 6 7 7 7
11 14 17 17 20 27 28 29 35 33 31 29 26 21 17 15 15 18 18 17 17 15 15 14 13 12 9 6 5 5 5 5 5 6 6 6 6 5 6 5 6 6 6
16 16 19 24 18 28 29 39 37 33 31 27 23 20 18 18 20 20 20 18 18 16 15 13 12 12 10 9 8 7 6 6 6 5 5 5 5 5 5 6 6 6 6
17 17 24 27 25 31 30 39 36 35 31 27 25 22 21 22 22 22 20 20 18 17 15 14 13 14 12 9 7 6 5 5 6 5 5 5 6 5 6 6 6 6 6
13 17 23 24 30 30 41 33 43 38 34 30 27 24 22 24 24 24 22 20 19 16 15 13 13 12 10 8 7 6 8 6 5 5 4 4 4 5 6 6 7 7 8
16 18 22 26 30 31 46 37 39 42 38 33 31 24 24 27 27 26 23 22 20 18 16 14 13 11 9 7 6 6 4 6 5 4 3 4 4 6 6 7 9 10 11
16 17 22 24 26 40 46 40 33 43 43 34 30 25 26 29 29 27 25 24 22 19 16 12 9 9 8 4 4 4 2 2 3 3 3 4 5 7 8 9 10 10 11
10 12 16 16 25 29 33 43 39 52 36 40 31 26 31 33 31 28 26 24 22 18 15 12 9 7 5 3 2 1 0 2 2 3 2 3 5 7 8 9 10 11 12
19 19 13 18 27 33 41 43 56 56 42 39 30 30 35 35 32 31 27 25 23 21 17 12 7 4 3 3 2 1 4 4 3 4 3 3 5 6 7 8 9 10 12
17 15 17 17 41 46 51 52 39 47 49 37 34 35 37 36 35 33 30 27 24 21 15 12 7 4 5 2 4 5 8 4 2 3 3 4 5 5 5 7 9 12 13
15 13 14 25 21 58 61 65 63 44 39 40 36 37 40 39 37 34 33 32 29 17 14 10 6 7 4 3 3 6 8 4 3 1 3 5 4 2 3 7 10 11 12
9 12 8 8 12 35 47 58 51 47 42 39 36 37 39 37 38 40 35 30 20 15 15 12 11 7 9 4 5 6 6 4 2 1 2 5 3 1 3 7 10 13 15
7 6 8 2 15 25 45 48 49 44 39 35 36 38 39 41 41 33 30 25 24 19 14 16 10 9 10 6 7 7 7 5 4 3 4 6 5 4 4 8 10 14 16
7 9 9 9 13 12 30 38 46 41 40 42 37 39 39 40 38 26 27 24 22 18 16 14 10 13 12 9 8 8 8 6 6 6 7 8 8 7 8 10 10 14 18
13 5 11 12 11 17 17 25 30 35 35 34 41 40 35 38 32 25 28 22 23 18 19 15 11 13 13 10 8 10 9 7 7 7 9 12 11 10 12 14 15 18 22
9 8 9 17 14 18 22 29 30 35 36 41 39 39 39 39 27 30 29 26 25 20 19 13 12 13 12 9 11 12 11 9 8 10 12 13 14 15 16 17 18 19 22
11 12 10 9 15 15 21 25 37 27 39 44 44 34 40 34 32 32 30 26 25 22 17 14 14 14 14 12 14 13 12 10 11 11 10 11 14 16 18 21 20 19 19
11 12 17 11 13 16 11 33 25 26 37 41 36 34 38 41 38 28 32 32 28 23 17 16 17 16 14 14 15 15 14 12 12 13 12 12 15 18 19 20 20 19 18
13 9 14 19 21 15 24 23 26 30 34 33 37 37 40 33 33 33 34 29 24 20 17 20 19 16 14 15 17 17 17 17 16 14 14 15 16 20 22 24 22 21 20
16 17 17 14 19 16 24 19 23 23 19 27 33 27 26 26 35 38 31 28 22 23 23 22 18 17 18 16 17 19 21 20 20 20 19 20 21 22 20 23 24 25 26
15 15 15 15 17 16 17 20 21 24 26 26 29 29 27 29 38 38 34 26 25 24 25 22 21 20 21 21 21 23 24 23 22 24 24 25 26 26 24 26 29 31 30
10 12 13 15 18 19 24 25 25 27 25 25 29 29 28 31 32 33 31 27 25 27 28 26 23 20 21 24 25 26 28 27 28 30 28 29 31 31 30 32 33 32 35
8 10 11 13 15 19 21 20 20 20 21 24 25 25 25 27 31 29 26 28 31 32 28 25 22 22 19 22 27 29 32 33 33 33 31 31 35 35 34 34 36 35 35
3 6 8 9 11 13 16 18 20 20 20 21 22 22 25 27 26 26 26 24 27 28 27 26 22 26 26 24 29 32 37 36 36 35 36 33 37 37 36 34 36 35 38

GFSSE_700_spd_090.txt.gz
Wind_Speed
17 24 23 23 16 19 20 23 20 16 20 24 22 21 15 12 11 9 8 9 10 9 9 9 10 11 11 10 10 10 10 8 8 7 8 8 8 8 8 8 8 7 7
15 23 17 24 22 21 20 19 19 20 19 27 22 20 18 16 13 11 9 10 9 8 9 11 12 12 11 10 9 9 7 7 6 6 7 7 7 7 7 7 7 7 7
13 16 27 26 24 25 23 19 20 25 21 27 25 22 19 17 15 13 13 14 13 11 12 11 11 10 9 8 8 6 5 5 5 6 7 6 6 6 7 6 6 6 6
15 21 19 26 26 27 25 20 21 25 18 19 24 23 21 20 18 16 14 13 11 11 13 14 12 11 8 7 7 6 5 5 5 6 6 5 5 6 6 5 5 6 7
19 24 25 26 26 25 25 23 24 29 25 23 24 25 23 21 19 17 16 16 14 13 13 13 12 11 9 8 7 6 6 5 5 6 5 4 4 4 6 6 6 6 6
27 27 24 30 31 28 25 24 25 26 36 25 22 24 24 22 20 19 18 17 16 16 15 14 11 10 9 8 7 6 6 5 4 4 4 4 4 5 6 5 6 5 5
23 29 31 29 35 23 25 24 25 23 32 28 25 25 25 21 21 21 21 20 18 17 17 15 14 12 10 8 6 6 6 6 6 5 5 5 5 6 6 6 6 6 6
19 25 26 23 40 29 32 30 34 27 32 31 28 28 25 22 23 23 22 21 20 19 17 17 15 13 10 8 5 5 4 5 5 5 4 4 4 6 6 7 7 7 7
17 19 21 24 30 33 36 38 43 37 26 42 35 32 24 25 26 24 24 24 22 19 17 15 13 10 9 9 7 5 4 4 4 3 3 5 6 6 7 7 9 9 9
9 16 18 24 31 37 47 45 42 37 29 40 35 33 27 28 29 27 27 25 22 20 18 16 15 14 11 8 6 5 2 2 4 3 4 5 6 8 7 7 7 8 10
10 15 15 19 28 37 45 44 57 49 35 45 42 37 29 33 32 30 27 26 23 20 17 17 14 10 7 5 3 2 2 3 3 5 4 5 7 7 7 5 6 8 9
17 18 21 19 22 27 41 44 51 47 46 42 41 34 34 37 33 32 31 28 23 21 19 14 10 8 5 3 2 1 4 1 3 6 5 6 7 6 3 4 6 8 9
19 20 19 21 29 33 37 44 50 51 58 53 44 35 38 39 38 37 35 30 25 21 16 11 9 8 4 2 5 4 5 2 2 6 6 7 6 4 1 4 6 8 12
19 18 17 25 31 33 47 46 49 58 54 46 45 39 43 42 40 38 32 28 23 19 14 11 11 7 4 5 8 5 2 1 6 6 7 8 6 3 1 4 5 7 11
11 12 15 15 20 21 32 57 52 49 47 42 40 41 42 42 40 36 33 30 21 16 12 12 11 7 6 8 10 7 4 5 7 6 6 7 7 6 4 4 5 8 13
9 7 11 7 14 3 40 50 55 49 30 44 42 40 41 39 39 39 33 27 20 15 12 12 14 10 9 9 9 9 6 7 8 8 7 7 8 8 8 9 10 11 14
9 9 11 6 6 9 42 41 52 48 32 41 41 36 37 39 39 37 36 30 29 20 18 19 15 11 10 10 11 10 9 9 10 8 8 8 9 11 13 14 14 15 16
7 10 10 7 7 8 21 38 39 36 42 45 41 41 44 39 36 38 29 27 25 21 18 22 17 16 11 12 13 12 9 9 10 8 9 11 13 14 16 16 17 18 19
11 10 6 8 11 15 19 29 32 35 42 42 41 46 42 49 38 30 25 25 29 22 22 22 19 16 13 13 13 13 11 11 11 9 9 10 13 14 16 17 18 18 19
13 12 15 11 14 20 14 33 29 39 39 37 35 40 43 40 37 33 30 30 30 29 24 22 21 17 14 13 13 13 13 13 13 11 12 13 14 13 14 17 20 21 23
15 18 18 15 13 14 16 24 34 36 27 38 45 49 48 39 48 40 36 34 32 31 24 23 22 17 15 15 15 14 15 16 16 16 16 16 16 17 17 19 21 20 22
12 11 21 22 22 17 14 15 32 39 33 47 45 46 44 32 39 41 42 35 30 30 26 25 19 18 19 19 17 16 19 18 17 18 20 21 21 20 19 20 21 22 24
5 6 12 17 23 20 16 17 24 29 37 47 33 32 35 29 34 45 32 31 32 30 26 23 20 21 23 23 21 22 23 20 19 21 24 26 26 25 24 25 25 28 29
11 12 10 7 11 17 18 19 30 21 26 25 28 26 35 34 29 34 34 34 34 30 27 24 24 24 25 25 25 24 25 23 25 27 28 29 31 31 30 31 32 31 32
6 10 12 11 11 9 8 17 23 25 23 23 26 29 32 31 33 38 38 38 34 33 27 28 29 28 28 28 25 22 25 27 28 32 38 32 34 36 36 36 35 32 32
5 7 10 10 12 13 13 13 14 14 17 20 21 26 29 29 29 29 34 36 32 31 32 32 34 34 31 30 30 32 31 32 37 29 37 35 42 40 40 38 36 33 36

GFSSE_700_spd_096.txt.gz
Wind_Speed
9 8 15 19 24 21 14 14 17 11 15 12 5 5 3 4 3 2 3 8 11 12 12 11 11 11 11 10 10 10 10 10 9 9 8 8 8 8 8 7 7 6 6
13 11 18 21 23 24 14 15 19 14 19 12 10 9 9 7 6 2 3 8 12 12 11 10 11 12 12 11 10 10 9 9 8 8 8 7 8 8 8 8 8 6 6
10 14 18 25 28 26 22 23 19 24 17 18 15 15 13 13 7 4 4 9 10 10 10 10 11 12 11 11 9 9 9 8 7 7 8 6 7 7 6 6 6 5 5
15 15 19 26 31 30 26 25 21 24 20 17 18 22 16 12 12 8 7 10 11 9 10 12 12 11 10 9 8 8 8 7 7 7 7 6 5 5 5 5 5 5 6
18 21 24 28 36 33 32 30 26 26 27 20 21 19 15 12 14 11 8 10 11 11 12 13 12 11 10 10 10 8 8 7 6 6 4 4 4 4 4 5 5 5 5
23 25 26 29 40 41 31 33 31 29 26 23 23 16 17 14 14 12 10 10 13 13 14 13 12 11 10 9 8 8 7 6 4 3 2 2 2 2 3 4 4 4 4
25 27 29 39 48 44 38 37 34 27 25 27 25 23 15 16 14 13 10 13 15 15 14 13 11 11 10 8 7 6 5 3 2 1 1 1 1 2 4 4 4 3 3
25 29 26 36 43 35 41 39 35 27 27 30 27 23 21 15 14 13 12 15 15 15 15 14 14 12 9 7 6 4 3 2 2 0 2 3 3 4 6 6 5 4 3
23 26 22 27 46 41 44 38 34 29 30 31 30 25 20 17 13 13 13 17 17 19 18 16 14 12 9 7 6 4 3 2 3 4 3 4 5 5 6 6 5 4 4
18 20 20 20 13 46 38 39 39 36 33 30 29 28 16 20 20 13 14 18 20 19 17 16 14 10 9 6 3 1 1 4 3 4 5 5 6 6 7 6 4 3 3
16 15 19 16 13 29 30 30 41 39 39 31 30 28 22 18 21 15 18 20 21 20 18 16 14 11 7 5 3 2 2 3 4 3 4 5 7 8 7 4 2 2 4
24 22 17 13 10 18 18 36 40 31 35 35 34 32 29 24 26 22 22 23 23 22 20 17 14 11 9 6 4 1 2 4 4 5 7 7 8 8 5 2 1 3 5
23 26 23 17 19 15 22 32 45 40 39 40 35 35 31 30 32 23 26 28 28 25 23 20 15 12 10 6 3 2 2 4 5 7 8 9 9 8 6 4 3 3 3
21 13 22 22 21 20 20 30 36 38 42 41 41 39 34 35 37 29 28 29 29 28 24 18 15 12 10 8 5 3 3 3 3 6 8 10 11 9 8 6 6 6 3
16 11 20 26 26 26 20 23 31 36 43 41 40 40 34 38 40 32 30 31 31 28 23 19 17 13 12 9 5 4 3 4 5 8 9 10 11 11 10 8 8 9 9
15 12 14 25 29 29 32 28 33 41 46 51 44 37 40 39 38 38 31 32 31 27 24 20 16 14 11 8 4 8 6 5 7 9 9 10 11 12 11 11 12 12 12
15 13 13 14 18 25 31 35 40 39 37 47 50 40 41 45 40 43 34 33 32 28 25 21 17 14 12 7 9 11 10 7 9 10 9 10 10 12 12 13 15 14 15
17 11 14 12 17 21 26 34 40 48 55 44 45 47 43 48 43 43 38 35 34 29 25 19 18 17 13 11 13 13 10 9 9 10 11 9 10 12 14 15 16 15 15
17 13 14 15 13 18 18 20 19 48 50 48 41 46 39 47 42 36 38 36 33 32 26 23 20 15 15 15 18 15 12 11 11 12 12 10 12 13 13 15 15 15 15
13 13 14 13 10 6 13 13 8 34 50 53 46 42 46 47 38 37 39 35 34 32 28 28 22 18 19 23 18 16 13 14 13 14 13 13 13 14 15 14 16 16 17
5 11 10 11 8 2 7 9 15 32 42 42 39 47 39 41 35 42 36 37 36 32 27 25 20 18 23 20 20 17 17 16 15 16 16 16 16 17 17 18 19 20 20
3 10 12 10 8 6 7 12 21 23 25 36 42 40 38 38 41 38 38 35 36 32 27 26 25 23 22 21 21 21 21 20 16 16 18 19 19 21 21 22 23 24 27
7 9 11 14 8 7 7 8 18 23 27 28 37 38 38 40 44 40 39 38 38 33 30 29 29 30 23 24 24 24 25 22 21 20 21 23 23 24 26 26 27 29 31
6 2 11 15 15 9 13 9 12 14 13 22 30 28 38 36 44 51 44 43 40 33 37 36 34 31 26 26 29 28 26 26 25 29 25 26 28 27 28 29 32 32 33
2 4 2 5 14 20 20 20 18 12 19 16 21 23 27 32 35 42 47 51 45 42 45 43 35 31 27 28 31 30 29 29 29 31 32 33 32 31 32 35 37 36 36
1 3 5 5 3 9 19 20 18 17 21 25 17 24 21 34 28 40 33 42 40 42 43 44 35 32 30 29 33 34 34 33 33 34 38 41 39 41 33 39 40 38 44

GFSSE_700_spd_102.txt.gz
Wind_Speed
13 15 18 11 6 13 15 16 10 8 9 11 12 13 11 10 8 6 6 11 12 13 13 11 11 10 9 8 8 8 8 7 6 5 6 6 5 5 6 6 6 5 5
21 17 17 11 7 11 21 16 12 10 12 13 13 12 11 9 9 6 4 10 11 12 11 11 11 9 9 9 10 8 8 9 8 7 6 6 6 6 7 7 7 6 5
13 14 10 10 10 14 20 21 19 14 17 17 15 12 13 10 9 8 6 9 12 12 11 11 9 10 9 9 10 11 9 8 7 6 7 7 7 7 8 7 7 6 6
13 19 10 10 10 15 22 26 21 15 19 19 20 21 21 15 12 8 7 8 13 12 10 10 9 11 12 12 12 11 10 9 8 8 8 7 7 7 7 7 6 7 7
16 16 16 13 14 16 22 26 29 22 23 22 28 21 19 20 15 6 7 8 13 11 10 10 11 12 13 13 10 10 9 8 7 8 7 7 6 5 6 7 7 8 7
18 17 14 15 15 20 23 29 33 34 27 27 32 19 15 18 15 5 4 8 11 12 12 11 13 12 12 13 12 10 7 5 5 8 7 6 6 6 7 7 6 5 4
19 18 14 18 19 21 21 27 33 40 38 32 29 20 25 30 19 8 5 11 12 13 14 13 12 13 13 12 11 9 7 6 5 6 6 6 7 8 8 7 7 5 4
23 20 19 20 21 19 22 31 33 43 44 36 35 28 23 25 24 13 6 3 7 15 17 15 13 13 13 12 11 8 5 3 4 6 6 6 7 7 7 7 6 6 5
25 24 23 23 26 29 31 31 38 45 39 40 39 32 40 22 15 21 15 11 7 6 13 15 15 14 13 11 10 8 6 4 4 6 6 7 7 8 7 7 6 5 5
25 26 27 27 29 33 35 32 40 47 42 42 42 38 32 25 23 18 15 14 15 14 15 15 15 13 12 10 9 8 7 5 5 5 6 6 5 6 6 5 6 3 3
23 25 28 29 32 32 31 35 46 53 55 50 50 43 35 22 25 18 15 15 18 19 18 16 16 14 12 11 10 8 5 4 4 5 4 4 6 6 5 4 4 3 4
30 26 28 32 30 27 23 19 21 40 48 50 47 44 35 26 20 22 17 19 21 21 20 19 16 14 12 11 9 7 3 2 5 3 4 4 5 6 5 4 4 4 4
28 31 29 31 27 20 16 13 10 21 28 42 54 42 39 29 26 27 22 24 24 24 22 22 19 16 13 10 9 7 5 2 5 2 4 5 6 7 7 5 4 4 4
28 30 28 28 25 13 12 8 15 1 28 55 55 51 34 33 26 28 28 27 25 25 24 21 19 17 14 11 9 8 6 4 5 1 2 4 7 8 8 6 6 5 4
26 28 28 25 22 12 12 7 2 2 39 39 40 40 35 32 28 23 27 25 25 26 24 23 22 18 14 13 10 7 4 3 3 0 3 6 8 9 8 9 8 8 7
25 27 28 23 17 14 11 11 10 9 12 25 42 40 36 33 30 26 27 28 27 27 26 24 22 18 16 14 12 7 5 3 1 2 6 7 9 10 11 11 12 11 11
23 26 29 25 15 14 17 16 15 15 15 24 31 37 38 36 33 30 28 30 30 29 27 27 24 20 18 16 13 10 5 4 5 4 6 9 9 12 12 13 15 15 14
25 27 29 23 13 14 17 19 18 15 18 23 24 33 39 39 36 34 29 33 30 31 30 29 26 21 19 17 14 8 6 6 5 8 8 9 12 11 11 13 16 15 13
23 27 29 16 11 13 15 19 23 21 22 22 23 27 34 42 39 36 31 34 30 32 30 30 26 23 20 18 14 10 7 8 8 9 14 11 9 10 11 14 14 13 13
21 24 23 9 9 12 14 16 18 23 27 30 32 29 28 39 39 43 38 37 32 35 32 32 28 25 20 17 15 11 10 12 12 12 13 16 13 11 11 12 14 13 15
20 21 16 5 10 13 15 15 18 22 30 34 35 36 33 40 40 36 42 42 39 36 37 39 28 27 25 21 19 17 13 14 13 14 13 14 14 14 16 15 15 17 18
18 17 13 6 7 11 13 15 21 24 27 31 41 41 40 36 44 38 41 45 47 43 43 32 30 28 25 22 19 17 16 18 15 15 16 15 15 16 14 18 19 18 21
15 13 10 7 9 11 12 12 9 11 16 33 37 38 34 34 43 42 38 41 39 44 39 34 30 28 25 20 24 19 21 19 22 21 18 19 19 17 18 18 21 25 26
12 11 8 7 6 9 10 9 5 3 5 10 30 42 43 35 39 36 43 40 39 40 33 34 30 31 26 26 24 20 25 23 27 27 24 21 21 21 23 24 24 25 29
10 10 5 5 5 6 7 7 3 3 5 5 23 36 33 40 34 28 33 40 34 32 37 37 45 34 35 30 27 28 28 29 31 28 29 28 28 27 27 28 27 30 32
10 9 4 3 4 4 3 9 4 10 10 12 19 23 29 30 30 37 44 42 35 31 37 49 41 36 31 31 36 38 33 33 33 31 31 31 34 35 34 36 38 39 42

GFSSE_700_spd_105.txt.gz
Wind_Speed
7 11 13 15 13 6 8 12 14 16 11 12 13 13 15 16 16 14 14 16 16 15 14 13 12 10 10 9 9 8 9 10 9 7 6 7 7 8 8 8 9 8 7
17 18 19 20 12 8 10 16 18 15 14 11 14 15 15 14 12 11 11 15 16 15 15 14 13 12 10 10 10 10 9 8 8 8 6 7 8 8 8 9 8 8 8
23 24 19 15 11 10 11 19 18 14 11 17 20 18 16 13 11 9 9 13 16 16 15 15 13 11 12 10 10 10 10 7 8 9 9 8 8 9 9 8 8 7 6
24 20 18 14 12 12 15 21 24 19 16 22 22 21 20 19 13 11 10 13 16 16 15 14 14 13 13 13 12 11 11 12 10 10 9 9 8 7 8 7 7 6 6
21 20 15 12 14 13 15 19 25 22 19 28 25 24 24 22 16 13 13 13 16 17 15 16 16 15 13 12 13 12 11 11 11 10 10 8 8 8 8 8 9 9 8
19 21 17 12 13 14 17 21 26 27 27 31 27 29 25 16 28 17 14 16 15 16 17 18 19 16 14 14 15 13 11 10 10 12 11 9 8 8 9 9 8 7 6
22 23 17 16 15 16 19 22 28 31 32 31 33 35 34 31 32 22 15 16 17 16 19 19 18 16 13 14 12 11 11 11 11 10 9 8 8 8 9 9 7 6 5
28 27 21 19 19 19 19 21 24 28 33 34 37 34 31 27 29 18 16 16 19 19 19 18 18 15 15 14 11 10 10 8 8 9 8 8 9 9 8 8 7 6 5
27 23 21 20 20 21 23 26 30 33 34 37 48 34 36 31 31 14 18 16 19 22 21 19 20 19 17 15 13 12 10 11 8 8 9 10 9 9 10 9 9 8 6
24 21 21 20 21 24 27 31 34 37 38 43 47 48 42 32 26 25 16 15 16 20 23 20 19 18 17 16 14 9 9 10 9 9 9 9 9 9 9 9 8 7 5
24 21 22 21 24 26 29 30 32 34 40 45 51 43 44 36 26 29 23 20 19 19 18 13 17 17 17 14 11 8 9 10 10 9 8 9 9 9 8 7 6 5 4
27 25 22 22 26 27 27 21 23 28 42 49 51 46 47 40 28 28 25 25 25 24 29 22 21 20 16 13 11 10 9 10 10 10 10 9 8 9 8 6 6 7 4
29 28 25 27 28 27 18 14 21 32 26 56 51 47 43 39 34 30 30 29 28 27 26 27 24 20 18 14 12 11 9 11 10 9 7 7 9 10 9 7 5 5 6
28 29 25 27 29 27 13 9 13 12 15 38 57 51 47 43 40 35 30 27 29 29 28 27 24 21 18 15 12 10 9 6 6 5 6 7 8 9 8 6 6 5 5
26 27 25 27 29 25 12 6 9 13 11 17 47 60 46 38 37 34 31 29 31 31 29 28 26 22 19 16 15 12 10 7 5 3 3 5 8 8 7 8 8 8 6
26 25 25 27 28 22 10 6 5 6 18 31 38 46 54 41 32 31 35 31 31 30 30 28 26 23 19 17 16 14 10 7 4 0 2 4 6 6 7 10 10 9 8
22 22 25 28 29 16 11 7 5 3 6 14 33 42 43 35 34 29 31 30 30 31 31 30 28 25 21 20 18 14 11 7 3 2 3 3 5 6 8 11 12 11 11
22 23 25 29 24 10 12 10 7 5 7 17 30 46 39 39 34 30 26 31 30 33 33 32 30 25 23 22 18 14 10 8 6 4 2 4 5 8 9 11 12 13 12
21 23 24 26 14 8 11 14 14 11 9 17 26 31 35 37 37 34 31 28 32 33 34 33 31 28 25 22 19 17 12 9 7 6 6 4 6 7 9 11 11 12 11
21 22 24 20 5 8 10 12 15 19 17 17 22 26 25 35 35 34 35 33 32 36 34 34 32 28 24 22 21 18 14 12 9 7 8 10 5 7 9 10 10 9 10
22 23 22 16 3 8 10 11 13 17 20 25 28 30 32 35 38 39 40 36 34 37 37 35 34 30 28 26 24 22 18 14 10 11 13 13 10 7 8 9 9 10 11
20 22 20 14 7 7 10 12 13 17 20 22 28 34 35 33 31 40 42 40 39 39 38 37 36 33 29 29 27 24 20 15 12 13 11 13 14 11 9 9 8 9 12
20 20 18 13 7 8 9 13 16 21 26 34 35 37 40 39 35 40 43 43 39 40 40 35 38 32 31 30 27 25 18 17 15 14 15 15 15 15 15 14 14 14 15
22 17 15 12 8 7 10 14 13 18 19 22 30 43 45 43 35 39 40 44 42 38 42 39 33 35 30 28 30 23 24 21 19 18 18 20 20 18 17 17 21 21 22
21 17 12 9 8 6 8 13 12 13 16 15 26 42 49 46 41 44 42 42 37 40 42 38 40 42 35 35 29 26 23 24 20 22 24 24 26 24 24 24 25 26 26
18 16 10 7 6 6 6 11 9 9 9 8 22 32 39 38 35 41 44 47 33 37 40 40 40 41 40 44 40 40 28 26 26 29 30 30 30 28 29 29 29 30 32

GFSSE_700_spd_111.txt.gz
Wind_Speed
3 4 8 13 17 17 17 11 12 12 13 15 17 19 19 18 16 16 15 15 15 13 12 14 13 13 12 11 10 10 10 7 9 10 10 9 8 8 8 8 7 6 7
9 12 17 20 16 12 12 12 11 13 16 17 17 19 20 20 20 20 19 18 17 16 14 14 14 14 12 12 11 10 10 10 10 8 8 8 8 8 7 8 7 7 7
16 19 20 12 12 11 10 13 14 17 20 20 20 19 19 20 20 20 18 16 17 18 17 16 16 16 14 13 11 11 11 10 9 9 8 7 7 7 7 6 7 7 7
15 18 15 12 14 12 11 13 16 19 21 21 21 21 22 21 20 19 17 17 18 20 18 18 19 18 16 15 15 14 12 11 10 8 8 8 7 6 6 6 5 5 5
16 17 14 15 16 14 12 13 17 18 22 23 23 23 20 18 17 17 17 18 18 19 19 19 19 19 18 17 15 12 11 11 11 10 9 7 7 6 6 5 6 5 5
16 14 16 18 18 12 12 14 18 20 24 24 25 25 23 24 19 17 17 17 19 19 19 20 20 19 17 15 13 11 10 10 11 11 10 8 6 6 5 4 6 7 7
13 12 14 17 15 12 13 15 17 20 26 27 31 27 25 32 34 22 17 17 22 21 22 22 21 19 17 15 13 12 12 11 9 10 9 10 6 5 6 9 8 8 7
13 12 17 18 15 14 15 17 20 22 25 29 33 41 29 40 30 19 22 14 24 24 24 23 21 18 17 15 14 12 10 9 11 10 10 9 9 9 10 9 8 7 6
15 15 18 18 16 17 17 17 20 24 26 29 34 36 38 38 34 39 26 16 30 28 26 22 20 19 18 16 15 13 12 11 6 8 11 10 11 11 10 9 6 5 4
20 18 18 20 18 18 19 20 20 23 29 32 33 36 37 39 38 39 22 21 26 28 24 23 22 21 16 16 16 18 13 10 15 14 12 12 11 9 8 8 6 5 4
18 20 19 21 21 20 21 22 23 24 30 35 37 36 37 37 36 27 21 30 27 26 27 25 23 21 20 21 20 15 10 12 15 13 12 8 10 9 9 7 6 5 4
18 21 22 24 24 21 23 25 26 27 31 38 42 41 41 38 34 28 27 34 27 28 29 27 25 21 19 22 14 14 17 16 14 12 10 10 10 9 8 7 7 7 6
17 24 24 30 25 23 24 27 29 31 32 38 41 43 40 39 38 34 29 36 32 34 34 31 28 23 21 18 17 16 15 13 11 12 12 12 10 9 9 7 7 6 6
24 26 28 27 24 24 26 30 32 32 34 32 31 36 42 45 43 37 32 31 41 37 33 30 28 28 22 19 16 17 14 14 13 13 13 12 11 11 9 7 7 6 4
26 22 25 25 23 25 28 32 34 35 29 26 25 33 41 41 42 43 44 35 40 39 35 33 31 27 22 14 18 16 16 14 13 13 12 10 9 9 9 9 9 7 8
29 26 27 26 23 26 29 35 35 33 24 27 30 32 40 41 42 45 44 42 42 39 37 35 31 27 25 23 20 18 15 13 14 14 11 9 9 11 11 10 9 11 10
31 30 30 26 24 26 30 35 33 21 22 23 25 28 31 45 45 40 33 50 45 41 39 37 32 30 25 23 23 18 17 17 15 12 10 10 10 12 12 11 12 12 13
34 28 30 28 25 25 30 33 18 17 20 26 27 32 29 42 47 49 40 48 46 44 40 39 35 32 27 26 22 21 20 16 15 11 10 10 10 11 12 14 14 14 13
22 27 31 27 26 24 28 25 15 17 16 13 19 27 31 37 47 43 45 49 44 43 41 38 35 32 29 28 25 23 21 19 16 12 11 9 9 11 13 12 12 11 11
19 26 28 28 25 24 25 21 17 20 14 8 11 19 35 45 40 48 49 48 46 43 42 40 39 35 31 29 26 24 23 21 17 15 12 10 11 12 11 11 11 11 11
24 26 26 27 23 22 24 19 18 20 14 5 6 18 40 45 40 46 48 45 43 43 42 41 39 37 37 33 29 28 27 24 20 18 13 12 13 13 11 11 10 11 11
27 28 24 26 22 20 23 18 19 18 13 10 8 8 25 35 42 50 47 45 43 42 44 42 41 40 39 34 32 29 29 28 24 20 17 14 11 13 12 10 10 11 11
27 27 25 24 21 19 22 18 18 19 17 17 18 19 14 31 38 39 41 42 42 41 41 40 40 41 39 38 35 33 33 31 25 24 20 19 15 14 13 12 12 12 12
18 24 26 24 19 19 21 18 16 18 18 16 20 21 23 23 38 46 45 43 41 42 41 40 41 40 39 41 38 36 33 30 27 29 24 22 16 17 14 12 14 14 16
24 22 26 24 18 19 19 17 17 18 19 19 21 22 24 28 37 36 45 43 45 45 44 41 43 44 42 41 39 39 36 32 31 30 29 22 24 22 21 17 17 18 19
29 28 27 25 18 19 18 17 17 18 21 23 23 26 28 31 38 40 43 46 47 48 48 45 42 44 44 42 41 39 35 35 34 37 34 28 29 25 22 22 22 23 23

GFSSE_700_spd_114.txt.gz
Wind_Speed
9 9 10 12 14 14 16 15 14 11 10 11 13 16 18 19 18 15 13 12 10 10 11 13 13 12 12 11 10 10 9 6 9 9 8 7 7 6 6 7 6 5 6
7 11 15 17 13 10 9 9 10 10 10 12 15 17 19 20 20 17 16 14 13 12 11 12 14 13 11 10 10 10 9 7 7 7 7 6 6 6 6 5 5 5 5
11 13 16 15 7 6 6 6 8 11 12 15 18 18 19 20 21 20 18 15 16 16 14 13 14 15 13 12 12 11 10 9 9 9 8 8 6 6 6 5 5 6 4
12 14 12 9 10 9 8 6 7 11 13 17 19 19 19 20 21 20 19 16 17 16 16 15 15 16 15 14 14 13 12 10 9 9 8 6 5 5 6 6 6 6 5
12 12 10 12 12 11 8 7 8 11 14 18 19 20 20 19 18 18 17 15 15 17 18 18 17 17 16 15 14 13 11 12 11 10 8 7 7 5 6 7 5 5 6
12 6 9 14 14 11 9 9 9 13 16 18 24 24 23 17 15 20 18 17 15 17 17 19 17 17 16 15 13 13 12 11 10 9 8 8 7 7 4 5 5 5 5
12 10 10 13 14 11 10 10 10 13 17 22 25 22 17 21 23 24 21 18 16 17 18 19 18 17 16 14 14 13 12 12 10 9 8 8 8 7 7 7 6 6 6
10 12 12 13 15 13 10 11 11 14 18 21 27 29 36 29 21 26 15 25 23 19 19 20 20 18 15 14 15 14 12 11 10 9 8 9 7 6 5 5 8 7 6
11 13 15 16 17 14 13 12 13 14 19 22 26 28 35 35 26 30 32 22 22 19 19 21 21 16 16 16 16 14 13 12 11 9 9 8 7 5 7 8 8 7 7
14 15 16 18 18 16 15 15 15 17 20 23 26 28 31 31 29 34 33 27 23 21 19 21 21 18 19 19 18 17 15 14 14 14 11 8 5 10 10 10 8 7 6
15 14 16 19 20 19 16 17 18 20 24 25 26 29 30 30 30 35 29 23 26 23 22 22 23 22 22 21 19 16 16 15 11 11 9 8 12 12 9 8 8 6 4
17 16 16 19 21 22 19 18 21 24 27 28 30 31 32 34 34 32 28 25 29 26 26 25 26 24 23 24 22 22 17 13 12 10 10 15 13 11 10 8 6 5 3
18 19 20 19 20 23 21 20 22 25 29 31 32 33 33 34 35 33 29 28 28 28 27 30 29 26 24 21 21 20 16 10 10 10 14 13 12 10 8 6 6 4 4
23 18 22 19 19 23 23 22 24 27 30 33 33 36 34 34 35 35 31 31 28 29 33 31 30 27 24 22 22 17 14 13 12 14 15 12 9 9 8 8 8 6 6
25 23 20 19 22 23 25 23 26 30 33 35 35 32 31 34 33 38 34 33 32 26 38 34 31 29 27 25 21 18 15 14 16 15 13 11 10 10 10 8 7 7 6
28 25 26 26 27 26 28 27 28 32 35 37 32 25 25 25 30 39 39 39 31 31 38 35 33 32 29 26 23 19 13 16 15 14 13 11 12 11 11 10 8 8 7
33 30 27 29 28 29 28 31 30 33 34 27 21 24 27 28 36 36 40 39 38 31 39 38 36 34 31 28 24 19 17 16 15 15 13 12 12 12 12 10 10 10 10
32 31 28 30 29 29 28 31 30 31 25 18 18 24 28 32 29 32 37 43 39 37 45 41 39 35 31 26 23 20 18 18 17 15 14 14 13 13 12 11 10 13 11
30 30 25 22 28 28 30 31 29 28 20 17 19 24 30 38 39 34 40 36 46 45 46 44 40 37 32 30 25 20 20 21 18 15 15 14 12 13 11 10 12 13 12
30 25 23 23 27 28 29 30 27 26 20 18 19 23 25 34 35 35 44 38 45 47 48 44 41 36 33 30 27 24 24 23 20 19 17 13 12 12 9 10 11 13 13
31 26 24 22 26 25 27 28 25 22 19 17 19 21 21 27 41 51 43 48 37 48 45 43 38 36 36 33 29 28 28 25 24 21 17 15 13 12 8 7 10 12 13
28 26 26 26 24 24 25 27 24 21 18 17 17 16 11 22 32 36 45 43 44 48 48 45 42 42 39 34 32 30 28 28 27 23 19 15 12 10 6 9 14 15 14
26 28 28 30 26 23 25 24 22 21 17 19 17 14 4 23 30 30 42 44 48 47 47 46 43 41 38 36 33 33 32 33 26 24 20 19 20 13 11 10 14 14 13
28 23 24 29 27 25 25 22 21 21 14 15 17 16 7 12 32 33 44 48 48 47 46 45 42 41 39 40 37 37 33 30 28 26 23 19 21 19 17 18 18 17 15
21 27 21 21 25 27 24 22 20 21 14 15 17 17 17 15 14 36 47 50 49 45 45 44 44 43 41 38 36 35 33 32 28 28 24 23 27 24 23 22 22 19 19
15 20 25 24 26 28 24 22 20 20 16 16 19 19 19 20 19 21 39 42 43 44 45 45 44 44 43 40 38 38 36 31 31 33 33 37 31 26 27 27 27 28 25

GFSSE_700_spd_120.txt.gz
Wind_Speed
4 8 10 13 16 17 17 16 18 15 13 9 7 7 7 6 6 7 6 5 3 3 5 6 7 8 8 9 9 9 9 8 7 5 6 7 8 9 8 7 9 9 9
0 6 12 13 12 9 12 15 15 12 11 9 8 6 5 5 6 8 8 8 7 5 5 8 8 9 9 9 9 9 9 8 7 8 8 8 8 8 8 8 8 9 10
4 6 10 11 9 9 6 7 9 9 8 7 7 6 7 8 9 10 11 10 10 9 8 9 9 9 9 9 9 10 9 7 5 7 9 9 8 8 8 7 8 8 8
6 7 7 8 8 6 5 1 3 5 6 7 8 8 9 10 11 12 13 13 12 10 9 9 9 10 10 10 10 9 8 8 8 9 10 9 8 8 8 7 7 8 7
8 8 9 10 12 8 5 3 1 2 4 5 8 9 9 11 13 14 16 15 13 11 10 9 10 10 11 11 10 10 9 9 9 9 9 8 8 8 8 9 9 8 7
5 7 6 10 12 12 9 8 4 1 3 5 7 10 11 14 17 17 21 17 17 13 13 11 11 11 12 12 10 9 9 9 9 10 10 8 8 8 9 7 7 7 6
5 3 3 6 9 9 11 12 10 4 2 5 7 10 14 17 21 24 11 23 13 11 14 11 12 12 11 12 11 10 10 10 12 12 11 11 10 9 7 7 7 6 5
7 6 6 7 7 7 7 8 11 9 5 4 7 11 16 16 20 24 23 17 23 16 12 8 11 13 11 12 13 13 13 13 13 12 11 11 10 9 7 5 6 5 5
10 10 9 10 10 10 9 8 8 7 8 8 7 10 15 16 20 21 25 22 18 8 12 18 28 16 12 14 15 14 14 14 13 12 12 10 10 9 8 7 6 5 5
14 13 12 12 11 11 12 12 11 9 9 11 11 11 14 16 20 22 22 21 17 17 15 20 18 17 16 16 16 16 15 15 15 14 14 12 10 9 7 7 6 5 4
16 15 15 14 13 14 15 14 14 12 12 13 14 15 15 16 19 20 22 20 20 23 21 13 15 16 17 18 18 19 18 16 15 16 15 11 9 10 9 7 7 5 5
17 14 15 16 15 16 16 18 18 15 15 15 15 17 18 18 20 21 21 20 24 25 24 15 21 19 18 20 22 21 18 17 15 15 13 11 10 9 8 7 6 5 5
22 21 17 17 18 20 19 21 22 19 17 18 18 19 21 22 24 24 23 23 26 26 26 12 22 27 19 23 23 20 19 16 16 16 13 12 11 10 9 7 7 6 5
24 24 24 22 21 23 23 24 25 24 21 20 19 20 23 26 27 27 26 26 24 28 25 19 24 27 24 26 24 21 19 18 16 15 15 12 12 10 10 10 8 7 8
24 25 26 27 25 24 25 27 28 27 25 23 22 22 24 27 28 29 28 24 30 30 27 23 25 22 31 29 26 23 21 19 17 16 15 14 12 12 11 9 8 10 11
29 29 31 30 26 25 29 30 30 30 29 27 25 22 25 28 27 30 29 35 29 34 28 25 23 29 28 30 28 26 23 21 18 20 18 15 13 15 10 10 12 13 12
35 35 34 33 32 30 30 33 31 29 31 30 28 25 27 28 26 25 30 31 29 37 27 31 24 30 31 32 30 28 24 22 20 20 19 15 15 13 13 14 16 16 13
35 36 36 37 37 34 33 33 34 29 29 30 30 27 27 28 24 24 27 26 20 30 31 27 28 33 32 35 32 30 27 24 22 21 20 17 15 15 16 18 18 15 13
35 35 34 35 37 37 36 33 33 32 29 30 30 27 27 27 26 28 29 31 40 26 36 33 35 34 34 36 34 32 28 25 21 21 21 19 18 17 17 18 15 15 14
35 35 35 36 35 34 36 32 32 32 29 30 29 28 28 27 27 30 31 34 33 32 40 35 40 40 38 38 37 34 30 26 24 24 23 20 19 18 17 14 14 13 12
33 35 33 32 31 33 34 29 28 27 28 25 29 30 27 28 27 30 33 34 37 36 39 42 41 36 43 41 41 35 31 27 26 25 22 21 20 17 16 15 14 12 11
28 30 31 29 29 31 33 29 29 27 24 25 29 30 27 26 26 30 34 39 38 33 36 47 44 42 46 46 43 39 36 31 29 25 23 21 19 18 17 15 13 11 6
25 25 25 26 27 31 32 30 29 25 27 25 24 27 26 23 24 28 34 38 42 42 41 47 45 45 50 47 45 41 38 35 29 26 24 20 19 19 18 17 17 13 15
23 22 22 27 29 31 28 26 24 23 23 22 25 26 28 25 24 25 31 30 41 44 43 51 48 47 51 48 47 43 37 35 32 29 26 21 19 20 20 20 18 19 23
21 20 22 28 30 26 29 27 26 25 23 22 24 26 27 22 23 23 24 24 35 44 48 48 55 51 49 46 47 46 40 38 29 27 25 22 19 21 22 22 21 22 21
19 17 22 23 25 27 26 27 28 27 23 22 24 25 26 21 22 20 19 15 25 35 40 43 50 52 49 47 46 43 39 36 35 30 29 24 19 23 28 24 23 22 21

GFSSE_700_spd_123.txt.gz
Wind_Speed
3 3 8 12 15 17 20 20 19 16 15 12 9 6 7 5 5 4 4 3 3 1 4 5 5 5 6 6 6 6 5 5 5 4 4 6 8 7 5 5 6 6 8
11 3 9 13 11 6 7 11 15 17 14 10 8 5 7 7 6 6 5 5 5 4 6 6 7 7 5 5 5 4 5 5 5 6 5 7 7 8 7 6 6 7 8
12 7 7 9 8 7 6 5 7 11 10 8 6 6 7 6 6 5 6 8 7 7 9 8 8 8 7 7 6 5 7 5 4 6 8 9 8 8 9 9 8 9 9
10 8 9 11 9 7 7 5 4 5 7 7 7 6 7 6 7 8 8 10 11 11 11 9 9 9 8 8 7 6 4 4 5 6 10 10 9 9 9 8 7 8 8
9 7 7 9 11 10 8 7 4 3 4 7 8 8 8 9 9 9 10 15 14 12 13 12 10 10 9 8 8 6 5 5 4 2 13 11 9 8 8 8 7 8 8
7 5 4 5 9 9 9 8 6 1 3 4 6 8 9 10 12 13 11 23 7 13 14 14 9 10 9 10 8 6 6 6 6 9 18 8 7 7 7 7 7 6 3
6 3 2 3 6 7 6 8 6 3 1 3 5 7 9 10 10 14 18 28 14 18 3 10 10 11 11 11 9 8 9 10 13 12 17 10 10 10 9 7 5 4 4
10 6 4 4 5 5 6 6 5 3 0 3 5 6 9 9 11 12 17 21 19 15 16 21 9 8 10 10 11 11 12 11 12 12 14 10 10 9 8 8 6 6 5
12 10 8 7 8 8 8 7 6 4 4 4 5 6 8 10 13 14 17 19 16 15 13 8 8 12 12 13 12 13 14 14 15 12 15 11 10 10 9 8 7 7 6
16 13 13 11 10 10 10 10 9 8 7 7 8 8 8 10 14 17 16 17 15 16 10 9 12 16 18 17 14 15 15 15 13 15 12 12 11 9 8 8 7 6 5
22 18 16 15 15 13 14 11 12 12 10 9 11 11 11 14 16 18 19 16 15 16 16 19 17 11 15 18 16 16 17 17 14 12 19 11 10 9 7 7 7 6 5
26 23 21 19 17 17 17 14 13 14 15 12 12 13 15 16 18 20 21 18 18 19 19 19 14 14 14 19 19 18 19 18 15 16 13 12 10 9 10 9 7 7 7
28 27 26 22 20 20 20 18 18 17 18 16 14 15 17 19 19 20 21 23 21 21 24 24 22 16 17 19 21 19 21 20 15 18 13 12 12 12 10 10 11 10 7
24 31 29 27 25 25 25 23 21 22 21 21 19 17 18 20 21 22 23 25 24 24 25 26 28 25 24 22 23 22 23 17 19 20 13 13 14 12 13 13 10 7 7
33 33 32 30 30 28 28 27 25 26 23 25 25 22 20 21 23 24 24 27 26 27 26 30 25 17 18 22 21 22 22 22 21 20 14 14 15 14 14 12 10 10 8
35 34 35 35 34 32 31 30 28 28 28 26 28 26 24 24 24 25 24 27 29 28 26 32 26 22 17 31 19 23 25 24 20 19 16 16 17 16 15 13 13 12 10
23 26 35 38 37 36 33 33 28 29 30 31 29 27 27 25 26 26 24 24 28 27 33 27 23 26 20 28 28 27 26 24 21 18 16 17 18 18 15 15 14 11 10
24 26 34 30 41 40 39 38 35 32 28 33 31 28 27 27 27 27 26 25 22 28 35 22 29 23 21 28 28 29 29 25 23 21 18 19 20 18 15 13 13 12 11
24 32 38 39 40 40 39 43 40 35 31 31 34 29 27 27 28 29 28 27 24 27 25 24 30 36 30 33 30 32 31 29 24 23 21 22 22 19 15 15 12 13 14
31 32 32 32 33 35 35 36 40 38 32 30 33 31 27 27 30 31 30 28 29 30 31 32 31 30 35 31 32 34 32 29 26 24 24 25 25 21 18 15 16 15 15
29 30 30 30 31 33 35 35 36 35 28 29 30 31 26 27 29 31 31 29 29 34 33 31 28 38 40 34 37 36 34 30 28 27 25 25 24 21 18 16 15 15 15
26 28 28 29 30 30 32 32 36 31 27 28 29 27 27 26 28 30 30 30 30 29 33 31 42 43 42 39 43 42 39 31 30 28 25 26 25 22 19 16 16 15 12
26 25 26 27 28 26 30 32 32 29 29 31 29 28 25 24 28 31 30 31 29 32 35 37 38 43 41 47 44 43 41 39 33 30 27 25 24 22 19 18 17 16 13
23 23 24 23 24 27 27 29 28 29 31 31 28 24 25 24 26 29 31 31 30 31 37 40 41 36 46 47 47 41 38 37 37 32 30 27 25 22 19 18 19 20 19
21 22 22 22 24 27 27 30 28 29 30 29 29 28 25 24 25 27 30 29 27 32 39 35 33 39 55 44 51 46 43 38 35 33 30 28 27 23 21 20 21 20 21
16 20 21 20 23 25 27 30 30 30 30 31 30 26 25 24 24 27 29 24 26 29 38 36 41 45 57 45 50 48 45 43 38 31 30 28 26 24 21 21 22 21 22

GFSSE_700_spd_126.txt.gz
Wind_Speed
8 12 8 7 9 12 14 18 18 16 15 14 12 7 11 11 10 8 5 1 0 2 4 4 5 5 5 4 2 3 2 1 2 3 5 4 4 5 4 4 6 6 6
12 13 9 6 6 5 5 5 7 11 12 13 8 7 10 12 10 8 5 3 3 5 6 6 6 8 10 8 5 4 4 4 4 5 6 8 7 6 5 5 6 6 7
15 13 8 7 7 6 5 5 3 3 6 8 7 7 9 10 9 7 6 5 6 6 9 8 8 8 7 8 9 8 5 7 6 6 7 7 7 8 8 8 6 7 7
15 11 8 8 9 8 7 6 5 3 2 5 6 5 7 8 7 7 7 8 9 11 10 10 11 11 10 8 6 6 6 5 6 6 6 7 8 10 11 9 6 7 9
14 9 5 7 10 10 8 7 4 2 1 4 5 5 6 7 6 7 9 9 8 16 14 14 11 13 10 8 6 5 5 5 4 6 4 6 8 8 9 7 6 7 7
16 9 4 5 8 10 10 8 6 3 2 4 4 6 6 6 7 5 7 10 14 6 13 13 17 12 8 7 7 6 4 6 6 8 11 5 8 8 7 8 8 6 4
15 7 3 1 5 7 8 8 6 4 1 2 3 5 7 7 4 5 11 12 15 18 16 14 19 14 7 6 7 7 10 9 7 16 11 8 9 9 11 9 7 6 5
16 8 6 3 2 3 5 6 5 3 0 1 2 4 5 5 5 7 10 10 13 15 13 9 12 13 7 6 7 9 11 16 18 10 11 7 9 9 9 7 7 7 7
21 11 10 7 4 4 5 4 4 4 3 4 4 4 4 6 8 9 13 11 13 13 13 8 8 14 7 8 7 10 13 17 14 13 15 12 11 8 8 8 7 7 7
22 19 13 11 8 7 7 7 5 5 6 5 6 6 6 7 9 11 11 14 13 12 11 5 7 12 12 14 12 12 14 18 16 15 15 10 12 10 9 8 8 7 6
26 24 19 15 14 12 12 12 10 7 7 7 7 7 8 9 12 12 12 13 15 13 11 10 13 13 22 16 16 15 16 18 21 18 9 13 11 10 9 9 9 9 8
28 29 26 21 19 17 17 17 14 13 10 10 9 8 10 12 14 14 14 15 17 16 16 17 17 16 20 14 14 15 17 19 23 22 14 14 12 11 10 10 10 10 8
27 31 32 27 22 22 20 19 19 17 16 15 14 11 12 14 16 16 17 16 16 20 20 18 19 18 13 12 13 15 21 22 25 22 13 14 13 12 11 12 12 10 9
22 25 32 32 28 26 26 23 23 22 20 20 18 18 15 15 17 16 19 20 19 20 21 20 20 23 19 14 16 19 22 21 22 22 13 14 13 13 13 13 14 12 9
27 24 29 35 33 30 30 27 25 26 24 24 23 22 21 19 20 18 20 21 23 22 22 23 22 23 22 24 24 22 23 20 24 19 15 15 15 15 14 13 12 12 11
31 31 35 38 35 33 33 31 28 28 27 25 26 25 23 22 23 22 21 22 22 24 22 22 21 24 23 22 26 19 25 24 28 17 16 15 15 15 15 15 14 10 8
34 27 31 36 39 37 36 36 33 31 30 25 27 29 26 24 26 23 21 22 23 23 20 23 24 29 27 23 17 20 25 28 29 19 18 17 17 16 16 16 14 12 11
25 23 28 30 38 44 42 38 35 33 31 29 27 27 29 26 27 25 23 22 24 24 22 27 20 27 29 25 27 25 27 28 24 22 18 18 18 17 16 16 14 15 12
22 29 32 30 30 37 39 35 37 37 37 33 33 31 28 28 29 27 24 23 25 27 26 23 27 22 24 32 28 29 31 30 24 25 20 18 19 18 18 17 16 14 11
33 37 41 45 43 41 39 37 35 35 36 37 37 36 30 30 31 29 26 26 26 28 26 28 22 19 20 31 29 26 30 32 25 25 22 20 21 20 20 20 15 12 12
33 39 36 33 31 32 35 38 36 36 30 32 34 36 33 30 30 29 26 26 27 28 26 27 25 24 15 29 29 27 27 33 28 26 25 22 23 20 21 20 17 14 13
39 40 34 30 28 30 31 36 36 34 35 30 31 32 31 30 28 28 26 26 26 27 27 28 31 31 27 27 37 35 38 30 36 28 27 22 22 19 22 22 18 16 14
26 26 24 24 25 27 28 30 33 36 33 29 28 28 29 29 28 27 26 27 26 27 28 28 32 32 31 26 42 43 44 42 33 31 28 25 25 21 22 22 19 16 15
21 20 22 23 23 24 26 26 32 30 31 27 28 27 29 30 28 28 27 26 26 27 29 30 30 31 36 31 42 44 44 39 33 33 32 29 26 23 23 23 19 18 18
22 18 20 23 23 23 24 23 31 26 27 27 29 30 31 31 30 29 26 26 26 27 28 29 31 31 35 38 37 47 46 45 40 36 29 30 29 23 24 23 22 21 21
18 15 16 20 22 22 22 24 28 27 28 30 30 32 33 32 31 27 26 27 25 25 28 29 32 29 31 39 37 48 45 44 44 40 34 28 26 25 24 24 23 22 21

GFSSE_700_spd_129.txt.gz
Wind_Speed
6 8 13 10 6 6 8 12 15 16 14 12 11 10 8 13 11 9 6 4 3 3 4 4 6 7 10 9 6 5 6 5 3 4 4 3 4 5 4 4 6 7 7
9 12 16 13 7 3 4 4 6 10 14 13 9 7 9 14 12 9 7 5 3 5 5 5 5 7 7 6 8 9 4 7 2 5 5 6 6 6 6 6 7 8 9
11 14 16 12 6 1 1 1 2 4 6 6 5 6 9 12 12 10 10 8 7 6 8 8 8 7 7 9 7 7 9 9 7 5 6 7 8 8 7 8 6 7 7
15 14 15 9 4 5 4 3 3 3 4 4 6 7 10 11 11 10 10 6 4 3 8 13 13 8 8 8 7 8 9 10 9 7 8 7 7 8 10 8 5 6 7
12 13 12 6 4 6 6 5 4 3 4 5 6 6 8 10 9 6 4 5 7 7 17 17 17 12 9 8 7 8 8 8 6 7 7 8 8 9 9 9 6 6 6
13 12 9 4 4 5 7 7 6 4 4 3 5 7 7 8 6 5 6 5 10 14 10 14 7 21 19 10 7 8 9 8 6 6 9 7 8 9 10 10 10 8 7
14 12 8 6 3 4 4 6 7 5 3 3 3 4 6 7 7 6 2 5 8 11 10 10 18 22 24 14 8 7 8 9 7 4 9 5 7 8 9 10 9 8 7
17 14 9 8 5 3 3 4 7 5 3 1 2 3 4 6 8 6 3 4 6 9 11 10 6 25 23 14 9 10 11 13 11 15 7 2 8 11 12 9 8 7 7
23 17 10 9 7 5 4 4 4 4 3 1 4 4 4 6 7 7 7 6 6 8 9 11 5 20 17 14 11 12 13 16 13 16 13 4 10 12 11 8 8 8 8
21 20 17 13 10 9 7 7 6 5 3 2 3 5 6 6 6 6 7 7 8 9 8 7 6 14 18 12 11 16 17 17 15 13 10 6 13 12 11 9 9 9 9
24 21 23 18 14 14 12 12 10 9 7 4 4 5 5 6 7 8 8 9 9 10 10 10 10 11 7 11 11 17 21 21 19 17 15 10 13 13 11 10 10 10 10
26 24 26 26 20 18 17 16 16 14 12 9 7 6 5 6 7 9 11 12 12 13 13 15 12 15 12 11 15 22 25 19 22 19 17 10 14 12 11 10 11 11 10
25 23 27 27 26 23 20 20 19 19 17 15 12 11 9 9 9 8 9 12 13 14 15 15 15 13 14 14 13 20 25 24 23 18 17 14 15 14 12 11 11 11 11
29 30 34 30 31 31 26 23 22 22 21 19 17 16 15 14 13 11 10 11 13 14 15 16 17 14 16 17 11 18 24 25 21 22 13 12 15 13 12 12 14 13 11
31 30 31 32 32 31 31 27 26 25 24 22 21 21 21 19 18 18 15 13 14 14 13 15 17 17 16 18 17 17 22 23 22 26 15 15 17 14 13 14 16 15 14
31 31 33 32 34 33 30 29 28 29 28 26 24 22 24 23 21 21 20 15 15 15 12 11 20 19 18 20 22 22 24 24 23 25 16 17 17 15 14 14 16 16 13
30 31 36 35 36 35 33 32 31 31 32 30 29 25 24 25 24 24 23 18 16 16 14 12 17 14 16 21 22 27 27 28 28 23 19 18 15 14 14 16 17 15 12
37 34 39 41 37 32 35 36 36 34 35 35 31 26 24 24 24 27 26 21 18 18 15 14 20 22 18 21 24 27 22 25 27 24 18 16 17 16 15 16 17 13 12
31 36 38 33 33 33 35 36 34 36 35 34 32 29 27 28 25 26 27 23 20 20 19 18 18 21 26 12 24 30 26 30 29 23 20 19 18 17 17 17 16 15 12
36 36 38 33 34 34 36 38 35 30 30 35 36 34 32 32 29 28 28 26 22 20 22 20 18 22 20 11 23 25 29 31 29 25 22 22 21 20 19 18 17 16 15
32 33 34 35 32 34 37 44 45 36 30 31 32 34 33 34 33 33 31 28 23 22 22 22 19 21 23 17 11 31 35 31 32 28 25 24 22 21 20 20 20 19 19
38 39 40 43 43 43 44 46 44 41 34 31 32 33 32 33 34 33 33 29 25 23 23 23 22 22 23 27 12 20 29 32 37 29 30 27 24 23 22 22 21 20 19
38 35 39 42 44 44 45 42 41 41 39 33 30 31 33 34 35 32 32 29 27 24 23 24 23 22 25 29 33 25 33 38 36 33 33 29 26 24 24 23 22 21 21
37 38 37 35 34 35 32 33 34 33 36 32 27 26 27 30 33 32 30 27 27 26 24 24 24 23 27 32 35 32 29 38 41 35 30 32 29 26 24 23 22 24 24
29 35 31 27 24 24 23 25 27 27 29 25 27 26 27 30 33 33 31 31 29 27 26 24 26 23 28 33 34 37 33 38 41 42 33 34 32 28 24 24 25 26 27
29 22 23 19 19 24 23 23 26 26 25 26 25 26 28 31 33 34 34 32 30 27 26 26 26 26 27 31 33 39 44 36 39 47 41 29 27 27 25 25 27 29 30

GFSSE_700_spd_132.txt.gz
Wind_Speed
1 5 10 15 14 12 13 15 17 18 15 14 13 10 9 11 12 12 10 8 6 6 7 8 9 9 9 7 9 11 13 5 3 4 5 6 4 4 4 4 5 7 8
7 8 13 17 13 13 12 11 12 14 17 16 16 13 10 12 12 13 11 9 7 7 8 7 8 8 9 9 9 8 5 4 3 4 3 2 6 6 5 6 7 7 8
5 8 13 13 11 11 8 6 5 6 10 13 12 10 10 12 13 13 12 8 6 4 4 7 9 11 11 10 8 6 7 8 7 4 4 4 6 6 7 9 8 8 7
7 10 11 9 7 5 3 2 1 3 7 9 9 10 11 11 12 11 11 9 8 6 2 7 10 10 10 10 11 9 8 8 7 5 7 8 8 7 9 7 5 7 7
10 9 9 6 5 4 2 1 1 2 5 7 9 10 10 11 11 10 10 9 9 10 10 10 12 13 12 17 13 10 8 8 7 7 9 9 9 9 9 9 6 7 9
14 10 9 7 6 4 3 3 3 2 3 5 7 9 10 11 11 12 9 9 10 11 13 8 9 15 21 26 15 9 12 9 8 11 10 12 13 12 11 11 9 8 8
19 17 12 8 7 4 2 3 4 3 2 3 5 6 7 10 13 12 9 7 8 8 8 7 9 14 19 28 19 13 15 11 11 10 12 10 10 9 8 9 9 9 7
21 18 15 13 8 6 3 2 3 3 2 2 3 3 6 9 11 10 7 4 5 6 7 6 7 12 23 25 19 16 15 12 10 9 8 8 7 8 8 8 8 7 7
20 18 18 16 12 8 7 5 2 2 2 1 3 3 5 6 8 9 7 5 6 6 8 8 5 10 22 25 17 16 14 14 13 13 5 4 8 11 10 8 8 9 8
19 20 20 16 17 11 9 9 8 4 2 1 2 4 6 7 7 6 5 6 6 8 10 9 6 7 21 25 24 15 15 14 13 17 12 9 11 11 10 10 10 10 9
23 22 21 17 18 16 12 11 11 10 7 5 3 3 6 7 7 6 6 7 8 9 10 10 7 7 15 18 18 16 17 17 14 13 14 9 11 12 12 12 12 11 11
24 22 21 20 20 20 18 14 15 14 12 10 7 6 6 7 7 6 6 8 9 10 11 11 11 9 14 12 15 17 23 22 19 17 18 10 10 12 12 12 12 11 11
27 24 23 24 23 24 23 20 18 18 16 15 13 11 10 10 9 8 5 6 7 9 11 10 11 11 10 14 17 19 24 25 22 17 19 15 10 12 12 13 12 11 12
29 27 26 26 26 27 26 26 22 20 20 19 18 16 15 15 14 12 9 9 8 9 10 11 11 12 12 14 17 18 21 26 25 18 18 14 14 16 14 14 13 12 12
31 28 27 27 28 29 30 29 27 25 23 22 22 20 20 20 19 18 15 14 12 10 9 9 12 12 15 13 14 13 14 18 22 22 19 15 14 17 16 14 14 13 14
32 31 28 29 29 30 31 32 31 29 27 26 25 24 23 22 23 23 20 17 16 12 10 10 12 13 20 19 20 19 23 22 23 24 20 17 17 18 16 14 14 13 14
32 31 33 33 32 32 33 32 30 28 30 30 29 28 26 25 25 25 24 21 18 16 12 11 12 16 13 8 11 19 24 24 26 23 22 18 19 18 16 16 15 14 14
37 38 35 33 33 34 35 34 31 32 31 32 32 31 29 28 27 26 26 25 21 19 16 13 14 15 18 16 12 15 22 30 28 25 22 18 20 18 18 16 14 15 15
40 39 41 40 39 37 37 36 34 34 33 32 35 34 32 28 28 28 26 24 24 22 19 15 16 16 15 22 16 13 24 26 30 27 22 19 20 20 19 17 15 15 16
47 46 44 43 38 35 35 37 36 33 28 26 28 34 32 31 32 32 30 28 25 24 21 18 18 18 15 18 18 18 21 22 26 23 21 21 22 21 20 19 17 16 18
42 44 41 38 40 38 37 37 38 35 32 27 29 32 33 34 34 36 34 30 28 24 21 21 21 21 17 19 21 14 18 28 24 27 22 23 24 23 22 21 19 20 19
43 40 39 41 39 40 40 39 38 36 37 37 37 34 33 34 33 35 34 33 31 29 24 25 22 22 21 20 25 20 20 31 35 33 25 25 26 26 24 24 23 22 22
33 34 37 34 34 35 35 36 37 38 41 45 42 38 35 36 34 36 35 34 33 33 29 25 23 23 22 22 24 30 22 36 30 36 34 29 31 29 26 26 25 25 25
36 39 39 37 38 42 41 38 40 43 46 48 44 37 33 34 34 36 36 35 34 33 32 25 23 25 24 25 28 33 30 31 29 31 40 33 34 32 29 29 28 28 27
37 40 43 42 40 40 43 46 49 46 47 39 34 31 32 34 32 34 36 35 36 33 30 26 25 28 29 25 29 33 35 34 32 35 35 36 36 37 32 30 30 31 30
41 40 37 38 35 41 35 37 37 37 35 32 26 26 26 28 29 33 35 35 34 33 30 28 28 29 30 29 30 37 37 40 36 34 30 38 27 30 33 33 33 33 33

GFSSE_700_spd_135.txt.gz
Wind_Speed
4 0 4 9 14 14 13 16 19 20 19 19 15 13 11 10 10 10 11 10 7 5 6 6 7 7 8 10 10 8 11 12 9 6 6 2 4 4 6 4 3 4 5
3 4 6 11 14 14 13 14 16 17 19 18 15 14 12 12 10 10 10 9 6 5 5 6 7 8 9 9 8 9 13 20 18 1 1 3 4 4 4 5 5 6 6
5 3 10 13 14 12 12 10 11 12 12 14 16 15 13 11 9 8 10 9 8 7 5 5 7 9 11 11 10 10 11 11 7 2 4 3 3 3 4 6 6 5 6
3 5 6 10 10 8 8 7 7 6 6 9 11 11 11 10 10 11 11 12 10 9 7 5 7 10 12 13 12 8 6 8 6 4 4 6 5 4 5 6 6 7 7
6 6 5 5 6 9 7 5 5 3 4 6 8 9 9 9 10 11 12 11 11 11 11 11 8 10 15 14 13 11 8 7 6 8 6 6 6 7 9 9 6 7 9
9 6 9 7 7 9 8 6 3 1 1 3 5 7 7 9 10 11 11 9 10 11 12 13 10 11 16 17 20 24 11 8 6 8 6 7 9 10 9 9 8 7 9
14 13 12 11 11 10 7 6 4 2 1 1 3 4 6 9 11 11 10 10 10 11 9 10 11 11 18 22 17 18 13 11 9 8 7 9 11 10 9 8 8 7 8
14 14 13 16 16 13 6 6 5 2 2 1 1 3 5 8 10 11 10 7 7 5 5 8 10 12 13 18 16 18 14 10 10 9 9 6 7 9 8 6 7 8 6
15 14 15 17 14 12 8 6 4 2 2 2 1 2 4 6 8 9 9 8 6 5 7 10 11 10 12 16 20 20 13 15 14 14 9 4 6 9 11 7 7 8 7
18 17 17 19 18 13 12 9 5 4 2 1 1 1 4 6 7 7 8 8 6 6 7 10 13 10 8 16 22 22 16 18 15 12 12 3 3 7 9 9 8 9 9
25 22 20 19 18 16 14 12 9 7 5 3 2 1 2 5 6 7 8 9 7 7 8 10 11 9 6 12 15 16 20 19 13 15 13 6 6 10 11 12 9 9 9
27 25 22 19 18 19 17 16 14 11 10 8 8 5 3 5 6 7 7 8 8 7 8 9 9 9 8 12 15 13 18 21 14 12 13 12 8 10 14 12 10 10 9
22 22 21 22 22 22 20 20 19 16 14 12 12 11 8 7 8 9 8 7 6 7 7 8 8 8 10 13 15 15 17 21 20 16 17 16 12 9 13 11 9 9 10
24 26 24 25 26 26 26 25 23 21 18 16 15 16 15 12 11 12 11 11 10 9 8 8 8 9 13 15 17 19 18 17 24 20 20 18 15 11 13 12 10 10 10
30 26 23 23 21 25 30 30 28 26 24 21 20 20 20 19 17 16 16 16 14 13 10 10 8 11 14 19 18 20 14 16 19 20 19 15 14 14 15 14 12 10 11
34 33 30 27 26 25 25 28 30 30 28 26 25 25 24 23 22 21 21 20 18 16 14 12 12 11 16 21 22 21 15 15 16 18 20 17 16 15 17 15 12 11 12
31 30 34 32 30 29 28 27 28 29 29 28 28 29 29 26 26 24 24 24 22 19 18 16 16 12 16 19 15 20 12 18 20 19 20 19 18 18 18 16 13 12 13
39 36 28 36 34 33 33 32 30 31 30 30 29 29 30 30 29 28 27 26 24 23 22 20 18 16 13 17 17 15 12 9 23 23 23 22 20 19 19 17 14 13 14
46 42 34 37 37 36 35 34 34 33 30 32 36 33 32 32 31 30 29 28 26 26 25 24 22 19 15 15 18 24 16 16 21 28 26 24 19 19 21 18 15 14 15
43 40 38 39 39 37 38 37 35 33 34 35 36 34 30 31 33 32 32 30 29 28 27 27 25 21 19 16 14 21 29 17 23 25 25 26 22 21 23 18 16 15 16
56 48 35 41 41 39 41 39 39 42 37 39 35 28 26 24 27 30 31 32 33 33 27 27 27 25 24 20 17 24 23 18 19 20 30 27 21 21 22 19 18 17 18
38 42 57 40 42 40 38 38 39 36 38 37 35 32 31 31 30 33 35 37 36 32 31 30 29 27 26 23 22 16 28 26 21 17 26 26 21 24 24 21 20 21 22
30 32 37 43 41 41 39 40 40 38 39 38 37 37 39 37 34 34 34 37 37 35 35 34 28 30 27 24 26 23 33 31 23 21 28 29 24 26 27 23 23 24 25
25 23 30 36 37 38 37 36 34 33 35 35 36 38 39 41 39 38 36 38 37 36 36 35 33 31 31 28 26 28 27 29 31 22 24 29 33 30 30 26 26 27 28
37 26 31 33 34 34 32 33 31 31 33 37 41 44 48 41 43 40 37 36 39 37 36 35 34 32 32 29 29 26 27 28 36 32 33 29 27 32 33 32 29 30 31
37 39 29 32 35 35 33 31 38 35 38 44 46 48 44 35 37 37 35 36 39 40 37 37 35 35 35 30 30 29 29 31 33 37 32 31 36 33 35 40 34 34 33

GFSSE_700_spd_138.txt.gz
Wind_Speed
6 2 4 8 13 20 16 14 14 15 16 16 16 15 13 12 9 6 4 5 6 4 5 5 5 6 7 7 7 7 10 10 10 10 2 5 7 6 6 4 2 3 5
6 4 5 8 13 20 16 13 14 13 15 17 17 14 12 10 9 6 4 6 5 4 4 4 5 6 6 8 9 9 10 10 14 12 21 4 2 1 3 5 6 7 6
6 1 4 7 11 13 13 13 12 11 12 14 14 12 11 9 8 6 6 6 6 6 6 6 5 6 7 7 7 6 6 9 12 10 7 4 2 1 3 6 7 8 8
1 3 5 5 7 9 9 11 11 8 7 7 8 9 9 7 7 7 7 7 8 9 9 8 6 5 8 10 10 10 8 10 7 5 1 4 5 5 6 7 7 7 7
10 5 5 6 7 7 9 10 10 8 5 3 4 5 6 7 8 8 8 9 9 9 9 9 11 9 11 12 13 10 8 8 5 3 5 6 6 7 7 6 5 5 7
15 7 8 8 7 9 10 9 9 7 6 3 1 3 5 7 8 8 8 8 8 9 11 12 12 12 10 11 12 13 11 11 7 4 4 5 7 8 9 8 7 6 7
12 10 8 9 10 11 11 9 8 7 4 3 1 2 4 6 7 7 7 7 8 9 10 9 10 11 11 13 15 15 12 7 10 9 8 6 9 9 10 10 9 8 8
12 11 12 11 11 10 9 7 7 5 3 2 1 1 2 5 6 6 7 6 6 6 6 7 10 11 10 11 11 12 10 8 8 6 5 5 7 9 9 8 6 6 4
14 13 13 15 13 10 9 7 5 3 1 2 2 1 1 3 4 5 6 5 5 7 7 9 11 13 10 9 10 9 10 9 11 13 6 3 5 6 9 8 7 7 5
17 15 13 13 13 12 10 9 7 3 1 0 2 1 1 3 4 4 4 4 5 7 8 9 11 12 10 5 6 6 9 13 12 11 12 8 1 6 7 7 7 7 6
20 18 17 16 15 12 10 10 10 8 5 3 1 1 1 2 3 3 4 4 5 7 9 9 9 11 9 5 5 6 8 14 10 11 12 7 8 8 8 9 9 8 6
20 21 20 18 16 13 14 13 13 12 9 7 5 4 1 2 3 4 3 3 4 5 8 9 9 9 9 6 6 8 14 8 19 13 18 13 9 6 9 11 11 9 7
24 20 19 19 17 16 18 17 17 16 14 11 10 8 7 6 4 5 5 4 4 5 8 10 11 9 9 8 9 11 11 13 12 17 13 13 10 5 9 10 10 8 7
26 22 22 19 20 22 21 23 23 21 18 15 14 14 12 11 10 9 8 8 8 8 9 11 11 11 10 12 13 14 14 16 17 26 16 15 13 12 10 11 10 9 8
31 28 26 22 22 24 25 24 26 26 24 21 19 18 18 17 15 15 14 13 13 12 11 11 12 12 13 14 15 16 17 18 17 24 18 15 13 13 13 13 12 11 8
39 37 35 29 28 27 27 26 22 27 29 27 25 23 23 22 21 20 19 18 17 16 15 14 14 14 14 15 14 17 17 14 15 21 23 16 13 13 13 15 14 12 10
31 33 43 42 37 33 32 29 26 25 25 28 28 27 27 27 26 25 24 24 22 21 19 18 18 18 16 14 16 14 12 15 10 16 16 17 17 15 17 15 14 14 12
36 36 39 37 41 41 37 36 30 27 27 27 27 27 28 27 29 30 30 28 27 25 23 23 22 22 19 16 13 16 15 11 10 12 19 19 20 19 20 15 15 15 14
39 39 40 44 40 38 38 38 36 33 32 31 30 30 32 32 31 32 32 32 31 30 27 25 25 25 21 20 16 15 17 23 14 17 22 24 22 22 19 17 17 16 16
36 35 39 41 42 42 38 41 40 38 37 35 35 33 35 34 32 33 33 33 34 33 31 28 28 26 24 22 22 19 15 22 24 24 20 22 24 24 21 19 18 16 17
40 39 38 42 42 44 44 44 44 42 38 38 37 38 35 33 30 29 29 32 34 35 33 31 29 26 28 28 26 24 18 19 18 22 17 20 27 27 23 22 19 17 18
45 43 41 38 40 41 45 41 41 40 41 41 40 39 37 30 29 29 23 24 30 33 35 35 30 29 29 33 31 25 25 21 25 21 19 21 32 26 25 24 20 20 21
48 46 45 39 38 43 50 45 45 42 43 41 40 34 35 32 34 33 30 31 29 35 38 38 33 32 33 34 35 31 28 25 17 19 20 17 28 27 26 26 24 24 24
47 46 38 36 36 43 42 43 43 46 43 37 32 40 35 34 33 34 33 34 33 37 39 38 37 35 32 35 35 31 28 27 20 24 20 19 29 31 26 28 27 26 26
32 35 33 33 31 36 40 41 39 33 33 27 33 29 27 35 37 38 40 39 41 39 39 39 37 38 37 39 34 31 33 27 26 22 19 22 22 22 30 28 35 29 28
26 21 22 27 27 25 30 32 29 35 30 27 30 29 35 39 42 40 41 40 36 36 36 40 38 37 39 38 34 33 33 31 27 25 23 21 23 30 29 30 29 32 31